Wetterdaten: Donnerstag, 30.06.2016
Datum Zeit Temp. A. Feuchte A. Luftdruck Regen Wind Richtung Richtung Sonnenschein ET UV Solar Taupunkt Windchill Windben Empfang
30.06.2016 00:00 20,1 C 80 % 1012,3 hPa 0,0 l/m 0,9 km/h (0 Bft) N-NW 346 0 min 0,000 mm 0,0 UV-I 0 W/m 16,5 C 20,1 C 3,2 km/h (1 Bft) 100,00 %
30.06.2016 00:02 20,0 C 80 % 1012,4 hPa 0,0 l/m 0,8 km/h (0 Bft) N-NW 348 0 min 0,000 mm 0,0 UV-I 0 W/m 16,4 C 20,0 C 3,2 km/h (1 Bft) 100,00 %
30.06.2016 00:04 20,0 C 80 % 1012,4 hPa 0,0 l/m 1,7 km/h (1 Bft) N 350 0 min 0,000 mm 0,0 UV-I 0 W/m 16,4 C 20,0 C 3,2 km/h (1 Bft) 100,00 %
30.06.2016 00:06 20,1 C 81 % 1012,4 hPa 0,0 l/m 0,0 km/h (0 Bft) N 350 0 min 0,000 mm 0,0 UV-I 0 W/m 16,7 C 20,1 C 0,0 km/h (0 Bft) 100,00 %
30.06.2016 00:08 20,0 C 80 % 1012,4 hPa 0,0 l/m 0,1 km/h (0 Bft) N 350 0 min 0,000 mm 0,0 UV-I 0 W/m 16,4 C 20,0 C 1,6 km/h (1 Bft) 100,00 %
30.06.2016 00:10 20,0 C 80 % 1012,4 hPa 0,0 l/m 0,1 km/h (0 Bft) N 350 0 min 0,000 mm 0,0 UV-I 0 W/m 16,4 C 20,0 C 1,6 km/h (1 Bft) 100,00 %
30.06.2016 00:12 20,1 C 80 % 1012,4 hPa 0,0 l/m 0,3 km/h (0 Bft) N 350 0 min 0,000 mm 0,0 UV-I 0 W/m 16,5 C 20,1 C 1,6 km/h (1 Bft) 100,00 %
30.06.2016 00:14 20,1 C 79 % 1012,4 hPa 0,0 l/m 1,3 km/h (1 Bft) N 350 0 min 0,000 mm 0,0 UV-I 0 W/m 16,3 C 20,1 C 3,2 km/h (1 Bft) 100,00 %
30.06.2016 00:16 20,2 C 79 % 1012,4 hPa 0,0 l/m 0,7 km/h (0 Bft) N 350 0 min 0,000 mm 0,0 UV-I 0 W/m 16,4 C 20,2 C 3,2 km/h (1 Bft) 97,87 %
30.06.2016 00:18 20,3 C 79 % 1012,5 hPa 0,0 l/m 2,1 km/h (1 Bft) N 355 0 min 0,000 mm 0,0 UV-I 0 W/m 16,5 C 20,3 C 4,8 km/h (1 Bft) 97,87 %
30.06.2016 00:20 20,3 C 78 % 1012,5 hPa 0,0 l/m 0,4 km/h (0 Bft) N 351 0 min 0,000 mm 0,0 UV-I 0 W/m 16,3 C 20,3 C 3,2 km/h (1 Bft) 97,87 %
30.06.2016 00:22 20,3 C 79 % 1012,5 hPa 0,0 l/m 2,3 km/h (1 Bft) N 349 0 min 0,000 mm 0,0 UV-I 0 W/m 16,5 C 20,3 C 4,8 km/h (1 Bft) 100,00 %
30.06.2016 00:24 20,3 C 78 % 1012,5 hPa 0,0 l/m 1,0 km/h (0 Bft) N-NW 343 0 min 0,000 mm 0,0 UV-I 0 W/m 16,3 C 20,3 C 3,2 km/h (1 Bft) 97,87 %
30.06.2016 00:26 20,3 C 78 % 1012,5 hPa 0,0 l/m 0,2 km/h (0 Bft) N-NW 343 0 min 0,000 mm 0,0 UV-I 0 W/m 16,3 C 20,3 C 1,6 km/h (1 Bft) 97,87 %
30.06.2016 00:28 20,3 C 78 % 1012,5 hPa 0,0 l/m 0,3 km/h (0 Bft) N-NW 343 0 min 0,000 mm 0,0 UV-I 0 W/m 16,3 C 20,3 C 1,6 km/h (1 Bft) 97,87 %
30.06.2016 00:30 20,3 C 78 % 1012,4 hPa 0,0 l/m 0,2 km/h (0 Bft) N-NW 343 0 min 0,000 mm 0,0 UV-I 0 W/m 16,3 C 20,3 C 1,6 km/h (1 Bft) 100,00 %
30.06.2016 00:32 20,3 C 78 % 1012,4 hPa 0,0 l/m 0,0 km/h (0 Bft) N-NW 343 0 min 0,000 mm 0,0 UV-I 0 W/m 16,3 C 20,3 C 1,6 km/h (1 Bft) 100,00 %
30.06.2016 00:34 20,3 C 78 % 1012,4 hPa 0,0 l/m 0,0 km/h (0 Bft) N-NW 343 0 min 0,000 mm 0,0 UV-I 0 W/m 16,3 C 20,3 C 0,0 km/h (0 Bft) 100,00 %
30.06.2016 00:36 20,3 C 78 % 1012,4 hPa 0,0 l/m 0,2 km/h (0 Bft) N-NW 343 0 min 0,000 mm 0,0 UV-I 0 W/m 16,3 C 20,3 C 1,6 km/h (1 Bft) 97,37 %
30.06.2016 00:38 20,3 C 78 % 1012,4 hPa 0,0 l/m 0,5 km/h (0 Bft) N-NW 343 0 min 0,000 mm 0,0 UV-I 0 W/m 16,3 C 20,3 C 3,2 km/h (1 Bft) 97,87 %
30.06.2016 00:40 20,3 C 77 % 1012,4 hPa 0,0 l/m 0,1 km/h (0 Bft) N-NW 343 0 min 0,000 mm 0,0 UV-I 0 W/m 16,1 C 20,3 C 1,6 km/h (1 Bft) 100,00 %
30.06.2016 00:42 20,3 C 77 % 1012,5 hPa 0,0 l/m 0,0 km/h (0 Bft) N-NW 343 0 min 0,000 mm 0,0 UV-I 0 W/m 16,1 C 20,3 C 0,0 km/h (0 Bft) 100,00 %
30.06.2016 00:44 20,3 C 78 % 1012,5 hPa 0,0 l/m 0,0 km/h (0 Bft) N-NW 344 0 min 0,000 mm 0,0 UV-I 0 W/m 16,3 C 20,3 C 0,0 km/h (0 Bft) 100,00 %
30.06.2016 00:46 20,3 C 79 % 1012,5 hPa 0,0 l/m 0,1 km/h (0 Bft) N-NW 343 0 min 0,000 mm 0,0 UV-I 0 W/m 16,5 C 20,3 C 1,6 km/h (1 Bft) 100,00 %
30.06.2016 00:48 20,2 C 81 % 1012,6 hPa 0,0 l/m 0,2 km/h (0 Bft) N-NW 343 0 min 0,000 mm 0,0 UV-I 0 W/m 16,8 C 20,2 C 1,6 km/h (1 Bft) 100,00 %
30.06.2016 00:50 20,2 C 81 % 1012,5 hPa 0,0 l/m 0,0 km/h (0 Bft) N-NW 343 0 min 0,000 mm 0,0 UV-I 0 W/m 16,8 C 20,2 C 0,0 km/h (0 Bft) 100,00 %
30.06.2016 00:52 20,1 C 80 % 1012,5 hPa 0,0 l/m 0,0 km/h (0 Bft) N-NW 343 0 min 0,000 mm 0,0 UV-I 0 W/m 16,5 C 20,1 C 1,6 km/h (1 Bft) 100,00 %
30.06.2016 00:54 20,1 C 81 % 1012,5 hPa 0,0 l/m 0,5 km/h (0 Bft) N-NW 343 0 min 0,000 mm 0,0 UV-I 0 W/m 16,7 C 20,1 C 1,6 km/h (1 Bft) 98,00 %
30.06.2016 00:56 19,9 C 81 % 1012,5 hPa 0,0 l/m 1,7 km/h (1 Bft) N-NW 343 0 min 0,000 mm 0,0 UV-I 0 W/m 16,5 C 19,9 C 3,2 km/h (1 Bft) 100,00 %
30.06.2016 00:58 19,8 C 81 % 1012,5 hPa 0,0 l/m 2,6 km/h (1 Bft) W-SW 257 0 min 0,000 mm 0,0 UV-I 0 W/m 16,4 C 19,8 C 4,8 km/h (1 Bft) 97,87 %
30.06.2016 01:00 19,7 C 82 % 1012,5 hPa 0,0 l/m 3,1 km/h (1 Bft) W-SW 256 0 min 0,000 mm 0,0 UV-I 0 W/m 16,5 C 19,7 C 4,8 km/h (1 Bft) 100,00 %
30.06.2016 01:02 19,5 C 83 % 1012,4 hPa 0,0 l/m 0,8 km/h (0 Bft) W-SW 256 0 min 0,000 mm 0,0 UV-I 0 W/m 16,5 C 19,5 C 3,2 km/h (1 Bft) 100,00 %
30.06.2016 01:04 19,4 C 83 % 1012,4 hPa 0,0 l/m 0,8 km/h (0 Bft) W-SW 256 0 min 0,000 mm 0,0 UV-I 0 W/m 16,4 C 19,4 C 3,2 km/h (1 Bft) 100,00 %
30.06.2016 01:06 19,3 C 83 % 1012,3 hPa 0,0 l/m 1,1 km/h (1 Bft) W-SW 256 0 min 0,000 mm 0,0 UV-I 0 W/m 16,3 C 19,3 C 1,6 km/h (1 Bft) 100,00 %
30.06.2016 01:08 19,2 C 83 % 1012,3 hPa 0,0 l/m 1,6 km/h (1 Bft) W-SW 256 0 min 0,000 mm 0,0 UV-I 0 W/m 16,2 C 19,2 C 3,2 km/h (1 Bft) 100,00 %
30.06.2016 01:10 19,1 C 83 % 1012,3 hPa 0,0 l/m 0,0 km/h (0 Bft) W-SW 256 0 min 0,000 mm 0,0 UV-I 0 W/m 16,1 C 19,1 C 1,6 km/h (1 Bft) 100,00 %
30.06.2016 01:12 18,9 C 84 % 1012,3 hPa 0,0 l/m 1,9 km/h (1 Bft) W-SW 256 0 min 0,000 mm 0,0 UV-I 0 W/m 16,1 C 18,9 C 3,2 km/h (1 Bft) 97,87 %
30.06.2016 01:14 18,9 C 84 % 1012,3 hPa 0,0 l/m 1,4 km/h (1 Bft) W-SW 256 0 min 0,000 mm 0,0 UV-I 0 W/m 16,1 C 18,9 C 3,2 km/h (1 Bft) 95,74 %
30.06.2016 01:16 18,9 C 84 % 1012,2 hPa 0,0 l/m 0,1 km/h (0 Bft) W-SW 256 0 min 0,000 mm 0,0 UV-I 0 W/m 16,1 C 18,9 C 1,6 km/h (1 Bft) 97,87 %
30.06.2016 01:18 18,9 C 84 % 1012,1 hPa 0,0 l/m 0,5 km/h (0 Bft) W-SW 256 0 min 0,000 mm 0,0 UV-I 0 W/m 16,1 C 18,9 C 3,2 km/h (1 Bft) 93,62 %
30.06.2016 01:20 18,9 C 84 % 1012,1 hPa 0,0 l/m 3,1 km/h (1 Bft) W-SW 251 0 min 0,000 mm 0,0 UV-I 0 W/m 16,1 C 18,9 C 4,8 km/h (1 Bft) 91,49 %
30.06.2016 01:22 18,8 C 84 % 1012,1 hPa 0,0 l/m 3,7 km/h (1 Bft) S-SW 205 0 min 0,000 mm 0,0 UV-I 0 W/m 16,0 C 18,8 C 4,8 km/h (1 Bft) 97,87 %
30.06.2016 01:24 18,8 C 84 % 1012,1 hPa 0,0 l/m 4,1 km/h (1 Bft) S-SW 205 0 min 0,000 mm 0,0 UV-I 0 W/m 16,0 C 18,8 C 4,8 km/h (1 Bft) 97,87 %
30.06.2016 01:26 18,8 C 84 % 1012,1 hPa 0,0 l/m 4,1 km/h (1 Bft) S-SW 205 0 min 0,000 mm 0,0 UV-I 0 W/m 16,0 C 18,8 C 4,8 km/h (1 Bft) 93,62 %
30.06.2016 01:28 18,7 C 85 % 1012,0 hPa 0,0 l/m 4,2 km/h (1 Bft) S-SW 196 0 min 0,000 mm 0,0 UV-I 0 W/m 16,1 C 18,7 C 4,8 km/h (1 Bft) 97,87 %
30.06.2016 01:30 18,6 C 85 % 1012,0 hPa 0,0 l/m 4,7 km/h (1 Bft) S 171 0 min 0,000 mm 0,0 UV-I 0 W/m 16,0 C 18,6 C 6,4 km/h (2 Bft) 95,74 %
30.06.2016 01:32 18,4 C 85 % 1012,0 hPa 0,0 l/m 6,3 km/h (2 Bft) S-SO 163 0 min 0,000 mm 0,0 UV-I 0 W/m 15,8 C 18,4 C 8,0 km/h (2 Bft) 95,74 %
30.06.2016 01:34 18,3 C 85 % 1012,0 hPa 0,0 l/m 3,1 km/h (1 Bft) S-SO 163 0 min 0,000 mm 0,0 UV-I 0 W/m 15,7 C 18,3 C 6,4 km/h (2 Bft) 95,74 %
30.06.2016 01:36 18,2 C 86 % 1012,1 hPa 0,0 l/m 0,4 km/h (0 Bft) S-SO 163 0 min 0,000 mm 0,0 UV-I 0 W/m 15,8 C 18,2 C 1,6 km/h (1 Bft) 96,00 %
30.06.2016 01:38 18,2 C 86 % 1012,1 hPa 0,0 l/m 1,6 km/h (1 Bft) S-SO 163 0 min 0,000 mm 0,0 UV-I 0 W/m 15,8 C 18,2 C 3,2 km/h (1 Bft) 95,74 %
30.06.2016 01:40 18,2 C 86 % 1012,2 hPa 0,0 l/m 2,4 km/h (1 Bft) S-SO 167 0 min 0,000 mm 0,0 UV-I 0 W/m 15,8 C 18,2 C 6,4 km/h (2 Bft) 98,00 %
30.06.2016 01:42 18,2 C 87 % 1012,2 hPa 0,0 l/m 3,3 km/h (1 Bft) S 169 0 min 0,000 mm 0,0 UV-I 0 W/m 16,0 C 18,2 C 6,4 km/h (2 Bft) 97,87 %
30.06.2016 01:44 18,1 C 87 % 1012,3 hPa 0,0 l/m 3,2 km/h (1 Bft) S 187 0 min 0,000 mm 0,0 UV-I 0 W/m 15,9 C 18,1 C 6,4 km/h (2 Bft) 95,74 %
30.06.2016 01:46 18,1 C 88 % 1012,3 hPa 0,0 l/m 2,1 km/h (1 Bft) S 188 0 min 0,000 mm 0,0 UV-I 0 W/m 16,1 C 18,1 C 3,2 km/h (1 Bft) 100,00 %
30.06.2016 01:48 18,0 C 88 % 1012,4 hPa 0,0 l/m 2,5 km/h (1 Bft) S 188 0 min 0,000 mm 0,0 UV-I 0 W/m 16,0 C 18,0 C 4,8 km/h (1 Bft) 97,87 %
30.06.2016 01:50 17,9 C 89 % 1012,4 hPa 0,0 l/m 5,2 km/h (1 Bft) SW 227 0 min 0,000 mm 0,0 UV-I 0 W/m 16,1 C 17,9 C 6,4 km/h (2 Bft) 100,00 %
30.06.2016 01:52 17,9 C 89 % 1012,5 hPa 0,0 l/m 5,4 km/h (1 Bft) SW 233 0 min 0,000 mm 0,0 UV-I 0 W/m 16,1 C 17,9 C 6,4 km/h (2 Bft) 100,00 %
30.06.2016 01:54 17,9 C 89 % 1012,5 hPa 0,0 l/m 4,0 km/h (1 Bft) SW 233 0 min 0,000 mm 0,0 UV-I 0 W/m 16,1 C 17,9 C 4,8 km/h (1 Bft) 100,00 %
30.06.2016 01:56 17,9 C 89 % 1012,5 hPa 0,0 l/m 4,1 km/h (1 Bft) SW 233 0 min 0,000 mm 0,0 UV-I 0 W/m 16,1 C 17,9 C 4,8 km/h (1 Bft) 97,87 %
30.06.2016 01:58 17,9 C 89 % 1012,5 hPa 0,0 l/m 4,1 km/h (1 Bft) SW 233 0 min 0,000 mm 0,0 UV-I 0 W/m 16,1 C 17,9 C 4,8 km/h (1 Bft) 100,00 %
30.06.2016 02:00 17,9 C 89 % 1012,5 hPa 0,0 l/m 4,4 km/h (1 Bft) SW 233 0 min 0,000 mm 0,0 UV-I 0 W/m 16,1 C 17,9 C 6,4 km/h (2 Bft) 100,00 %
30.06.2016 02:02 17,9 C 89 % 1012,5 hPa 0,0 l/m 2,9 km/h (1 Bft) SW 233 0 min 0,000 mm 0,0 UV-I 0 W/m 16,1 C 17,9 C 4,8 km/h (1 Bft) 100,00 %
30.06.2016 02:04 17,9 C 89 % 1012,6 hPa 0,0 l/m 1,7 km/h (1 Bft) SW 233 0 min 0,000 mm 0,0 UV-I 0 W/m 16,1 C 17,9 C 3,2 km/h (1 Bft) 100,00 %
30.06.2016 02:06 17,9 C 89 % 1012,6 hPa 0,0 l/m 0,5 km/h (0 Bft) SW 233 0 min 0,000 mm 0,0 UV-I 0 W/m 16,1 C 17,9 C 1,6 km/h (1 Bft) 100,00 %
30.06.2016 02:08 17,9 C 89 % 1012,6 hPa 0,0 l/m 0,8 km/h (0 Bft) SW 233 0 min 0,000 mm 0,0 UV-I 0 W/m 16,1 C 17,9 C 3,2 km/h (1 Bft) 100,00 %
30.06.2016 02:10 17,9 C 88 % 1012,6 hPa 0,0 l/m 1,7 km/h (1 Bft) SW 233 0 min 0,000 mm 0,0 UV-I 0 W/m 15,9 C 17,9 C 3,2 km/h (1 Bft) 100,00 %
30.06.2016 02:12 17,9 C 88 % 1012,6 hPa 0,0 l/m 1,5 km/h (1 Bft) SW 233 0 min 0,000 mm 0,0 UV-I 0 W/m 15,9 C 17,9 C 3,2 km/h (1 Bft) 100,00 %
30.06.2016 02:14 17,9 C 88 % 1012,6 hPa 0,0 l/m 1,4 km/h (1 Bft) SW 233 0 min 0,000 mm 0,0 UV-I 0 W/m 15,9 C 17,9 C 3,2 km/h (1 Bft) 100,00 %
30.06.2016 02:16 17,9 C 88 % 1012,6 hPa 0,0 l/m 0,4 km/h (0 Bft) SW 233 0 min 0,000 mm 0,0 UV-I 0 W/m 15,9 C 17,9 C 3,2 km/h (1 Bft) 97,87 %
30.06.2016 02:18 17,9 C 88 % 1012,6 hPa 0,0 l/m 1,4 km/h (1 Bft) SW 233 0 min 0,000 mm 0,0 UV-I 0 W/m 15,9 C 17,9 C 3,2 km/h (1 Bft) 97,87 %
30.06.2016 02:20 17,9 C 88 % 1012,6 hPa 0,0 l/m 1,8 km/h (1 Bft) SW 233 0 min 0,000 mm 0,0 UV-I 0 W/m 15,9 C 17,9 C 3,2 km/h (1 Bft) 100,00 %
30.06.2016 02:22 17,9 C 88 % 1012,7 hPa 0,0 l/m 1,2 km/h (1 Bft) SW 233 0 min 0,000 mm 0,0 UV-I 0 W/m 15,9 C 17,9 C 3,2 km/h (1 Bft) 100,00 %
30.06.2016 02:24 18,0 C 87 % 1012,6 hPa 0,0 l/m 0,4 km/h (0 Bft) SW 233 0 min 0,000 mm 0,0 UV-I 0 W/m 15,8 C 18,0 C 3,2 km/h (1 Bft) 100,00 %
30.06.2016 02:26 18,1 C 86 % 1012,6 hPa 0,0 l/m 0,4 km/h (0 Bft) SW 233 0 min 0,000 mm 0,0 UV-I 0 W/m 15,7 C 18,1 C 1,6 km/h (1 Bft) 96,00 %
30.06.2016 02:28 18,1 C 85 % 1012,6 hPa 0,0 l/m 3,1 km/h (1 Bft) N 349 0 min 0,000 mm 0,0 UV-I 0 W/m 15,5 C 18,1 C 6,4 km/h (2 Bft) 98,00 %
30.06.2016 02:30 18,2 C 86 % 1012,5 hPa 0,0 l/m 5,7 km/h (1 Bft) N-NO 26 0 min 0,000 mm 0,0 UV-I 0 W/m 15,8 C 18,2 C 6,4 km/h (2 Bft) 95,74 %
30.06.2016 02:32 18,1 C 86 % 1012,5 hPa 0,0 l/m 5,3 km/h (1 Bft) N-NO 22 0 min 0,000 mm 0,0 UV-I 0 W/m 15,7 C 18,1 C 8,0 km/h (2 Bft) 100,00 %
30.06.2016 02:34 18,0 C 86 % 1012,5 hPa 0,0 l/m 3,5 km/h (1 Bft) N-NO 24 0 min 0,000 mm 0,0 UV-I 0 W/m 15,6 C 18,0 C 4,8 km/h (1 Bft) 97,87 %
30.06.2016 02:36 17,9 C 86 % 1012,5 hPa 0,0 l/m 2,8 km/h (1 Bft) N-NO 24 0 min 0,000 mm 0,0 UV-I 0 W/m 15,5 C 17,9 C 4,8 km/h (1 Bft) 97,87 %
30.06.2016 02:38 17,9 C 87 % 1012,5 hPa 0,0 l/m 2,6 km/h (1 Bft) N-NO 24 0 min 0,000 mm 0,0 UV-I 0 W/m 15,7 C 17,9 C 3,2 km/h (1 Bft) 100,00 %
30.06.2016 02:40 18,0 C 86 % 1012,5 hPa 0,0 l/m 2,2 km/h (1 Bft) N-NO 24 0 min 0,000 mm 0,0 UV-I 0 W/m 15,6 C 18,0 C 3,2 km/h (1 Bft) 100,00 %
30.06.2016 02:42 18,0 C 86 % 1012,5 hPa 0,0 l/m 0,3 km/h (0 Bft) N-NO 24 0 min 0,000 mm 0,0 UV-I 0 W/m 15,6 C 18,0 C 1,6 km/h (1 Bft) 100,00 %
30.06.2016 02:44 18,1 C 86 % 1012,6 hPa 0,0 l/m 0,0 km/h (0 Bft) N-NO 24 0 min 0,000 mm 0,0 UV-I 0 W/m 15,7 C 18,1 C 0,0 km/h (0 Bft) 100,00 %
30.06.2016 02:46 18,1 C 86 % 1012,6 hPa 0,0 l/m 0,4 km/h (0 Bft) N-NO 24 0 min 0,000 mm 0,0 UV-I 0 W/m 15,7 C 18,1 C 1,6 km/h (1 Bft) 100,00 %
30.06.2016 02:48 18,1 C 86 % 1012,6 hPa 0,0 l/m 0,1 km/h (0 Bft) N-NO 24 0 min 0,000 mm 0,0 UV-I 0 W/m 15,7 C 18,1 C 1,6 km/h (1 Bft) 100,00 %
30.06.2016 02:50 17,9 C 87 % 1012,6 hPa 0,0 l/m 0,0 km/h (0 Bft) N-NO 24 0 min 0,000 mm 0,0 UV-I 0 W/m 15,7 C 17,9 C 0,0 km/h (0 Bft) 100,00 %
30.06.2016 02:52 17,8 C 87 % 1012,6 hPa 0,0 l/m 0,0 km/h (0 Bft) N-NO 24 0 min 0,000 mm 0,0 UV-I 0 W/m 15,6 C 17,8 C 0,0 km/h (0 Bft) 97,87 %
30.06.2016 02:54 17,7 C 88 % 1012,6 hPa 0,0 l/m 0,0 km/h (0 Bft) N-NO 24 0 min 0,000 mm 0,0 UV-I 0 W/m 15,7 C 17,7 C 0,0 km/h (0 Bft) 100,00 %
30.06.2016 02:56 17,6 C 88 % 1012,6 hPa 0,0 l/m 0,0 km/h (0 Bft) N-NO 24 0 min 0,000 mm 0,0 UV-I 0 W/m 15,6 C 17,6 C 0,0 km/h (0 Bft) 100,00 %
30.06.2016 02:58 17,6 C 88 % 1012,5 hPa 0,0 l/m 0,0 km/h (0 Bft) N-NO 24 0 min 0,000 mm 0,0 UV-I 0 W/m 15,6 C 17,6 C 0,0 km/h (0 Bft) 100,00 %
30.06.2016 03:00 17,7 C 88 % 1012,5 hPa 0,0 l/m 0,0 km/h (0 Bft) N-NO 24 0 min 0,000 mm 0,0 UV-I 0 W/m 15,7 C 17,7 C 0,0 km/h (0 Bft) 100,00 %
30.06.2016 03:02 17,7 C 87 % 1012,5 hPa 0,0 l/m 0,0 km/h (0 Bft) N-NO 24 0 min 0,000 mm 0,0 UV-I 0 W/m 15,5 C 17,7 C 0,0 km/h (0 Bft) 100,00 %
30.06.2016 03:04 17,8 C 87 % 1012,5 hPa 0,0 l/m 0,0 km/h (0 Bft) N-NO 24 0 min 0,000 mm 0,0 UV-I 0 W/m 15,6 C 17,8 C 0,0 km/h (0 Bft) 100,00 %
30.06.2016 03:06 17,8 C 87 % 1012,5 hPa 0,0 l/m 0,0 km/h (0 Bft) N-NO 24 0 min 0,000 mm 0,0 UV-I 0 W/m 15,6 C 17,8 C 0,0 km/h (0 Bft) 100,00 %
30.06.2016 03:08 17,8 C 86 % 1012,5 hPa 0,0 l/m 0,6 km/h (0 Bft) N-NO 24 0 min 0,000 mm 0,0 UV-I 0 W/m 15,4 C 17,8 C 1,6 km/h (1 Bft) 100,00 %
30.06.2016 03:10 17,9 C 87 % 1012,4 hPa 0,0 l/m 2,0 km/h (1 Bft) N-NO 24 0 min 0,000 mm 0,0 UV-I 0 W/m 15,7 C 17,9 C 3,2 km/h (1 Bft) 100,00 %
30.06.2016 03:12 17,8 C 86 % 1012,4 hPa 0,0 l/m 3,1 km/h (1 Bft) N-NO 30 0 min 0,000 mm 0,0 UV-I 0 W/m 15,4 C 17,8 C 4,8 km/h (1 Bft) 97,87 %
30.06.2016 03:14 17,8 C 86 % 1012,4 hPa 0,0 l/m 3,1 km/h (1 Bft) NO 34 0 min 0,000 mm 0,0 UV-I 0 W/m 15,4 C 17,8 C 4,8 km/h (1 Bft) 97,37 %
30.06.2016 03:16 17,9 C 85 % 1012,4 hPa 0,0 l/m 3,3 km/h (1 Bft) NO 49 0 min 0,000 mm 0,0 UV-I 0 W/m 15,3 C 17,9 C 4,8 km/h (1 Bft) 97,87 %
30.06.2016 03:18 17,9 C 85 % 1012,4 hPa 0,0 l/m 2,1 km/h (1 Bft) NO 49 0 min 0,000 mm 0,0 UV-I 0 W/m 15,3 C 17,9 C 3,2 km/h (1 Bft) 97,87 %
30.06.2016 03:20 17,9 C 86 % 1012,4 hPa 0,0 l/m 3,1 km/h (1 Bft) NO 51 0 min 0,000 mm 0,0 UV-I 0 W/m 15,5 C 17,9 C 4,8 km/h (1 Bft) 95,74 %
30.06.2016 03:22 17,9 C 86 % 1012,4 hPa 0,0 l/m 3,6 km/h (1 Bft) O-NO 67 0 min 0,000 mm 0,0 UV-I 0 W/m 15,5 C 17,9 C 4,8 km/h (1 Bft) 93,62 %
30.06.2016 03:24 17,9 C 86 % 1012,4 hPa 0,0 l/m 3,3 km/h (1 Bft) O 82 0 min 0,000 mm 0,0 UV-I 0 W/m 15,5 C 17,9 C 4,8 km/h (1 Bft) 95,74 %
30.06.2016 03:26 17,9 C 86 % 1012,3 hPa 0,0 l/m 2,4 km/h (1 Bft) O 82 0 min 0,000 mm 0,0 UV-I 0 W/m 15,5 C 17,9 C 3,2 km/h (1 Bft) 97,96 %
30.06.2016 03:28 17,9 C 86 % 1012,3 hPa 0,0 l/m 3,6 km/h (1 Bft) O-NO 78 0 min 0,000 mm 0,0 UV-I 0 W/m 15,5 C 17,9 C 4,8 km/h (1 Bft) 97,87 %
30.06.2016 03:30 17,9 C 86 % 1012,3 hPa 0,0 l/m 4,6 km/h (1 Bft) O 85 0 min 0,000 mm 0,0 UV-I 0 W/m 15,5 C 17,9 C 8,0 km/h (2 Bft) 98,00 %
30.06.2016 03:32 17,9 C 86 % 1012,3 hPa 0,0 l/m 5,6 km/h (1 Bft) O 90 0 min 0,000 mm 0,0 UV-I 0 W/m 15,5 C 17,9 C 9,7 km/h (2 Bft) 97,37 %
30.06.2016 03:34 17,9 C 86 % 1012,2 hPa 0,0 l/m 6,0 km/h (2 Bft) O 90 0 min 0,000 mm 0,0 UV-I 0 W/m 15,5 C 17,9 C 11,3 km/h (2 Bft) 95,74 %
30.06.2016 03:36 17,9 C 85 % 1012,1 hPa 0,0 l/m 6,4 km/h (2 Bft) O-SO 118 0 min 0,000 mm 0,0 UV-I 0 W/m 15,3 C 17,9 C 9,7 km/h (2 Bft) 96,15 %
30.06.2016 03:38 18,0 C 85 % 1012,1 hPa 0,0 l/m 6,1 km/h (2 Bft) O-SO 119 0 min 0,000 mm 0,0 UV-I 0 W/m 15,4 C 18,0 C 11,3 km/h (2 Bft) 93,62 %
30.06.2016 03:40 18,0 C 85 % 1012,1 hPa 0,0 l/m 5,9 km/h (2 Bft) SO 128 0 min 0,000 mm 0,0 UV-I 0 W/m 15,4 C 18,0 C 9,7 km/h (2 Bft) 95,74 %
30.06.2016 03:42 18,1 C 84 % 1012,1 hPa 0,0 l/m 5,5 km/h (1 Bft) O-SO 118 0 min 0,000 mm 0,0 UV-I 0 W/m 15,4 C 18,1 C 8,0 km/h (2 Bft) 95,74 %
30.06.2016 03:44 18,1 C 84 % 1012,1 hPa 0,0 l/m 6,2 km/h (2 Bft) SO 124 0 min 0,000 mm 0,0 UV-I 0 W/m 15,4 C 18,1 C 9,7 km/h (2 Bft) 97,92 %
30.06.2016 03:46 18,1 C 84 % 1012,1 hPa 0,0 l/m 5,1 km/h (1 Bft) SO 142 0 min 0,000 mm 0,0 UV-I 0 W/m 15,4 C 18,1 C 6,4 km/h (2 Bft) 97,96 %
30.06.2016 03:48 18,1 C 85 % 1012,2 hPa 0,0 l/m 3,4 km/h (1 Bft) SO 133 0 min 0,000 mm 0,0 UV-I 0 W/m 15,5 C 18,1 C 4,8 km/h (1 Bft) 100,00 %
30.06.2016 03:50 18,1 C 85 % 1012,2 hPa 0,0 l/m 2,2 km/h (1 Bft) SO 135 0 min 0,000 mm 0,0 UV-I 0 W/m 15,5 C 18,1 C 4,8 km/h (1 Bft) 100,00 %
30.06.2016 03:52 18,1 C 85 % 1012,3 hPa 0,0 l/m 4,5 km/h (1 Bft) W 271 0 min 0,000 mm 0,0 UV-I 0 W/m 15,5 C 18,1 C 9,7 km/h (2 Bft) 100,00 %
30.06.2016 03:54 18,1 C 86 % 1012,4 hPa 0,0 l/m 6,7 km/h (2 Bft) W-SW 254 0 min 0,000 mm 0,0 UV-I 0 W/m 15,7 C 18,0 C 9,7 km/h (2 Bft) 97,87 %
30.06.2016 03:56 18,0 C 86 % 1012,5 hPa 0,0 l/m 5,5 km/h (1 Bft) S-SW 213 0 min 0,000 mm 0,0 UV-I 0 W/m 15,6 C 18,0 C 8,0 km/h (2 Bft) 97,87 %
30.06.2016 03:58 17,9 C 87 % 1012,6 hPa 0,0 l/m 6,6 km/h (2 Bft) S-SW 202 0 min 0,000 mm 0,0 UV-I 0 W/m 15,7 C 17,8 C 9,7 km/h (2 Bft) 100,00 %
30.06.2016 04:00 17,8 C 87 % 1012,7 hPa 0,0 l/m 11,3 km/h (2 Bft) S-SW 202 0 min 0,000 mm 0,0 UV-I 0 W/m 15,6 C 15,7 C 14,5 km/h (3 Bft) 100,00 %
30.06.2016 04:02 17,8 C 87 % 1012,6 hPa 0,0 l/m 9,3 km/h (2 Bft) S 191 0 min 0,000 mm 0,0 UV-I 0 W/m 15,6 C 16,5 C 12,9 km/h (3 Bft) 97,14 %
30.06.2016 04:04 17,8 C 88 % 1012,6 hPa 0,0 l/m 7,7 km/h (2 Bft) SW 232 0 min 0,000 mm 0,0 UV-I 0 W/m 15,8 C 17,2 C 12,9 km/h (3 Bft) 100,00 %
30.06.2016 04:06 17,7 C 88 % 1012,5 hPa 0,0 l/m 7,8 km/h (2 Bft) SW 229 0 min 0,000 mm 0,0 UV-I 0 W/m 15,7 C 17,0 C 12,9 km/h (3 Bft) 100,00 %
30.06.2016 04:08 17,7 C 89 % 1012,5 hPa 0,0 l/m 6,0 km/h (2 Bft) SW 234 0 min 0,000 mm 0,0 UV-I 0 W/m 15,9 C 17,7 C 9,7 km/h (2 Bft) 100,00 %
30.06.2016 04:10 17,7 C 89 % 1012,4 hPa 0,0 l/m 5,9 km/h (2 Bft) S 184 0 min 0,000 mm 0,0 UV-I 0 W/m 15,9 C 17,7 C 9,7 km/h (2 Bft) 97,87 %
30.06.2016 04:12 17,7 C 89 % 1012,3 hPa 0,0 l/m 4,7 km/h (1 Bft) SW 235 0 min 0,000 mm 0,0 UV-I 0 W/m 15,9 C 17,7 C 8,0 km/h (2 Bft) 97,92 %
30.06.2016 04:14 17,7 C 89 % 1012,2 hPa 0,0 l/m 6,2 km/h (2 Bft) SW 226 0 min 0,000 mm 0,0 UV-I 0 W/m 15,9 C 17,7 C 8,0 km/h (2 Bft) 100,00 %
30.06.2016 04:16 17,7 C 89 % 1012,2 hPa 0,0 l/m 5,5 km/h (1 Bft) SW 227 0 min 0,000 mm 0,0 UV-I 0 W/m 15,9 C 17,7 C 8,0 km/h (2 Bft) 100,00 %
30.06.2016 04:18 17,7 C 89 % 1012,2 hPa 0,0 l/m 4,3 km/h (1 Bft) S-SW 194 0 min 0,000 mm 0,0 UV-I 0 W/m 15,9 C 17,7 C 6,4 km/h (2 Bft) 97,87 %
30.06.2016 04:20 17,7 C 89 % 1012,2 hPa 0,0 l/m 4,4 km/h (1 Bft) S 175 0 min 0,000 mm 0,0 UV-I 0 W/m 15,9 C 17,7 C 9,7 km/h (2 Bft) 100,00 %
30.06.2016 04:22 17,7 C 90 % 1012,3 hPa 0,0 l/m 6,1 km/h (2 Bft) SW 225 0 min 0,000 mm 0,0 UV-I 0 W/m 16,0 C 17,7 C 8,0 km/h (2 Bft) 97,87 %
30.06.2016 04:24 17,7 C 90 % 1012,4 hPa 0,0 l/m 7,6 km/h (2 Bft) SW 229 0 min 0,000 mm 0,0 UV-I 0 W/m 16,0 C 17,1 C 11,3 km/h (2 Bft) 100,00 %
30.06.2016 04:26 17,7 C 90 % 1012,4 hPa 0,0 l/m 7,9 km/h (2 Bft) SW 232 0 min 0,000 mm 0,0 UV-I 0 W/m 16,0 C 17,0 C 12,9 km/h (3 Bft) 100,00 %
30.06.2016 04:28 17,7 C 90 % 1012,4 hPa 0,0 l/m 6,5 km/h (2 Bft) SW 224 0 min 0,000 mm 0,0 UV-I 0 W/m 16,0 C 17,7 C 9,7 km/h (2 Bft) 97,14 %
30.06.2016 04:30 17,7 C 90 % 1012,4 hPa 0,0 l/m 3,4 km/h (1 Bft) W 262 0 min 0,000 mm 0,0 UV-I 0 W/m 16,0 C 17,7 C 4,8 km/h (1 Bft) 100,00 %
30.06.2016 04:32 17,7 C 90 % 1012,4 hPa 0,0 l/m 2,3 km/h (1 Bft) W 262 0 min 0,000 mm 0,0 UV-I 0 W/m 16,0 C 17,7 C 4,8 km/h (1 Bft) 100,00 %
30.06.2016 04:34 17,7 C 90 % 1012,4 hPa 0,0 l/m 1,7 km/h (1 Bft) W 265 0 min 0,000 mm 0,0 UV-I 0 W/m 16,0 C 17,7 C 4,8 km/h (1 Bft) 97,87 %
30.06.2016 04:36 17,7 C 90 % 1012,5 hPa 0,0 l/m 3,1 km/h (1 Bft) W 260 0 min 0,000 mm 0,0 UV-I 0 W/m 16,0 C 17,7 C 6,4 km/h (2 Bft) 100,00 %
30.06.2016 04:38 17,7 C 90 % 1012,5 hPa 0,0 l/m 3,4 km/h (1 Bft) W-SW 240 0 min 0,000 mm 0,0 UV-I 0 W/m 16,0 C 17,7 C 4,8 km/h (1 Bft) 100,00 %
30.06.2016 04:40 17,7 C 90 % 1012,5 hPa 0,0 l/m 3,8 km/h (1 Bft) S-SW 193 0 min 0,000 mm 0,0 UV-I 0 W/m 16,0 C 17,7 C 4,8 km/h (1 Bft) 100,00 %
30.06.2016 04:42 17,7 C 90 % 1012,4 hPa 0,0 l/m 4,1 km/h (1 Bft) W-SW 239 0 min 0,000 mm 0,0 UV-I 0 W/m 16,0 C 17,7 C 6,4 km/h (2 Bft) 100,00 %
30.06.2016 04:44 17,7 C 90 % 1012,3 hPa 0,0 l/m 2,7 km/h (1 Bft) SW 225 0 min 0,000 mm 0,0 UV-I 0 W/m 16,0 C 17,7 C 4,8 km/h (1 Bft) 97,87 %
30.06.2016 04:46 17,7 C 91 % 1012,3 hPa 0,0 l/m 2,8 km/h (1 Bft) SW 215 0 min 0,000 mm 0,0 UV-I 0 W/m 16,2 C 17,7 C 4,8 km/h (1 Bft) 97,87 %
30.06.2016 04:48 17,7 C 91 % 1012,3 hPa 0,0 l/m 0,9 km/h (0 Bft) S-SW 210 0 min 0,000 mm 0,0 UV-I 0 W/m 16,2 C 17,7 C 1,6 km/h (1 Bft) 100,00 %
30.06.2016 04:50 17,6 C 91 % 1012,3 hPa 0,0 l/m 0,6 km/h (0 Bft) S-SW 210 0 min 0,000 mm 0,0 UV-I 0 W/m 16,1 C 17,6 C 3,2 km/h (1 Bft) 97,87 %
30.06.2016 04:52 17,7 C 91 % 1012,3 hPa 0,0 l/m 3,4 km/h (1 Bft) S-SW 211 0 min 0,000 mm 0,0 UV-I 0 W/m 16,2 C 17,7 C 4,8 km/h (1 Bft) 100,00 %
30.06.2016 04:54 17,6 C 91 % 1012,3 hPa 0,0 l/m 2,3 km/h (1 Bft) S-SW 211 0 min 0,000 mm 0,0 UV-I 0 W/m 16,1 C 17,6 C 4,8 km/h (1 Bft) 97,37 %
30.06.2016 04:56 17,7 C 91 % 1012,2 hPa 0,0 l/m 0,8 km/h (0 Bft) S-SW 211 0 min 0,000 mm 0,0 UV-I 0 W/m 16,2 C 17,7 C 1,6 km/h (1 Bft) 97,87 %
30.06.2016 04:58 17,6 C 91 % 1012,1 hPa 0,0 l/m 0,0 km/h (0 Bft) S-SW 211 0 min 0,000 mm 0,0 UV-I 0 W/m 16,1 C 17,6 C 1,6 km/h (1 Bft) 100,00 %
30.06.2016 05:00 17,6 C 91 % 1012,1 hPa 0,0 l/m 0,0 km/h (0 Bft) S-SW 211 0 min 0,000 mm 0,0 UV-I 0 W/m 16,1 C 17,6 C 0,0 km/h (0 Bft) 100,00 %
30.06.2016 05:02 17,6 C 91 % 1012,0 hPa 0,0 l/m 0,7 km/h (0 Bft) S-SW 211 0 min 0,000 mm 0,0 UV-I 0 W/m 16,1 C 17,6 C 1,6 km/h (1 Bft) 100,00 %
30.06.2016 05:04 17,7 C 91 % 1012,0 hPa 0,0 l/m 0,5 km/h (0 Bft) S-SW 211 0 min 0,000 mm 0,0 UV-I 0 W/m 16,2 C 17,7 C 1,6 km/h (1 Bft) 100,00 %
30.06.2016 05:06 17,7 C 91 % 1012,1 hPa 0,0 l/m 0,3 km/h (0 Bft) S-SW 211 0 min 0,000 mm 0,0 UV-I 0 W/m 16,2 C 17,7 C 1,6 km/h (1 Bft) 97,87 %
30.06.2016 05:08 17,7 C 91 % 1012,1 hPa 0,0 l/m 0,7 km/h (0 Bft) S-SW 211 0 min 0,000 mm 0,0 UV-I 0 W/m 16,2 C 17,7 C 1,6 km/h (1 Bft) 93,62 %
30.06.2016 05:10 17,7 C 91 % 1012,1 hPa 0,0 l/m 0,4 km/h (0 Bft) S-SW 211 0 min 0,000 mm 0,0 UV-I 0 W/m 16,2 C 17,7 C 1,6 km/h (1 Bft) 95,74 %
30.06.2016 05:12 17,7 C 91 % 1012,1 hPa 0,0 l/m 0,1 km/h (0 Bft) S-SW 211 0 min 0,000 mm 0,0 UV-I 0 W/m 16,2 C 17,7 C 1,6 km/h (1 Bft) 97,87 %
30.06.2016 05:14 17,7 C 91 % 1012,1 hPa 0,0 l/m 0,0 km/h (0 Bft) S-SW 211 0 min 0,000 mm 0,0 UV-I 0 W/m 16,2 C 17,7 C 0,0 km/h (0 Bft) 96,00 %
30.06.2016 05:16 17,6 C 91 % 1012,0 hPa 0,0 l/m 0,6 km/h (0 Bft) S-SW 211 0 min 0,000 mm 0,0 UV-I 0 W/m 16,1 C 17,6 C 3,2 km/h (1 Bft) 95,74 %
30.06.2016 05:18 17,6 C 91 % 1011,9 hPa 0,0 l/m 1,8 km/h (1 Bft) S-SW 211 0 min 0,000 mm 0,0 UV-I 0 W/m 16,1 C 17,6 C 3,2 km/h (1 Bft) 97,87 %
30.06.2016 05:20 17,5 C 91 % 1011,8 hPa 0,0 l/m 3,1 km/h (1 Bft) SO 136 0 min 0,000 mm 0,0 UV-I 0 W/m 16,0 C 17,5 C 4,8 km/h (1 Bft) 95,74 %
30.06.2016 05:22 17,5 C 91 % 1011,8 hPa 0,0 l/m 4,7 km/h (1 Bft) O-NO 65 0 min 0,000 mm 0,0 UV-I 5 W/m 16,0 C 17,5 C 6,4 km/h (2 Bft) 100,00 %
30.06.2016 05:24 17,5 C 91 % 1011,8 hPa 0,0 l/m 6,8 km/h (2 Bft) O-NO 59 0 min 0,000 mm 0,0 UV-I 5 W/m 16,0 C 17,3 C 8,0 km/h (2 Bft) 94,44 %
30.06.2016 05:26 17,5 C 91 % 1011,7 hPa 0,0 l/m 6,9 km/h (2 Bft) O-NO 59 0 min 0,000 mm 0,0 UV-I 5 W/m 16,0 C 17,3 C 8,0 km/h (2 Bft) 94,00 %
30.06.2016 05:28 17,5 C 91 % 1011,7 hPa 0,0 l/m 6,5 km/h (2 Bft) O-NO 71 0 min 0,000 mm 0,0 UV-I 5 W/m 16,0 C 17,5 C 8,0 km/h (2 Bft) 97,87 %
30.06.2016 05:30 17,5 C 91 % 1011,7 hPa 0,0 l/m 4,3 km/h (1 Bft) NO 53 0 min 0,000 mm 0,0 UV-I 5 W/m 16,0 C 17,5 C 6,4 km/h (2 Bft) 97,87 %
30.06.2016 05:32 17,5 C 91 % 1011,6 hPa 0,0 l/m 3,9 km/h (1 Bft) NO 53 0 min 0,000 mm 0,0 UV-I 5 W/m 16,0 C 17,5 C 4,8 km/h (1 Bft) 94,74 %
30.06.2016 05:34 17,5 C 91 % 1011,8 hPa 0,0 l/m 5,3 km/h (1 Bft) O-NO 69 0 min 0,000 mm 0,0 UV-I 5 W/m 16,0 C 17,5 C 8,0 km/h (2 Bft) 97,87 %
30.06.2016 05:36 17,5 C 91 % 1011,8 hPa 0,0 l/m 7,5 km/h (2 Bft) O-NO 73 0 min 0,000 mm 0,0 UV-I 6 W/m 16,0 C 17,0 C 11,3 km/h (2 Bft) 97,92 %
30.06.2016 05:38 17,5 C 91 % 1011,7 hPa 0,0 l/m 10,6 km/h (2 Bft) O 80 0 min 0,000 mm 0,0 UV-I 8 W/m 16,0 C 15,6 C 12,9 km/h (3 Bft) 95,74 %
30.06.2016 05:40 17,5 C 92 % 1011,7 hPa 0,0 l/m 9,8 km/h (2 Bft) O 81 0 min 0,000 mm 0,0 UV-I 9 W/m 16,2 C 16,0 C 12,9 km/h (3 Bft) 94,00 %
30.06.2016 05:42 17,6 C 92 % 1011,7 hPa 0,0 l/m 10,5 km/h (2 Bft) O-NO 77 0 min 0,000 mm 0,0 UV-I 10 W/m 16,3 C 15,8 C 16,1 km/h (3 Bft) 98,00 %
30.06.2016 05:44 17,6 C 92 % 1011,6 hPa 0,0 l/m 9,6 km/h (2 Bft) O-NO 59 0 min 0,000 mm 0,0 UV-I 12 W/m 16,3 C 16,1 C 12,9 km/h (3 Bft) 100,00 %
30.06.2016 05:46 17,6 C 91 % 1011,6 hPa 0,0 l/m 11,8 km/h (2 Bft) O-SO 103 0 min 0,000 mm 0,0 UV-I 13 W/m 16,1 C 15,3 C 16,1 km/h (3 Bft) 97,87 %
30.06.2016 05:48 17,6 C 91 % 1011,6 hPa 0,0 l/m 12,4 km/h (3 Bft) NO 56 0 min 0,000 mm 0,0 UV-I 17 W/m 16,1 C 15,1 C 16,1 km/h (3 Bft) 100,00 %
30.06.2016 05:50 17,7 C 91 % 1011,5 hPa 0,0 l/m 8,4 km/h (2 Bft) O-NO 69 0 min 0,000 mm 0,0 UV-I 18 W/m 16,2 C 16,8 C 14,5 km/h (3 Bft) 97,14 %
30.06.2016 05:52 17,7 C 91 % 1011,5 hPa 0,0 l/m 9,0 km/h (2 Bft) O 88 0 min 0,000 mm 0,0 UV-I 20 W/m 16,2 C 16,5 C 14,5 km/h (3 Bft) 100,00 %
30.06.2016 05:54 17,7 C 91 % 1011,4 hPa 0,0 l/m 10,3 km/h (2 Bft) O-NO 74 0 min 0,000 mm 0,0 UV-I 24 W/m 16,2 C 16,0 C 17,7 km/h (3 Bft) 100,00 %
30.06.2016 05:56 17,7 C 91 % 1011,3 hPa 0,0 l/m 13,7 km/h (3 Bft) O-NO 69 0 min 0,000 mm 0,0 UV-I 27 W/m 16,2 C 14,8 C 20,9 km/h (4 Bft) 100,00 %
30.06.2016 05:58 17,7 C 91 % 1011,2 hPa 0,0 l/m 13,6 km/h (3 Bft) O-NO 62 0 min 0,000 mm 0,0 UV-I 30 W/m 16,2 C 14,9 C 17,7 km/h (3 Bft) 98,00 %
30.06.2016 06:00 17,8 C 91 % 1011,2 hPa 0,0 l/m 10,8 km/h (2 Bft) O 84 0 min 0,025 mm 0,0 UV-I 34 W/m 16,3 C 15,9 C 19,3 km/h (3 Bft) 100,00 %
30.06.2016 06:02 17,8 C 91 % 1011,2 hPa 0,0 l/m 8,6 km/h (2 Bft) O 90 0 min 0,000 mm 0,0 UV-I 36 W/m 16,3 C 16,8 C 12,9 km/h (3 Bft) 97,87 %
30.06.2016 06:04 17,9 C 91 % 1011,2 hPa 0,0 l/m 8,7 km/h (2 Bft) O-SO 112 0 min 0,000 mm 0,0 UV-I 38 W/m 16,4 C 16,8 C 14,5 km/h (3 Bft) 95,74 %
30.06.2016 06:06 17,9 C 90 % 1011,1 hPa 0,0 l/m 9,6 km/h (2 Bft) SO 134 0 min 0,000 mm 0,0 UV-I 40 W/m 16,2 C 16,5 C 16,1 km/h (3 Bft) 100,00 %
30.06.2016 06:08 18,0 C 90 % 1011,2 hPa 0,0 l/m 9,3 km/h (2 Bft) O-SO 107 0 min 0,000 mm 0,0 UV-I 42 W/m 16,3 C 16,7 C 12,9 km/h (3 Bft) 100,00 %
30.06.2016 06:10 18,0 C 90 % 1011,2 hPa 0,0 l/m 7,0 km/h (2 Bft) O-SO 105 0 min 0,000 mm 0,0 UV-I 42 W/m 16,3 C 17,7 C 12,9 km/h (3 Bft) 100,00 %
30.06.2016 06:12 18,1 C 90 % 1011,3 hPa 0,0 l/m 5,2 km/h (1 Bft) O-NO 71 0 min 0,000 mm 0,0 UV-I 40 W/m 16,4 C 18,1 C 9,7 km/h (2 Bft) 100,00 %
30.06.2016 06:14 18,1 C 90 % 1011,3 hPa 0,0 l/m 4,4 km/h (1 Bft) O-SO 107 0 min 0,000 mm 0,0 UV-I 39 W/m 16,4 C 18,1 C 6,4 km/h (2 Bft) 100,00 %
30.06.2016 06:16 18,1 C 90 % 1011,3 hPa 0,0 l/m 5,5 km/h (1 Bft) O 93 0 min 0,000 mm 0,0 UV-I 38 W/m 16,4 C 18,1 C 9,7 km/h (2 Bft) 100,00 %
30.06.2016 06:18 18,2 C 90 % 1011,4 hPa 0,0 l/m 3,0 km/h (1 Bft) O-NO 61 0 min 0,000 mm 0,0 UV-I 37 W/m 16,5 C 18,2 C 4,8 km/h (1 Bft) 100,00 %
30.06.2016 06:20 18,2 C 90 % 1011,4 hPa 0,0 l/m 5,1 km/h (1 Bft) O 94 0 min 0,000 mm 0,0 UV-I 38 W/m 16,5 C 18,2 C 8,0 km/h (2 Bft) 97,87 %
30.06.2016 06:22 18,2 C 90 % 1011,4 hPa 0,0 l/m 3,6 km/h (1 Bft) O 82 0 min 0,000 mm 0,0 UV-I 40 W/m 16,5 C 18,2 C 6,4 km/h (2 Bft) 100,00 %
30.06.2016 06:24 18,2 C 90 % 1011,4 hPa 0,0 l/m 3,5 km/h (1 Bft) O-NO 66 0 min 0,000 mm 0,0 UV-I 41 W/m 16,5 C 18,2 C 8,0 km/h (2 Bft) 94,74 %
30.06.2016 06:26 18,2 C 90 % 1011,5 hPa 0,0 l/m 2,8 km/h (1 Bft) O-NO 61 0 min 0,000 mm 0,0 UV-I 42 W/m 16,5 C 18,2 C 6,4 km/h (2 Bft) 100,00 %
30.06.2016 06:28 18,3 C 90 % 1011,5 hPa 0,0 l/m 4,1 km/h (1 Bft) O-NO 63 0 min 0,000 mm 0,0 UV-I 44 W/m 16,6 C 18,3 C 8,0 km/h (2 Bft) 100,00 %
30.06.2016 06:30 18,3 C 90 % 1011,6 hPa 0,0 l/m 3,0 km/h (1 Bft) N 351 0 min 0,000 mm 0,0 UV-I 46 W/m 16,6 C 18,3 C 6,4 km/h (2 Bft) 100,00 %
30.06.2016 06:32 18,3 C 90 % 1011,6 hPa 0,0 l/m 0,6 km/h (0 Bft) N 360 0 min 0,000 mm 0,0 UV-I 50 W/m 16,6 C 18,3 C 3,2 km/h (1 Bft) 97,87 %
30.06.2016 06:34 18,2 C 90 % 1011,6 hPa 0,0 l/m 1,5 km/h (1 Bft) N-NW 338 0 min 0,000 mm 0,0 UV-I 52 W/m 16,5 C 18,2 C 3,2 km/h (1 Bft) 98,00 %
30.06.2016 06:36 18,1 C 90 % 1011,7 hPa 0,0 l/m 0,7 km/h (0 Bft) N-NO 22 0 min 0,000 mm 0,0 UV-I 53 W/m 16,4 C 18,1 C 1,6 km/h (1 Bft) 100,00 %
30.06.2016 06:38 18,1 C 91 % 1011,7 hPa 0,0 l/m 0,9 km/h (0 Bft) N-NW 336 0 min 0,000 mm 0,0 UV-I 54 W/m 16,6 C 18,1 C 3,2 km/h (1 Bft) 100,00 %
30.06.2016 06:40 17,9 C 91 % 1011,8 hPa 0,0 l/m 0,5 km/h (0 Bft) N-NW 340 0 min 0,000 mm 0,0 UV-I 54 W/m 16,4 C 17,9 C 1,6 km/h (1 Bft) 95,74 %
30.06.2016 06:42 17,9 C 91 % 1011,8 hPa 0,0 l/m 1,3 km/h (1 Bft) N-NW 336 0 min 0,000 mm 0,0 UV-I 56 W/m 16,4 C 17,9 C 3,2 km/h (1 Bft) 96,00 %
30.06.2016 06:44 17,9 C 92 % 1011,8 hPa 0,0 l/m 0,7 km/h (0 Bft) N 355 0 min 0,000 mm 0,0 UV-I 59 W/m 16,6 C 17,9 C 1,6 km/h (1 Bft) 97,37 %
30.06.2016 06:46 17,8 C 91 % 1011,8 hPa 0,0 l/m 1,0 km/h (0 Bft) NO 46 0 min 0,000 mm 0,0 UV-I 66 W/m 16,3 C 17,8 C 3,2 km/h (1 Bft) 97,87 %
30.06.2016 06:48 17,8 C 91 % 1011,9 hPa 0,0 l/m 1,1 km/h (1 Bft) N 11 0 min 0,000 mm 0,0 UV-I 73 W/m 16,3 C 17,8 C 1,6 km/h (1 Bft) 100,00 %
30.06.2016 06:50 17,8 C 91 % 1011,9 hPa 0,0 l/m 1,0 km/h (0 Bft) N 5 0 min 0,000 mm 0,0 UV-I 79 W/m 16,3 C 17,8 C 3,2 km/h (1 Bft) 97,87 %
30.06.2016 06:52 17,9 C 91 % 1011,9 hPa 0,0 l/m 1,7 km/h (1 Bft) N 355 0 min 0,000 mm 0,0 UV-I 88 W/m 16,4 C 17,9 C 3,2 km/h (1 Bft) 100,00 %
30.06.2016 06:54 17,9 C 91 % 1011,9 hPa 0,0 l/m 1,6 km/h (1 Bft) N 9 0 min 0,000 mm 0,0 UV-I 95 W/m 16,4 C 17,9 C 3,2 km/h (1 Bft) 100,00 %
30.06.2016 06:56 17,9 C 91 % 1011,9 hPa 0,0 l/m 0,9 km/h (0 Bft) N 350 0 min 0,000 mm 0,0 UV-I 94 W/m 16,4 C 17,9 C 3,2 km/h (1 Bft) 100,00 %
30.06.2016 06:58 17,9 C 91 % 1011,9 hPa 0,0 l/m 1,8 km/h (1 Bft) N-NW 336 0 min 0,000 mm 0,0 UV-I 94 W/m 16,4 C 17,9 C 4,8 km/h (1 Bft) 100,00 %
30.06.2016 07:00 18,0 C 91 % 1011,9 hPa 0,0 l/m 1,5 km/h (1 Bft) N-NW 335 0 min 0,026 mm 0,0 UV-I 97 W/m 16,5 C 18,0 C 6,4 km/h (2 Bft) 100,00 %
30.06.2016 07:02 18,1 C 91 % 1011,9 hPa 0,0 l/m 1,3 km/h (1 Bft) N 5 2 min 0,000 mm 0,0 UV-I 155 W/m 16,6 C 18,1 C 3,2 km/h (1 Bft) 93,62 %
30.06.2016 07:04 18,1 C 91 % 1012,0 hPa 0,0 l/m 0,9 km/h (0 Bft) N 5 2 min 0,000 mm 0,0 UV-I 195 W/m 16,6 C 18,1 C 1,6 km/h (1 Bft) 100,00 %
30.06.2016 07:06 18,2 C 90 % 1012,0 hPa 0,0 l/m 1,5 km/h (1 Bft) N-NW 340 2 min 0,000 mm 0,0 UV-I 182 W/m 16,5 C 18,2 C 3,2 km/h (1 Bft) 97,87 %
30.06.2016 07:08 18,3 C 91 % 1012,0 hPa 0,0 l/m 0,8 km/h (0 Bft) NW 309 2 min 0,000 mm 0,0 UV-I 214 W/m 16,8 C 18,3 C 3,2 km/h (1 Bft) 98,00 %
30.06.2016 07:10 18,4 C 90 % 1012,0 hPa 0,0 l/m 0,5 km/h (0 Bft) N-NW 329 2 min 0,000 mm 0,0 UV-I 216 W/m 16,7 C 18,4 C 1,6 km/h (1 Bft) 97,87 %
30.06.2016 07:12 18,6 C 89 % 1012,0 hPa 0,0 l/m 1,1 km/h (1 Bft) N-NW 327 2 min 0,000 mm 0,0 UV-I 227 W/m 16,7 C 18,6 C 3,2 km/h (1 Bft) 97,56 %
30.06.2016 07:14 18,7 C 88 % 1012,0 hPa 0,0 l/m 0,8 km/h (0 Bft) N-NW 344 2 min 0,000 mm 0,5 UV-I 226 W/m 16,7 C 18,7 C 3,2 km/h (1 Bft) 98,00 %
30.06.2016 07:16 18,8 C 88 % 1012,0 hPa 0,0 l/m 0,6 km/h (0 Bft) N-NW 343 2 min 0,000 mm 0,5 UV-I 179 W/m 16,8 C 18,8 C 1,6 km/h (1 Bft) 97,87 %
30.06.2016 07:18 18,9 C 87 % 1011,9 hPa 0,0 l/m 1,5 km/h (1 Bft) N-NO 15 0 min 0,000 mm 0,5 UV-I 146 W/m 16,7 C 18,9 C 4,8 km/h (1 Bft) 95,74 %
30.06.2016 07:20 19,0 C 87 % 1012,0 hPa 0,0 l/m 0,9 km/h (0 Bft) N 9 0 min 0,000 mm 0,5 UV-I 124 W/m 16,8 C 19,0 C 3,2 km/h (1 Bft) 91,89 %
30.06.2016 07:22 19,0 C 86 % 1011,9 hPa 0,0 l/m 3,3 km/h (1 Bft) N-NO 22 0 min 0,000 mm 0,5 UV-I 127 W/m 16,6 C 19,0 C 6,4 km/h (2 Bft) 96,30 %
30.06.2016 07:24 19,0 C 87 % 1012,0 hPa 0,0 l/m 3,3 km/h (1 Bft) N-NO 33 0 min 0,000 mm 0,5 UV-I 132 W/m 16,8 C 19,0 C 6,4 km/h (2 Bft) 95,12 %
30.06.2016 07:26 19,0 C 87 % 1011,9 hPa 0,0 l/m 2,6 km/h (1 Bft) N-NO 13 0 min 0,000 mm 0,5 UV-I 141 W/m 16,8 C 19,0 C 8,0 km/h (2 Bft) 98,00 %
30.06.2016 07:28 19,0 C 87 % 1011,9 hPa 0,0 l/m 1,6 km/h (1 Bft) N-NW 338 0 min 0,000 mm 0,6 UV-I 151 W/m 16,8 C 19,0 C 4,8 km/h (1 Bft) 97,87 %
30.06.2016 07:30 19,0 C 88 % 1011,9 hPa 0,0 l/m 3,0 km/h (1 Bft) N-NO 20 0 min 0,000 mm 0,6 UV-I 157 W/m 17,0 C 19,0 C 6,4 km/h (2 Bft) 97,96 %
30.06.2016 07:32 19,0 C 88 % 1012,0 hPa 0,0 l/m 1,0 km/h (0 Bft) N-NW 346 0 min 0,000 mm 0,6 UV-I 165 W/m 17,0 C 19,0 C 3,2 km/h (1 Bft) 97,87 %
30.06.2016 07:34 19,0 C 87 % 1012,0 hPa 0,0 l/m 2,2 km/h (1 Bft) N-NO 26 0 min 0,000 mm 0,6 UV-I 171 W/m 16,8 C 19,0 C 6,4 km/h (2 Bft) 97,87 %
30.06.2016 07:36 19,1 C 87 % 1012,0 hPa 0,0 l/m 1,6 km/h (1 Bft) N 5 0 min 0,000 mm 0,6 UV-I 176 W/m 16,9 C 19,1 C 3,2 km/h (1 Bft) 97,87 %
30.06.2016 07:38 19,1 C 87 % 1012,0 hPa 0,0 l/m 1,5 km/h (1 Bft) N-NW 337 0 min 0,000 mm 0,6 UV-I 169 W/m 16,9 C 19,1 C 3,2 km/h (1 Bft) 96,08 %
30.06.2016 07:40 19,2 C 86 % 1012,0 hPa 0,0 l/m 1,6 km/h (1 Bft) N 355 0 min 0,000 mm 0,6 UV-I 189 W/m 16,8 C 19,2 C 3,2 km/h (1 Bft) 97,30 %
30.06.2016 07:42 19,1 C 86 % 1012,1 hPa 0,0 l/m 0,9 km/h (0 Bft) N-NW 340 0 min 0,000 mm 0,7 UV-I 151 W/m 16,7 C 19,1 C 3,2 km/h (1 Bft) 95,74 %
30.06.2016 07:44 19,1 C 86 % 1012,1 hPa 0,0 l/m 1,4 km/h (1 Bft) N-NW 329 0 min 0,000 mm 0,7 UV-I 144 W/m 16,7 C 19,1 C 3,2 km/h (1 Bft) 100,00 %
30.06.2016 07:46 19,1 C 86 % 1012,1 hPa 0,0 l/m 0,5 km/h (0 Bft) N-NW 329 0 min 0,000 mm 0,7 UV-I 122 W/m 16,7 C 19,1 C 3,2 km/h (1 Bft) 98,00 %
30.06.2016 07:48 19,1 C 87 % 1012,1 hPa 0,0 l/m 1,4 km/h (1 Bft) N 360 0 min 0,000 mm 0,7 UV-I 105 W/m 16,9 C 19,1 C 4,8 km/h (1 Bft) 100,00 %
30.06.2016 07:50 19,1 C 87 % 1012,1 hPa 0,0 l/m 0,3 km/h (0 Bft) N 360 0 min 0,000 mm 0,7 UV-I 104 W/m 16,9 C 19,1 C 1,6 km/h (1 Bft) 100,00 %
30.06.2016 07:52 19,1 C 87 % 1012,1 hPa 0,0 l/m 0,8 km/h (0 Bft) N-NO 17 0 min 0,000 mm 0,7 UV-I 105 W/m 16,9 C 19,1 C 3,2 km/h (1 Bft) 100,00 %
30.06.2016 07:54 19,0 C 87 % 1012,1 hPa 0,0 l/m 0,0 km/h (0 Bft) N-NO 17 0 min 0,000 mm 0,8 UV-I 107 W/m 16,8 C 19,0 C 1,6 km/h (1 Bft) 97,87 %
30.06.2016 07:56 19,0 C 87 % 1012,1 hPa 0,0 l/m 0,0 km/h (0 Bft) N-NO 17 0 min 0,000 mm 0,8 UV-I 108 W/m 16,8 C 19,0 C 1,6 km/h (1 Bft) 97,87 %
30.06.2016 07:58 18,9 C 87 % 1012,1 hPa 0,0 l/m 0,0 km/h (0 Bft) N-NO 17 0 min 0,000 mm 0,8 UV-I 108 W/m 16,7 C 18,9 C 0,0 km/h (0 Bft) 100,00 %
30.06.2016 08:00 19,0 C 87 % 1012,1 hPa 0,0 l/m 0,0 km/h (0 Bft) N-NO 17 0 min 0,101 mm 0,8 UV-I 114 W/m 16,8 C 19,0 C 1,6 km/h (1 Bft) 97,87 %
30.06.2016 08:02 19,0 C 87 % 1012,1 hPa 0,0 l/m 0,2 km/h (0 Bft) N-NO 17 0 min 0,000 mm 0,9 UV-I 116 W/m 16,8 C 19,0 C 1,6 km/h (1 Bft) 97,87 %
30.06.2016 08:04 19,0 C 88 % 1012,1 hPa 0,0 l/m 0,1 km/h (0 Bft) N-NO 17 0 min 0,000 mm 0,9 UV-I 117 W/m 17,0 C 19,0 C 1,6 km/h (1 Bft) 100,00 %
30.06.2016 08:06 19,0 C 87 % 1012,1 hPa 0,0 l/m 0,1 km/h (0 Bft) N-NO 17 0 min 0,000 mm 0,9 UV-I 121 W/m 16,8 C 19,0 C 1,6 km/h (1 Bft) 97,87 %
30.06.2016 08:08 19,1 C 88 % 1012,1 hPa 0,0 l/m 0,5 km/h (0 Bft) N-NO 17 0 min 0,000 mm 1,0 UV-I 143 W/m 17,1 C 19,1 C 3,2 km/h (1 Bft) 100,00 %
30.06.2016 08:10 19,1 C 88 % 1012,2 hPa 0,0 l/m 0,3 km/h (0 Bft) N-NO 17 0 min 0,000 mm 1,1 UV-I 177 W/m 17,1 C 19,1 C 1,6 km/h (1 Bft) 95,74 %
30.06.2016 08:12 19,2 C 86 % 1012,1 hPa 0,0 l/m 0,2 km/h (0 Bft) N-NO 17 2 min 0,000 mm 1,2 UV-I 411 W/m 16,8 C 19,2 C 1,6 km/h (1 Bft) 100,00 %
30.06.2016 08:14 19,5 C 86 % 1012,1 hPa 0,0 l/m 0,1 km/h (0 Bft) N-NO 17 2 min 0,000 mm 1,3 UV-I 446 W/m 17,1 C 19,5 C 1,6 km/h (1 Bft) 100,00 %
30.06.2016 08:16 19,7 C 86 % 1012,1 hPa 0,0 l/m 0,8 km/h (0 Bft) N 355 2 min 0,000 mm 1,3 UV-I 483 W/m 17,3 C 19,7 C 3,2 km/h (1 Bft) 97,87 %
30.06.2016 08:18 19,9 C 85 % 1012,1 hPa 0,0 l/m 0,4 km/h (0 Bft) N 350 2 min 0,000 mm 1,2 UV-I 407 W/m 17,3 C 19,9 C 1,6 km/h (1 Bft) 100,00 %
30.06.2016 08:20 20,1 C 84 % 1012,2 hPa 0,0 l/m 1,4 km/h (1 Bft) N-NW 342 2 min 0,000 mm 1,2 UV-I 362 W/m 17,3 C 20,1 C 3,2 km/h (1 Bft) 100,00 %
30.06.2016 08:22 20,2 C 84 % 1012,3 hPa 0,0 l/m 2,1 km/h (1 Bft) W-NW 302 2 min 0,000 mm 1,2 UV-I 407 W/m 17,4 C 20,2 C 4,8 km/h (1 Bft) 97,87 %
30.06.2016 08:24 20,2 C 83 % 1012,3 hPa 0,0 l/m 1,2 km/h (1 Bft) N 350 0 min 0,000 mm 1,1 UV-I 264 W/m 17,2 C 20,2 C 3,2 km/h (1 Bft) 98,00 %
30.06.2016 08:26 20,2 C 85 % 1012,3 hPa 0,0 l/m 2,2 km/h (1 Bft) N 355 0 min 0,000 mm 1,1 UV-I 255 W/m 17,6 C 20,2 C 6,4 km/h (2 Bft) 97,56 %
30.06.2016 08:28 20,2 C 84 % 1012,3 hPa 0,0 l/m 0,9 km/h (0 Bft) N 351 0 min 0,000 mm 1,1 UV-I 251 W/m 17,4 C 20,2 C 3,2 km/h (1 Bft) 98,11 %
30.06.2016 08:30 20,2 C 84 % 1012,3 hPa 0,0 l/m 1,4 km/h (1 Bft) N 355 0 min 0,000 mm 1,1 UV-I 257 W/m 17,4 C 20,2 C 3,2 km/h (1 Bft) 100,00 %
30.06.2016 08:32 20,2 C 84 % 1012,4 hPa 0,0 l/m 1,8 km/h (1 Bft) NW 305 0 min 0,000 mm 1,2 UV-I 263 W/m 17,4 C 20,2 C 4,8 km/h (1 Bft) 100,00 %
30.06.2016 08:34 20,3 C 84 % 1012,4 hPa 0,0 l/m 1,2 km/h (1 Bft) NW 307 2 min 0,000 mm 1,3 UV-I 296 W/m 17,5 C 20,3 C 3,2 km/h (1 Bft) 100,00 %
30.06.2016 08:36 20,3 C 83 % 1012,5 hPa 0,0 l/m 1,1 km/h (1 Bft) NW 321 2 min 0,000 mm 1,3 UV-I 287 W/m 17,3 C 20,3 C 3,2 km/h (1 Bft) 100,00 %
30.06.2016 08:38 20,4 C 82 % 1012,5 hPa 0,0 l/m 2,7 km/h (1 Bft) W 277 0 min 0,000 mm 1,3 UV-I 282 W/m 17,2 C 20,4 C 6,4 km/h (2 Bft) 100,00 %
30.06.2016 08:40 20,4 C 82 % 1012,6 hPa 0,0 l/m 2,3 km/h (1 Bft) W 270 2 min 0,000 mm 1,4 UV-I 313 W/m 17,2 C 20,4 C 9,7 km/h (2 Bft) 97,87 %
30.06.2016 08:42 20,3 C 82 % 1012,6 hPa 0,0 l/m 1,5 km/h (1 Bft) W 270 2 min 0,000 mm 1,5 UV-I 309 W/m 17,1 C 20,3 C 3,2 km/h (1 Bft) 100,00 %
30.06.2016 08:44 20,5 C 83 % 1012,6 hPa 0,0 l/m 0,4 km/h (0 Bft) W 270 0 min 0,000 mm 1,6 UV-I 288 W/m 17,5 C 20,5 C 1,6 km/h (1 Bft) 95,74 %
30.06.2016 08:46 20,7 C 83 % 1012,7 hPa 0,0 l/m 3,5 km/h (1 Bft) W 263 0 min 0,000 mm 1,7 UV-I 292 W/m 17,7 C 20,7 C 8,0 km/h (2 Bft) 95,74 %
30.06.2016 08:48 20,8 C 82 % 1012,8 hPa 0,0 l/m 5,6 km/h (1 Bft) W-SW 242 0 min 0,000 mm 1,9 UV-I 297 W/m 17,6 C 20,8 C 11,3 km/h (2 Bft) 97,87 %
30.06.2016 08:50 21,0 C 81 % 1012,8 hPa 0,0 l/m 3,6 km/h (1 Bft) W 271 0 min 0,000 mm 1,8 UV-I 297 W/m 17,6 C 21,0 C 9,7 km/h (2 Bft) 100,00 %
30.06.2016 08:52 21,1 C 82 % 1012,9 hPa 0,0 l/m 4,3 km/h (1 Bft) SW 225 2 min 0,000 mm 1,8 UV-I 357 W/m 17,9 C 21,1 C 9,7 km/h (2 Bft) 96,00 %
30.06.2016 08:54 21,2 C 80 % 1013,0 hPa 0,0 l/m 7,3 km/h (2 Bft) W-SW 240 2 min 0,000 mm 1,8 UV-I 363 W/m 17,6 C 20,9 C 12,9 km/h (3 Bft) 97,87 %
30.06.2016 08:56 21,2 C 80 % 1013,0 hPa 0,0 l/m 5,9 km/h (2 Bft) W 281 2 min 0,000 mm 1,8 UV-I 442 W/m 17,6 C 21,2 C 8,0 km/h (2 Bft) 95,74 %
30.06.2016 08:58 21,3 C 79 % 1012,9 hPa 0,0 l/m 5,1 km/h (1 Bft) W-SW 240 2 min 0,000 mm 1,7 UV-I 588 W/m 17,5 C 21,3 C 11,3 km/h (2 Bft) 100,00 %
30.06.2016 09:00 21,3 C 79 % 1012,9 hPa 0,0 l/m 3,7 km/h (1 Bft) W-SW 252 0 min 0,204 mm 1,5 UV-I 298 W/m 17,5 C 21,3 C 11,3 km/h (2 Bft) 95,74 %
30.06.2016 09:02 21,4 C 80 % 1013,0 hPa 0,0 l/m 2,4 km/h (1 Bft) W 266 0 min 0,000 mm 1,5 UV-I 301 W/m 17,8 C 21,4 C 4,8 km/h (1 Bft) 95,74 %
30.06.2016 09:04 21,4 C 77 % 1013,0 hPa 0,0 l/m 4,3 km/h (1 Bft) W-SW 243 0 min 0,000 mm 1,5 UV-I 251 W/m 17,2 C 21,4 C 9,7 km/h (2 Bft) 100,00 %
30.06.2016 09:06 21,3 C 78 % 1013,0 hPa 0,0 l/m 5,1 km/h (1 Bft) SW 215 0 min 0,000 mm 1,5 UV-I 239 W/m 17,3 C 21,3 C 8,0 km/h (2 Bft) 97,87 %
30.06.2016 09:08 21,3 C 78 % 1013,1 hPa 0,0 l/m 7,6 km/h (2 Bft) W 269 0 min 0,000 mm 1,6 UV-I 275 W/m 17,3 C 20,9 C 11,3 km/h (2 Bft) 100,00 %
30.06.2016 09:10 21,2 C 77 % 1013,1 hPa 0,0 l/m 9,4 km/h (2 Bft) SW 219 0 min 0,000 mm 1,7 UV-I 260 W/m 17,0 C 20,1 C 19,3 km/h (3 Bft) 97,87 %
30.06.2016 09:12 21,2 C 77 % 1013,1 hPa 0,0 l/m 7,4 km/h (2 Bft) NW 312 0 min 0,000 mm 1,7 UV-I 271 W/m 17,0 C 20,8 C 14,5 km/h (3 Bft) 97,87 %
30.06.2016 09:14 21,2 C 78 % 1013,1 hPa 0,0 l/m 4,6 km/h (1 Bft) W-SW 254 0 min 0,000 mm 1,6 UV-I 260 W/m 17,2 C 21,2 C 11,3 km/h (2 Bft) 97,87 %
30.06.2016 09:16 21,2 C 79 % 1013,1 hPa 0,0 l/m 4,8 km/h (1 Bft) W-SW 256 0 min 0,000 mm 1,7 UV-I 246 W/m 17,4 C 21,2 C 14,5 km/h (3 Bft) 97,87 %
30.06.2016 09:18 21,2 C 79 % 1013,2 hPa 0,0 l/m 6,9 km/h (2 Bft) W-SW 238 0 min 0,000 mm 1,7 UV-I 246 W/m 17,4 C 21,0 C 12,9 km/h (3 Bft) 97,87 %
30.06.2016 09:20 21,1 C 78 % 1013,2 hPa 0,0 l/m 11,5 km/h (2 Bft) W-SW 252 0 min 0,000 mm 1,8 UV-I 283 W/m 17,1 C 19,4 C 16,1 km/h (3 Bft) 95,74 %
30.06.2016 09:22 21,1 C 79 % 1013,2 hPa 0,0 l/m 8,8 km/h (2 Bft) W-NW 298 0 min 0,000 mm 2,1 UV-I 304 W/m 17,3 C 20,2 C 12,9 km/h (3 Bft) 97,87 %
30.06.2016 09:24 21,2 C 79 % 1013,2 hPa 0,0 l/m 6,2 km/h (2 Bft) W-SW 240 0 min 0,000 mm 2,0 UV-I 309 W/m 17,4 C 21,2 C 16,1 km/h (3 Bft) 97,87 %
30.06.2016 09:26 21,2 C 79 % 1013,2 hPa 0,0 l/m 6,0 km/h (2 Bft) W-NW 293 2 min 0,000 mm 2,2 UV-I 419 W/m 17,4 C 21,2 C 9,7 km/h (2 Bft) 94,00 %
30.06.2016 09:28 21,3 C 79 % 1013,2 hPa 0,0 l/m 8,7 km/h (2 Bft) SW 229 0 min 0,000 mm 1,9 UV-I 309 W/m 17,5 C 20,5 C 12,9 km/h (3 Bft) 97,87 %
30.06.2016 09:30 21,2 C 79 % 1013,2 hPa 0,0 l/m 9,6 km/h (2 Bft) W 262 0 min 0,000 mm 2,0 UV-I 315 W/m 17,4 C 20,1 C 14,5 km/h (3 Bft) 97,87 %
30.06.2016 09:32 21,2 C 79 % 1013,2 hPa 0,0 l/m 5,7 km/h (1 Bft) W-SW 257 0 min 0,000 mm 2,0 UV-I 324 W/m 17,4 C 21,2 C 11,3 km/h (2 Bft) 95,74 %
30.06.2016 09:34 21,3 C 79 % 1013,2 hPa 0,0 l/m 6,3 km/h (2 Bft) W-SW 238 0 min 0,000 mm 2,0 UV-I 326 W/m 17,5 C 21,3 C 16,1 km/h (3 Bft) 95,74 %
30.06.2016 09:36 21,4 C 79 % 1013,2 hPa 0,0 l/m 7,7 km/h (2 Bft) W 275 0 min 0,000 mm 2,1 UV-I 342 W/m 17,6 C 20,9 C 12,9 km/h (3 Bft) 96,00 %
30.06.2016 09:38 21,5 C 79 % 1013,3 hPa 0,0 l/m 6,2 km/h (2 Bft) W-NW 297 0 min 0,000 mm 2,2 UV-I 352 W/m 17,7 C 21,5 C 11,3 km/h (2 Bft) 97,92 %
30.06.2016 09:40 21,7 C 79 % 1013,3 hPa 0,0 l/m 5,5 km/h (1 Bft) W-SW 254 2 min 0,000 mm 2,4 UV-I 371 W/m 17,9 C 21,7 C 12,9 km/h (3 Bft) 97,87 %
30.06.2016 09:42 21,8 C 78 % 1013,3 hPa 0,0 l/m 8,9 km/h (2 Bft) W-NW 289 2 min 0,000 mm 2,8 UV-I 547 W/m 17,8 C 21,0 C 12,9 km/h (3 Bft) 97,87 %
30.06.2016 09:44 21,9 C 79 % 1013,4 hPa 0,0 l/m 4,3 km/h (1 Bft) W-SW 250 2 min 0,000 mm 2,9 UV-I 634 W/m 18,1 C 21,9 C 11,3 km/h (2 Bft) 97,87 %
30.06.2016 09:46 22,2 C 78 % 1013,4 hPa 0,0 l/m 10,2 km/h (2 Bft) W-SW 247 2 min 0,000 mm 3,1 UV-I 661 W/m 18,2 C 21,0 C 14,5 km/h (3 Bft) 100,00 %
30.06.2016 09:48 22,2 C 78 % 1013,4 hPa 0,0 l/m 11,6 km/h (2 Bft) SW 219 2 min 0,000 mm 3,0 UV-I 606 W/m 18,2 C 20,7 C 20,9 km/h (4 Bft) 95,74 %
30.06.2016 09:50 22,3 C 77 % 1013,4 hPa 0,0 l/m 11,2 km/h (2 Bft) W-SW 247 2 min 0,000 mm 2,9 UV-I 563 W/m 18,1 C 20,9 C 19,3 km/h (3 Bft) 100,00 %
30.06.2016 09:52 22,2 C 77 % 1013,4 hPa 0,0 l/m 12,8 km/h (3 Bft) W 262 2 min 0,000 mm 2,9 UV-I 529 W/m 18,0 C 20,4 C 19,3 km/h (3 Bft) 97,87 %
30.06.2016 09:54 22,3 C 78 % 1013,5 hPa 0,0 l/m 10,3 km/h (2 Bft) W-SW 254 2 min 0,000 mm 3,0 UV-I 504 W/m 18,3 C 21,1 C 17,7 km/h (3 Bft) 97,87 %
30.06.2016 09:56 22,4 C 76 % 1013,5 hPa 0,0 l/m 12,5 km/h (3 Bft) W-SW 258 0 min 0,000 mm 2,6 UV-I 373 W/m 18,0 C 20,7 C 20,9 km/h (4 Bft) 97,87 %
30.06.2016 09:58 22,3 C 76 % 1013,5 hPa 0,0 l/m 13,8 km/h (3 Bft) W-SW 238 0 min 0,000 mm 2,4 UV-I 302 W/m 17,9 C 20,3 C 17,7 km/h (3 Bft) 100,00 %
30.06.2016 10:00 22,2 C 77 % 1013,5 hPa 0,0 l/m 13,4 km/h (3 Bft) S 188 0 min 0,254 mm 2,3 UV-I 281 W/m 18,0 C 20,2 C 22,5 km/h (4 Bft) 100,00 %
30.06.2016 10:02 22,1 C 77 % 1013,5 hPa 0,0 l/m 12,6 km/h (3 Bft) S-SW 203 0 min 0,000 mm 2,3 UV-I 265 W/m 17,9 C 20,3 C 20,9 km/h (4 Bft) 100,00 %
30.06.2016 10:04 22,0 C 77 % 1013,5 hPa 0,0 l/m 14,8 km/h (3 Bft) W-SW 255 0 min 0,000 mm 2,3 UV-I 274 W/m 17,8 C 19,7 C 24,1 km/h (4 Bft) 97,37 %
30.06.2016 10:06 22,0 C 78 % 1013,5 hPa 0,0 l/m 13,7 km/h (3 Bft) W-SW 239 0 min 0,000 mm 2,5 UV-I 371 W/m 18,0 C 19,9 C 17,7 km/h (3 Bft) 98,00 %
30.06.2016 10:08 22,1 C 79 % 1013,5 hPa 0,0 l/m 11,7 km/h (2 Bft) S-SW 194 0 min 0,000 mm 2,4 UV-I 346 W/m 18,3 C 20,5 C 17,7 km/h (3 Bft) 100,00 %
30.06.2016 10:10 22,2 C 79 % 1013,5 hPa 0,0 l/m 12,5 km/h (3 Bft) S 178 0 min 0,000 mm 2,5 UV-I 315 W/m 18,4 C 20,4 C 24,1 km/h (4 Bft) 97,87 %
30.06.2016 10:12 22,2 C 77 % 1013,5 hPa 0,0 l/m 15,4 km/h (3 Bft) W 277 0 min 0,000 mm 2,3 UV-I 293 W/m 18,0 C 19,8 C 24,1 km/h (4 Bft) 97,92 %
30.06.2016 10:14 22,2 C 77 % 1013,5 hPa 0,0 l/m 9,0 km/h (2 Bft) W-SW 253 0 min 0,000 mm 2,3 UV-I 291 W/m 18,0 C 21,4 C 14,5 km/h (3 Bft) 98,00 %
30.06.2016 10:16 22,3 C 78 % 1013,5 hPa 0,0 l/m 9,2 km/h (2 Bft) S-SW 202 0 min 0,000 mm 2,5 UV-I 348 W/m 18,3 C 21,4 C 14,5 km/h (3 Bft) 96,00 %
30.06.2016 10:18 22,4 C 77 % 1013,5 hPa 0,0 l/m 13,4 km/h (3 Bft) W-SW 242 0 min 0,000 mm 2,9 UV-I 375 W/m 18,2 C 20,5 C 20,9 km/h (4 Bft) 100,00 %
30.06.2016 10:20 22,7 C 77 % 1013,4 hPa 0,0 l/m 11,2 km/h (2 Bft) W-SW 241 2 min 0,000 mm 3,3 UV-I 594 W/m 18,5 C 21,3 C 17,7 km/h (3 Bft) 100,00 %
30.06.2016 10:22 22,8 C 75 % 1013,5 hPa 0,0 l/m 13,6 km/h (3 Bft) W 273 2 min 0,000 mm 3,4 UV-I 777 W/m 18,1 C 20,9 C 19,3 km/h (3 Bft) 100,00 %
30.06.2016 10:24 23,1 C 74 % 1013,5 hPa 0,0 l/m 19,2 km/h (3 Bft) W-SW 258 2 min 0,000 mm 3,4 UV-I 777 W/m 18,2 C 20,3 C 29,0 km/h (5 Bft) 100,00 %
30.06.2016 10:26 23,1 C 74 % 1013,5 hPa 0,0 l/m 11,2 km/h (2 Bft) W-SW 250 2 min 0,000 mm 2,7 UV-I 440 W/m 18,2 C 21,8 C 17,7 km/h (3 Bft) 100,00 %
30.06.2016 10:28 22,9 C 74 % 1013,5 hPa 0,0 l/m 12,4 km/h (3 Bft) S 172 2 min 0,000 mm 2,9 UV-I 437 W/m 18,0 C 21,3 C 20,9 km/h (4 Bft) 100,00 %
30.06.2016 10:30 22,9 C 75 % 1013,5 hPa 0,0 l/m 15,9 km/h (3 Bft) SW 228 2 min 0,000 mm 3,2 UV-I 468 W/m 18,2 C 20,6 C 22,5 km/h (4 Bft) 97,87 %
30.06.2016 10:32 23,0 C 75 % 1013,6 hPa 0,0 l/m 17,1 km/h (3 Bft) W-SW 244 2 min 0,000 mm 3,2 UV-I 475 W/m 18,3 C 20,5 C 25,7 km/h (4 Bft) 98,00 %
30.06.2016 10:34 23,0 C 74 % 1013,5 hPa 0,0 l/m 14,2 km/h (3 Bft) S-SW 198 2 min 0,000 mm 3,3 UV-I 430 W/m 18,1 C 21,0 C 27,4 km/h (4 Bft) 100,00 %
30.06.2016 10:36 23,1 C 74 % 1013,6 hPa 0,0 l/m 15,2 km/h (3 Bft) W 275 2 min 0,000 mm 4,0 UV-I 446 W/m 18,2 C 21,0 C 22,5 km/h (4 Bft) 100,00 %
30.06.2016 10:38 23,3 C 74 % 1013,5 hPa 0,0 l/m 14,5 km/h (3 Bft) SW 227 2 min 0,000 mm 3,7 UV-I 445 W/m 18,4 C 21,3 C 25,7 km/h (4 Bft) 100,00 %
30.06.2016 10:40 23,4 C 73 % 1013,6 hPa 0,0 l/m 15,6 km/h (3 Bft) W-SW 255 2 min 0,000 mm 4,9 UV-I 743 W/m 18,3 C 21,3 C 22,5 km/h (4 Bft) 100,00 %
30.06.2016 10:42 23,6 C 72 % 1013,5 hPa 0,0 l/m 17,0 km/h (3 Bft) W 268 2 min 0,000 mm 4,6 UV-I 884 W/m 18,2 C 21,3 C 30,6 km/h (5 Bft) 97,87 %
30.06.2016 10:44 23,6 C 71 % 1013,6 hPa 0,0 l/m 10,4 km/h (2 Bft) S-SW 209 2 min 0,000 mm 3,7 UV-I 446 W/m 18,0 C 22,5 C 22,5 km/h (4 Bft) 100,00 %
30.06.2016 10:46 23,6 C 71 % 1013,7 hPa 0,0 l/m 8,4 km/h (2 Bft) W-SW 242 0 min 0,000 mm 3,4 UV-I 417 W/m 18,0 C 23,0 C 17,7 km/h (3 Bft) 100,00 %
30.06.2016 10:48 23,4 C 70 % 1013,7 hPa 0,0 l/m 10,4 km/h (2 Bft) W 277 0 min 0,000 mm 3,3 UV-I 415 W/m 17,6 C 22,3 C 16,1 km/h (3 Bft) 96,00 %
30.06.2016 10:50 23,3 C 70 % 1013,7 hPa 0,0 l/m 10,3 km/h (2 Bft) S-SW 210 0 min 0,000 mm 3,3 UV-I 415 W/m 17,5 C 22,2 C 16,1 km/h (3 Bft) 100,00 %
30.06.2016 10:52 23,3 C 71 % 1013,7 hPa 0,0 l/m 8,8 km/h (2 Bft) S-SW 207 2 min 0,000 mm 3,8 UV-I 436 W/m 17,7 C 22,6 C 14,5 km/h (3 Bft) 98,31 %
30.06.2016 10:54 23,5 C 72 % 1013,7 hPa 0,0 l/m 6,1 km/h (2 Bft) W-SW 255 2 min 0,000 mm 4,2 UV-I 483 W/m 18,2 C 23,5 C 11,3 km/h (2 Bft) 97,92 %
30.06.2016 10:56 23,7 C 71 % 1013,7 hPa 0,0 l/m 11,8 km/h (2 Bft) SW 229 0 min 0,000 mm 3,1 UV-I 413 W/m 18,1 C 22,3 C 29,0 km/h (5 Bft) 100,00 %
30.06.2016 10:58 23,6 C 70 % 1013,7 hPa 0,0 l/m 12,7 km/h (3 Bft) W 266 0 min 0,000 mm 4,1 UV-I 382 W/m 17,8 C 22,0 C 19,3 km/h (3 Bft) 100,00 %
30.06.2016 11:00 23,6 C 69 % 1013,7 hPa 0,0 l/m 17,7 km/h (3 Bft) SW 236 0 min 0,330 mm 4,3 UV-I 415 W/m 17,6 C 21,2 C 24,1 km/h (4 Bft) 100,00 %
30.06.2016 11:02 23,6 C 69 % 1013,7 hPa 0,0 l/m 15,3 km/h (3 Bft) W-SW 256 2 min 0,000 mm 5,4 UV-I 677 W/m 17,6 C 21,6 C 19,3 km/h (3 Bft) 100,00 %
30.06.2016 11:04 23,7 C 68 % 1013,8 hPa 0,0 l/m 18,5 km/h (3 Bft) W-NW 284 2 min 0,000 mm 5,4 UV-I 872 W/m 17,4 C 21,2 C 27,4 km/h (4 Bft) 95,92 %
30.06.2016 11:06 23,8 C 68 % 1014,0 hPa 0,0 l/m 15,5 km/h (3 Bft) W 267 2 min 0,000 mm 5,6 UV-I 780 W/m 17,5 C 21,8 C 24,1 km/h (4 Bft) 95,74 %
30.06.2016 11:08 23,9 C 66 % 1013,9 hPa 0,0 l/m 14,4 km/h (3 Bft) W-NW 288 2 min 0,000 mm 5,6 UV-I 941 W/m 17,1 C 22,1 C 27,4 km/h (4 Bft) 95,74 %
30.06.2016 11:10 23,9 C 65 % 1013,9 hPa 0,0 l/m 14,1 km/h (3 Bft) W-NW 282 2 min 0,000 mm 5,6 UV-I 1007 W/m 16,9 C 22,1 C 27,4 km/h (4 Bft) 95,74 %
30.06.2016 11:12 24,0 C 69 % 1013,9 hPa 0,0 l/m 8,9 km/h (2 Bft) SW 229 2 min 0,000 mm 5,5 UV-I 1011 W/m 18,0 C 23,3 C 19,3 km/h (3 Bft) 97,92 %
30.06.2016 11:14 24,1 C 68 % 1013,9 hPa 0,0 l/m 10,2 km/h (2 Bft) S-SW 202 2 min 0,000 mm 5,2 UV-I 954 W/m 17,8 C 23,1 C 22,5 km/h (4 Bft) 97,87 %
30.06.2016 11:16 24,1 C 67 % 1014,0 hPa 0,0 l/m 11,1 km/h (2 Bft) SW 223 2 min 0,000 mm 4,1 UV-I 496 W/m 17,6 C 22,9 C 22,5 km/h (4 Bft) 97,37 %
30.06.2016 11:18 23,9 C 69 % 1014,0 hPa 0,0 l/m 10,4 km/h (2 Bft) W 269 2 min 0,000 mm 4,2 UV-I 493 W/m 17,9 C 22,9 C 19,3 km/h (3 Bft) 97,87 %
30.06.2016 11:20 24,0 C 70 % 1014,0 hPa 0,0 l/m 7,7 km/h (2 Bft) S-SW 204 2 min 0,000 mm 4,4 UV-I 577 W/m 18,2 C 23,6 C 14,5 km/h (3 Bft) 98,00 %
30.06.2016 11:22 24,1 C 68 % 1014,0 hPa 0,0 l/m 14,0 km/h (3 Bft) W 263 2 min 0,000 mm 2,3 UV-I 485 W/m 17,8 C 22,4 C 22,5 km/h (4 Bft) 97,87 %
30.06.2016 11:24 23,8 C 67 % 1014,0 hPa 0,0 l/m 14,6 km/h (3 Bft) W 263 0 min 0,000 mm 1,9 UV-I 238 W/m 17,3 C 21,9 C 24,1 km/h (4 Bft) 97,87 %
30.06.2016 11:26 23,4 C 68 % 1014,0 hPa 0,0 l/m 18,4 km/h (3 Bft) W 259 0 min 0,000 mm 2,2 UV-I 257 W/m 17,1 C 20,8 C 27,4 km/h (4 Bft) 95,74 %
30.06.2016 11:28 23,2 C 69 % 1014,0 hPa 0,0 l/m 10,1 km/h (2 Bft) W-SW 242 0 min 0,000 mm 2,9 UV-I 285 W/m 17,2 C 22,2 C 16,1 km/h (3 Bft) 95,74 %
30.06.2016 11:30 23,1 C 70 % 1014,0 hPa 0,0 l/m 10,2 km/h (2 Bft) W-NW 292 0 min 0,000 mm 3,7 UV-I 336 W/m 17,3 C 22,0 C 20,9 km/h (4 Bft) 98,00 %
30.06.2016 11:32 23,2 C 69 % 1014,0 hPa 0,0 l/m 11,8 km/h (2 Bft) W 267 2 min 0,000 mm 4,2 UV-I 546 W/m 17,2 C 21,8 C 19,3 km/h (3 Bft) 93,62 %
30.06.2016 11:34 23,2 C 70 % 1014,0 hPa 0,0 l/m 14,2 km/h (3 Bft) W-SW 250 2 min 0,000 mm 4,5 UV-I 551 W/m 17,4 C 21,3 C 24,1 km/h (4 Bft) 97,44 %
30.06.2016 11:36 23,4 C 69 % 1014,0 hPa 0,0 l/m 15,3 km/h (3 Bft) SW 236 2 min 0,000 mm 4,4 UV-I 603 W/m 17,4 C 21,3 C 24,1 km/h (4 Bft) 93,62 %
30.06.2016 11:38 23,4 C 69 % 1014,1 hPa 0,0 l/m 18,5 km/h (3 Bft) W-SW 245 2 min 0,000 mm 3,9 UV-I 645 W/m 17,4 C 20,8 C 27,4 km/h (4 Bft) 100,00 %
30.06.2016 11:40 23,4 C 68 % 1014,2 hPa 0,0 l/m 12,6 km/h (3 Bft) W-SW 257 2 min 0,000 mm 3,7 UV-I 475 W/m 17,1 C 21,8 C 20,9 km/h (4 Bft) 98,00 %
30.06.2016 11:42 23,5 C 68 % 1014,1 hPa 0,0 l/m 15,5 km/h (3 Bft) W 269 0 min 0,000 mm 4,5 UV-I 431 W/m 17,2 C 21,4 C 30,6 km/h (5 Bft) 100,00 %
30.06.2016 11:44 23,6 C 70 % 1014,1 hPa 0,0 l/m 15,9 km/h (3 Bft) NW 313 0 min 0,000 mm 3,8 UV-I 430 W/m 17,8 C 21,5 C 25,7 km/h (4 Bft) 100,00 %
30.06.2016 11:46 23,6 C 69 % 1014,2 hPa 0,0 l/m 10,3 km/h (2 Bft) W 260 0 min 0,000 mm 3,3 UV-I 428 W/m 17,6 C 22,5 C 16,1 km/h (3 Bft) 100,00 %
30.06.2016 11:48 23,4 C 69 % 1014,3 hPa 0,0 l/m 11,8 km/h (2 Bft) SW 236 0 min 0,000 mm 3,8 UV-I 441 W/m 17,4 C 22,0 C 33,8 km/h (5 Bft) 98,00 %
30.06.2016 11:50 23,2 C 68 % 1014,2 hPa 0,0 l/m 10,9 km/h (2 Bft) W 274 0 min 0,000 mm 4,4 UV-I 441 W/m 17,0 C 22,0 C 17,7 km/h (3 Bft) 100,00 %
30.06.2016 11:52 23,2 C 68 % 1014,2 hPa 0,0 l/m 15,8 km/h (3 Bft) W-SW 253 0 min 0,000 mm 5,4 UV-I 441 W/m 17,0 C 21,0 C 29,0 km/h (5 Bft) 100,00 %
30.06.2016 11:54 23,2 C 68 % 1014,2 hPa 0,0 l/m 13,9 km/h (3 Bft) W-SW 240 0 min 0,000 mm 6,0 UV-I 471 W/m 17,0 C 21,3 C 24,1 km/h (4 Bft) 100,00 %
30.06.2016 11:56 23,3 C 68 % 1014,2 hPa 0,0 l/m 15,0 km/h (3 Bft) W 263 2 min 0,000 mm 5,2 UV-I 850 W/m 17,1 C 21,2 C 19,3 km/h (3 Bft) 97,87 %
30.06.2016 11:58 23,3 C 66 % 1014,3 hPa 0,0 l/m 15,5 km/h (3 Bft) W-NW 298 2 min 0,000 mm 4,3 UV-I 584 W/m 16,6 C 21,2 C 24,1 km/h (4 Bft) 100,00 %
30.06.2016 12:00 23,2 C 66 % 1014,3 hPa 0,0 l/m 14,3 km/h (3 Bft) W-SW 252 2 min 0,432 mm 4,1 UV-I 554 W/m 16,5 C 21,3 C 20,9 km/h (4 Bft) 100,00 %
30.06.2016 12:02 23,1 C 66 % 1014,3 hPa 0,0 l/m 13,7 km/h (3 Bft) W 267 2 min 0,000 mm 4,4 UV-I 572 W/m 16,4 C 21,2 C 22,5 km/h (4 Bft) 100,00 %
30.06.2016 12:04 23,0 C 66 % 1014,3 hPa 0,0 l/m 18,8 km/h (3 Bft) SW 229 2 min 0,000 mm 4,6 UV-I 645 W/m 16,3 C 20,3 C 27,4 km/h (4 Bft) 100,00 %
30.06.2016 12:06 22,9 C 66 % 1014,3 hPa 0,0 l/m 14,4 km/h (3 Bft) W-SW 240 2 min 0,000 mm 3,9 UV-I 562 W/m 16,2 C 20,9 C 22,5 km/h (4 Bft) 100,00 %
30.06.2016 12:08 22,8 C 66 % 1014,3 hPa 0,0 l/m 12,8 km/h (3 Bft) W-SW 245 2 min 0,000 mm 4,1 UV-I 538 W/m 16,1 C 21,1 C 20,9 km/h (4 Bft) 97,87 %
30.06.2016 12:10 22,9 C 68 % 1014,3 hPa 0,0 l/m 11,0 km/h (2 Bft) SW 233 2 min 0,000 mm 4,1 UV-I 535 W/m 16,7 C 21,6 C 20,9 km/h (4 Bft) 100,00 %
30.06.2016 12:12 22,9 C 68 % 1014,2 hPa 0,0 l/m 11,8 km/h (2 Bft) W-SW 246 2 min 0,000 mm 4,9 UV-I 526 W/m 16,7 C 21,4 C 22,5 km/h (4 Bft) 100,00 %
30.06.2016 12:14 22,9 C 66 % 1014,3 hPa 0,0 l/m 8,6 km/h (2 Bft) SW 231 2 min 0,000 mm 4,8 UV-I 577 W/m 16,2 C 22,2 C 14,5 km/h (3 Bft) 100,00 %
30.06.2016 12:16 23,1 C 66 % 1014,3 hPa 0,0 l/m 9,4 km/h (2 Bft) SW 229 2 min 0,000 mm 4,3 UV-I 503 W/m 16,4 C 22,2 C 16,1 km/h (3 Bft) 100,00 %
30.06.2016 12:18 23,1 C 67 % 1014,3 hPa 0,0 l/m 13,5 km/h (3 Bft) W-NW 285 2 min 0,000 mm 4,4 UV-I 521 W/m 16,6 C 21,3 C 20,9 km/h (4 Bft) 100,00 %
30.06.2016 12:20 23,1 C 68 % 1014,4 hPa 0,0 l/m 8,0 km/h (2 Bft) W-SW 257 2 min 0,000 mm 5,0 UV-I 616 W/m 16,9 C 22,6 C 14,5 km/h (3 Bft) 100,00 %
30.06.2016 12:22 23,2 C 67 % 1014,3 hPa 0,0 l/m 7,6 km/h (2 Bft) NW 321 2 min 0,000 mm 5,6 UV-I 729 W/m 16,7 C 22,8 C 14,5 km/h (3 Bft) 100,00 %
30.06.2016 12:24 23,4 C 68 % 1014,4 hPa 0,0 l/m 6,6 km/h (2 Bft) W-SW 238 2 min 0,000 mm 5,5 UV-I 783 W/m 17,1 C 23,3 C 12,9 km/h (3 Bft) 100,00 %
30.06.2016 12:26 23,5 C 66 % 1014,4 hPa 0,0 l/m 17,1 km/h (3 Bft) W-SW 254 2 min 0,000 mm 4,3 UV-I 665 W/m 16,8 C 21,1 C 29,0 km/h (5 Bft) 100,00 %
30.06.2016 12:28 23,4 C 65 % 1014,4 hPa 0,0 l/m 15,7 km/h (3 Bft) W-SW 257 0 min 0,000 mm 3,6 UV-I 447 W/m 16,4 C 21,2 C 30,6 km/h (5 Bft) 100,00 %
30.06.2016 12:30 23,3 C 65 % 1014,3 hPa 0,0 l/m 15,7 km/h (3 Bft) W 281 0 min 0,000 mm 3,5 UV-I 415 W/m 16,3 C 21,1 C 24,1 km/h (4 Bft) 100,00 %
30.06.2016 12:32 23,2 C 65 % 1014,4 hPa 0,0 l/m 15,1 km/h (3 Bft) NW 315 0 min 0,000 mm 3,6 UV-I 399 W/m 16,2 C 21,1 C 25,7 km/h (4 Bft) 100,00 %
30.06.2016 12:34 23,0 C 67 % 1014,3 hPa 0,0 l/m 14,3 km/h (3 Bft) W-SW 246 0 min 0,000 mm 3,4 UV-I 356 W/m 16,5 C 21,0 C 20,9 km/h (4 Bft) 100,00 %
30.06.2016 12:36 22,9 C 68 % 1014,4 hPa 0,0 l/m 12,7 km/h (3 Bft) W-SW 257 0 min 0,000 mm 3,4 UV-I 362 W/m 16,7 C 21,2 C 19,3 km/h (3 Bft) 100,00 %
30.06.2016 12:38 22,9 C 66 % 1014,4 hPa 0,0 l/m 15,2 km/h (3 Bft) W 262 0 min 0,000 mm 3,8 UV-I 452 W/m 16,2 C 20,7 C 27,4 km/h (4 Bft) 100,00 %
30.06.2016 12:40 22,9 C 67 % 1014,5 hPa 0,0 l/m 13,7 km/h (3 Bft) W-SW 253 2 min 0,000 mm 4,4 UV-I 530 W/m 16,4 C 21,0 C 25,7 km/h (4 Bft) 100,00 %
30.06.2016 12:42 23,0 C 66 % 1014,4 hPa 0,0 l/m 14,5 km/h (3 Bft) W 270 2 min 0,000 mm 5,5 UV-I 589 W/m 16,3 C 21,0 C 24,1 km/h (4 Bft) 100,00 %
30.06.2016 12:44 23,3 C 67 % 1014,4 hPa 0,0 l/m 8,7 km/h (2 Bft) W 274 2 min 0,000 mm 4,9 UV-I 559 W/m 16,8 C 22,6 C 16,1 km/h (3 Bft) 95,74 %
30.06.2016 12:46 23,3 C 65 % 1014,3 hPa 0,0 l/m 10,7 km/h (2 Bft) W-SW 250 0 min 0,000 mm 4,3 UV-I 460 W/m 16,3 C 22,1 C 17,7 km/h (3 Bft) 100,00 %
30.06.2016 12:48 23,3 C 65 % 1014,4 hPa 0,0 l/m 10,2 km/h (2 Bft) SW 234 0 min 0,000 mm 4,3 UV-I 485 W/m 16,3 C 22,2 C 17,7 km/h (3 Bft) 100,00 %
30.06.2016 12:50 23,3 C 66 % 1014,4 hPa 0,0 l/m 6,3 km/h (2 Bft) SW 236 2 min 0,000 mm 5,1 UV-I 582 W/m 16,6 C 23,3 C 14,5 km/h (3 Bft) 100,00 %
30.06.2016 12:52 23,4 C 66 % 1014,3 hPa 0,0 l/m 10,4 km/h (2 Bft) SW 232 2 min 0,000 mm 5,9 UV-I 816 W/m 16,7 C 22,3 C 16,1 km/h (3 Bft) 95,74 %
30.06.2016 12:54 23,6 C 65 % 1014,3 hPa 0,0 l/m 13,3 km/h (3 Bft) W-SW 249 2 min 0,000 mm 6,0 UV-I 802 W/m 16,6 C 21,9 C 27,4 km/h (4 Bft) 97,87 %
30.06.2016 12:56 23,7 C 65 % 1014,4 hPa 0,0 l/m 15,7 km/h (3 Bft) W-SW 250 2 min 0,000 mm 5,9 UV-I 738 W/m 16,7 C 21,6 C 27,4 km/h (4 Bft) 100,00 %
30.06.2016 12:58 23,7 C 64 % 1014,3 hPa 0,0 l/m 17,3 km/h (3 Bft) W 261 2 min 0,000 mm 6,4 UV-I 838 W/m 16,5 C 21,4 C 25,7 km/h (4 Bft) 95,74 %
30.06.2016 13:00 23,8 C 64 % 1014,3 hPa 0,0 l/m 12,5 km/h (3 Bft) W 274 2 min 0,431 mm 6,3 UV-I 853 W/m 16,6 C 22,3 C 19,3 km/h (3 Bft) 95,74 %
30.06.2016 13:02 23,8 C 65 % 1014,3 hPa 0,0 l/m 15,1 km/h (3 Bft) W 263 2 min 0,000 mm 6,5 UV-I 848 W/m 16,8 C 21,8 C 22,5 km/h (4 Bft) 97,87 %
30.06.2016 13:04 24,1 C 65 % 1014,3 hPa 0,0 l/m 10,2 km/h (2 Bft) SW 231 2 min 0,000 mm 6,6 UV-I 870 W/m 17,1 C 23,1 C 19,3 km/h (3 Bft) 98,00 %
30.06.2016 13:06 24,2 C 64 % 1014,3 hPa 0,0 l/m 14,5 km/h (3 Bft) W 259 2 min 0,000 mm 6,6 UV-I 852 W/m 16,9 C 22,4 C 24,1 km/h (4 Bft) 97,87 %
30.06.2016 13:08 24,2 C 62 % 1014,3 hPa 0,0 l/m 17,4 km/h (3 Bft) SW 234 2 min 0,000 mm 6,8 UV-I 894 W/m 16,4 C 22,0 C 25,7 km/h (4 Bft) 97,87 %
30.06.2016 13:10 24,2 C 63 % 1014,2 hPa 0,0 l/m 14,2 km/h (3 Bft) S-SW 205 2 min 0,000 mm 6,3 UV-I 910 W/m 16,7 C 22,5 C 22,5 km/h (4 Bft) 93,62 %
30.06.2016 13:12 24,3 C 63 % 1014,3 hPa 0,0 l/m 11,2 km/h (2 Bft) W 265 2 min 0,000 mm 6,1 UV-I 940 W/m 16,8 C 23,1 C 22,5 km/h (4 Bft) 97,87 %
30.06.2016 13:14 24,4 C 62 % 1014,3 hPa 0,0 l/m 14,7 km/h (3 Bft) W 278 2 min 0,000 mm 6,1 UV-I 938 W/m 16,6 C 22,6 C 20,9 km/h (4 Bft) 98,00 %
30.06.2016 13:16 24,3 C 63 % 1014,3 hPa 0,0 l/m 10,6 km/h (2 Bft) W-NW 284 2 min 0,000 mm 5,4 UV-I 942 W/m 16,8 C 23,3 C 17,7 km/h (3 Bft) 97,37 %
30.06.2016 13:18 24,1 C 63 % 1014,2 hPa 0,0 l/m 7,2 km/h (2 Bft) W 277 2 min 0,000 mm 5,4 UV-I 939 W/m 16,6 C 23,9 C 16,1 km/h (3 Bft) 97,87 %
30.06.2016 13:20 24,0 C 63 % 1014,3 hPa 0,0 l/m 11,1 km/h (2 Bft) W-SW 245 2 min 0,000 mm 4,9 UV-I 741 W/m 16,5 C 22,8 C 19,3 km/h (3 Bft) 97,87 %
30.06.2016 13:22 23,8 C 62 % 1014,4 hPa 0,0 l/m 10,2 km/h (2 Bft) W-NW 284 0 min 0,000 mm 4,7 UV-I 410 W/m 16,1 C 22,8 C 17,7 km/h (3 Bft) 95,74 %
30.06.2016 13:24 23,7 C 66 % 1014,3 hPa 0,0 l/m 10,2 km/h (2 Bft) W 260 0 min 0,000 mm 4,6 UV-I 384 W/m 17,0 C 22,7 C 17,7 km/h (3 Bft) 93,75 %
30.06.2016 13:26 23,8 C 64 % 1014,3 hPa 0,0 l/m 10,2 km/h (2 Bft) W-SW 256 0 min 0,000 mm 5,6 UV-I 406 W/m 16,6 C 22,8 C 16,1 km/h (3 Bft) 97,87 %
30.06.2016 13:28 24,1 C 65 % 1014,3 hPa 0,0 l/m 10,2 km/h (2 Bft) SW 233 0 min 0,000 mm 5,7 UV-I 447 W/m 17,1 C 23,1 C 22,5 km/h (4 Bft) 95,74 %
30.06.2016 13:30 24,2 C 62 % 1014,2 hPa 0,0 l/m 9,6 km/h (2 Bft) SW 236 2 min 0,000 mm 5,6 UV-I 998 W/m 16,4 C 23,4 C 16,1 km/h (3 Bft) 98,00 %
30.06.2016 13:32 24,2 C 65 % 1014,3 hPa 0,0 l/m 8,2 km/h (2 Bft) W 264 2 min 0,000 mm 6,8 UV-I 1032 W/m 17,2 C 23,7 C 16,1 km/h (3 Bft) 98,00 %
30.06.2016 13:34 24,3 C 62 % 1014,3 hPa 0,0 l/m 10,2 km/h (2 Bft) W-SW 250 2 min 0,000 mm 6,8 UV-I 1025 W/m 16,5 C 23,3 C 17,7 km/h (3 Bft) 100,00 %
30.06.2016 13:36 24,4 C 67 % 1014,2 hPa 0,0 l/m 9,6 km/h (2 Bft) W-SW 254 2 min 0,000 mm 6,8 UV-I 1043 W/m 17,9 C 23,6 C 20,9 km/h (4 Bft) 95,74 %
30.06.2016 13:38 24,6 C 64 % 1014,2 hPa 0,0 l/m 10,6 km/h (2 Bft) W-NW 286 2 min 0,000 mm 6,0 UV-I 1061 W/m 17,3 C 23,6 C 19,3 km/h (3 Bft) 95,74 %
30.06.2016 13:40 24,4 C 63 % 1014,2 hPa 0,0 l/m 11,4 km/h (2 Bft) W-NW 299 2 min 0,000 mm 4,5 UV-I 741 W/m 16,9 C 23,2 C 20,9 km/h (4 Bft) 100,00 %
30.06.2016 13:42 24,3 C 65 % 1014,2 hPa 0,0 l/m 5,4 km/h (1 Bft) W-NW 303 2 min 0,000 mm 5,1 UV-I 515 W/m 17,3 C 24,3 C 14,5 km/h (3 Bft) 100,00 %
30.06.2016 13:44 24,3 C 65 % 1014,2 hPa 0,0 l/m 8,9 km/h (2 Bft) W-SW 252 2 min 0,000 mm 6,0 UV-I 853 W/m 17,3 C 23,6 C 14,5 km/h (3 Bft) 96,00 %
30.06.2016 13:46 24,3 C 65 % 1014,2 hPa 0,0 l/m 4,0 km/h (1 Bft) NW 318 2 min 0,000 mm 6,0 UV-I 960 W/m 17,3 C 24,3 C 11,3 km/h (2 Bft) 100,00 %
30.06.2016 13:48 24,3 C 66 % 1014,1 hPa 0,0 l/m 4,3 km/h (1 Bft) N 355 2 min 0,000 mm 3,4 UV-I 805 W/m 17,5 C 24,3 C 8,0 km/h (2 Bft) 97,87 %
30.06.2016 13:50 24,1 C 64 % 1014,1 hPa 0,0 l/m 5,0 km/h (1 Bft) N 350 0 min 0,000 mm 2,9 UV-I 277 W/m 16,9 C 24,1 C 14,5 km/h (3 Bft) 100,00 %
30.06.2016 13:52 23,7 C 65 % 1014,1 hPa 0,0 l/m 4,6 km/h (1 Bft) N 355 0 min 0,000 mm 2,9 UV-I 289 W/m 16,7 C 23,7 C 12,9 km/h (3 Bft) 100,00 %
30.06.2016 13:54 23,6 C 69 % 1014,1 hPa 0,0 l/m 3,3 km/h (1 Bft) W-SW 243 0 min 0,000 mm 3,8 UV-I 333 W/m 17,6 C 23,6 C 14,5 km/h (3 Bft) 100,00 %
30.06.2016 13:56 23,8 C 68 % 1014,1 hPa 0,0 l/m 7,5 km/h (2 Bft) SW 227 2 min 0,000 mm 6,0 UV-I 877 W/m 17,5 C 23,5 C 14,5 km/h (3 Bft) 100,00 %
30.06.2016 13:58 24,3 C 67 % 1014,1 hPa 0,0 l/m 7,5 km/h (2 Bft) W 275 2 min 0,000 mm 6,5 UV-I 1009 W/m 17,8 C 24,0 C 12,9 km/h (3 Bft) 100,00 %
30.06.2016 14:00 24,3 C 64 % 1014,1 hPa 0,0 l/m 8,6 km/h (2 Bft) W-SW 253 2 min 0,508 mm 5,5 UV-I 983 W/m 17,0 C 23,7 C 14,5 km/h (3 Bft) 100,00 %
30.06.2016 14:02 24,6 C 67 % 1014,1 hPa 0,0 l/m 10,3 km/h (2 Bft) W-SW 250 2 min 0,000 mm 5,9 UV-I 989 W/m 18,1 C 23,7 C 20,9 km/h (4 Bft) 100,00 %
30.06.2016 14:04 24,5 C 62 % 1014,1 hPa 0,0 l/m 12,6 km/h (3 Bft) W-SW 257 2 min 0,000 mm 4,8 UV-I 914 W/m 16,7 C 23,1 C 19,3 km/h (3 Bft) 100,00 %
30.06.2016 14:06 24,3 C 64 % 1014,1 hPa 0,0 l/m 5,6 km/h (1 Bft) N-NW 338 0 min 0,000 mm 4,3 UV-I 456 W/m 17,0 C 24,3 C 16,1 km/h (3 Bft) 100,00 %
30.06.2016 14:08 24,2 C 64 % 1014,1 hPa 0,0 l/m 6,6 km/h (2 Bft) SW 232 0 min 0,000 mm 4,1 UV-I 451 W/m 16,9 C 24,2 C 16,1 km/h (3 Bft) 97,87 %
30.06.2016 14:10 24,1 C 64 % 1014,1 hPa 0,0 l/m 11,9 km/h (2 Bft) W-SW 250 0 min 0,000 mm 4,1 UV-I 447 W/m 16,9 C 22,8 C 17,7 km/h (3 Bft) 100,00 %
30.06.2016 14:12 24,0 C 66 % 1014,1 hPa 0,0 l/m 9,0 km/h (2 Bft) NW 325 2 min 0,000 mm 5,1 UV-I 560 W/m 17,2 C 23,3 C 19,3 km/h (3 Bft) 97,87 %
30.06.2016 14:14 24,1 C 65 % 1014,1 hPa 0,0 l/m 8,4 km/h (2 Bft) SW 229 2 min 0,000 mm 5,1 UV-I 592 W/m 17,1 C 23,6 C 17,7 km/h (3 Bft) 100,00 %
30.06.2016 14:16 24,0 C 64 % 1014,0 hPa 0,0 l/m 4,9 km/h (1 Bft) W-SW 254 2 min 0,000 mm 5,8 UV-I 693 W/m 16,8 C 24,0 C 11,3 km/h (2 Bft) 100,00 %
30.06.2016 14:18 24,0 C 64 % 1014,1 hPa 0,0 l/m 10,4 km/h (2 Bft) W 267 2 min 0,000 mm 4,8 UV-I 587 W/m 16,8 C 23,0 C 17,7 km/h (3 Bft) 97,87 %
30.06.2016 14:20 23,9 C 64 % 1014,1 hPa 0,0 l/m 7,0 km/h (2 Bft) W 280 0 min 0,000 mm 4,2 UV-I 353 W/m 16,7 C 23,7 C 12,9 km/h (3 Bft) 97,87 %
30.06.2016 14:22 23,9 C 62 % 1014,1 hPa 0,0 l/m 3,3 km/h (1 Bft) W-SW 244 0 min 0,000 mm 5,1 UV-I 352 W/m 16,2 C 23,9 C 6,4 km/h (2 Bft) 100,00 %
30.06.2016 14:24 24,2 C 67 % 1014,0 hPa 0,0 l/m 10,8 km/h (2 Bft) W-SW 246 0 min 0,000 mm 5,8 UV-I 352 W/m 17,7 C 23,1 C 17,7 km/h (3 Bft) 97,87 %
30.06.2016 14:26 24,4 C 62 % 1014,1 hPa 0,0 l/m 16,2 km/h (3 Bft) W-SW 256 2 min 0,000 mm 5,1 UV-I 885 W/m 16,6 C 22,4 C 20,9 km/h (4 Bft) 100,00 %
30.06.2016 14:28 24,3 C 62 % 1014,1 hPa 0,0 l/m 14,8 km/h (3 Bft) W-SW 249 2 min 0,000 mm 4,4 UV-I 613 W/m 16,5 C 22,5 C 20,9 km/h (4 Bft) 100,00 %
30.06.2016 14:30 24,1 C 61 % 1014,1 hPa 0,0 l/m 9,8 km/h (2 Bft) W-SW 240 0 min 0,000 mm 3,9 UV-I 423 W/m 16,1 C 23,2 C 14,5 km/h (3 Bft) 97,87 %
30.06.2016 14:32 24,0 C 64 % 1014,1 hPa 0,0 l/m 7,4 km/h (2 Bft) W-SW 253 2 min 0,000 mm 3,9 UV-I 479 W/m 16,8 C 23,7 C 14,5 km/h (3 Bft) 100,00 %
30.06.2016 14:34 24,0 C 65 % 1014,0 hPa 0,0 l/m 6,5 km/h (2 Bft) W-NW 294 2 min 0,000 mm 3,9 UV-I 488 W/m 17,0 C 24,0 C 12,9 km/h (3 Bft) 97,87 %
30.06.2016 14:36 23,9 C 62 % 1014,1 hPa 0,0 l/m 7,8 km/h (2 Bft) W 259 2 min 0,000 mm 4,0 UV-I 489 W/m 16,2 C 23,5 C 14,5 km/h (3 Bft) 100,00 %
30.06.2016 14:38 24,0 C 62 % 1014,0 hPa 0,0 l/m 7,9 km/h (2 Bft) W-SW 240 2 min 0,000 mm 4,2 UV-I 487 W/m 16,3 C 23,6 C 12,9 km/h (3 Bft) 100,00 %
30.06.2016 14:40 24,1 C 64 % 1014,1 hPa 0,0 l/m 7,3 km/h (2 Bft) W-SW 253 0 min 0,000 mm 3,1 UV-I 391 W/m 16,9 C 23,8 C 11,3 km/h (2 Bft) 100,00 %
30.06.2016 14:42 24,0 C 63 % 1014,1 hPa 0,0 l/m 10,1 km/h (2 Bft) S-SW 211 0 min 0,000 mm 2,6 UV-I 319 W/m 16,5 C 23,0 C 19,3 km/h (3 Bft) 100,00 %
30.06.2016 14:44 23,9 C 64 % 1014,2 hPa 0,0 l/m 11,6 km/h (2 Bft) W-SW 247 0 min 0,000 mm 2,4 UV-I 303 W/m 16,7 C 22,6 C 14,5 km/h (3 Bft) 100,00 %
30.06.2016 14:46 23,8 C 62 % 1014,2 hPa 0,0 l/m 9,5 km/h (2 Bft) SW 234 0 min 0,000 mm 2,6 UV-I 322 W/m 16,1 C 23,0 C 19,3 km/h (3 Bft) 100,00 %
30.06.2016 14:48 23,7 C 62 % 1014,1 hPa 0,0 l/m 13,1 km/h (3 Bft) W-SW 256 0 min 0,000 mm 2,9 UV-I 370 W/m 16,0 C 22,1 C 20,9 km/h (4 Bft) 100,00 %
30.06.2016 14:50 23,7 C 59 % 1014,1 hPa 0,0 l/m 10,3 km/h (2 Bft) SW 233 0 min 0,000 mm 3,2 UV-I 415 W/m 15,2 C 22,7 C 17,7 km/h (3 Bft) 100,00 %
30.06.2016 14:52 23,7 C 61 % 1014,1 hPa 0,0 l/m 9,2 km/h (2 Bft) W 266 0 min 0,000 mm 3,1 UV-I 388 W/m 15,7 C 22,9 C 12,9 km/h (3 Bft) 97,87 %
30.06.2016 14:54 23,7 C 63 % 1014,1 hPa 0,0 l/m 11,1 km/h (2 Bft) SW 234 0 min 0,000 mm 2,8 UV-I 328 W/m 16,2 C 22,5 C 19,3 km/h (3 Bft) 100,00 %
30.06.2016 14:56 23,7 C 62 % 1014,2 hPa 0,0 l/m 9,8 km/h (2 Bft) W 260 0 min 0,000 mm 2,5 UV-I 296 W/m 16,0 C 22,8 C 16,1 km/h (3 Bft) 97,37 %
30.06.2016 14:58 23,6 C 62 % 1014,2 hPa 0,0 l/m 7,7 km/h (2 Bft) W 259 0 min 0,000 mm 2,4 UV-I 303 W/m 15,9 C 23,2 C 14,5 km/h (3 Bft) 95,74 %
30.06.2016 15:00 23,5 C 63 % 1014,2 hPa 0,0 l/m 11,3 km/h (2 Bft) W-SW 258 0 min 0,000 mm 2,3 UV-I 276 W/m 16,0 C 22,2 C 19,3 km/h (3 Bft) 97,96 %
30.06.2016 15:02 23,4 C 64 % 1014,2 hPa 0,0 l/m 5,4 km/h (1 Bft) S-SW 209 0 min 0,381 mm 2,2 UV-I 257 W/m 16,2 C 23,4 C 9,7 km/h (2 Bft) 96,00 %
30.06.2016 15:04 23,3 C 64 % 1014,2 hPa 0,0 l/m 7,7 km/h (2 Bft) W-SW 238 0 min 0,000 mm 2,3 UV-I 272 W/m 16,1 C 22,9 C 14,5 km/h (3 Bft) 95,74 %
30.06.2016 15:06 23,4 C 64 % 1014,2 hPa 0,0 l/m 5,6 km/h (1 Bft) W-SW 244 0 min 0,000 mm 2,6 UV-I 322 W/m 16,2 C 23,4 C 11,3 km/h (2 Bft) 97,87 %
30.06.2016 15:08 23,4 C 63 % 1014,2 hPa 0,0 l/m 10,0 km/h (2 Bft) N-NW 340 0 min 0,000 mm 2,9 UV-I 411 W/m 15,9 C 22,4 C 16,1 km/h (3 Bft) 97,87 %
30.06.2016 15:10 23,6 C 63 % 1014,2 hPa 0,0 l/m 10,6 km/h (2 Bft) W-NW 284 2 min 0,000 mm 3,5 UV-I 549 W/m 16,1 C 22,5 C 17,7 km/h (3 Bft) 93,62 %
30.06.2016 15:12 23,8 C 63 % 1014,2 hPa 0,0 l/m 9,8 km/h (2 Bft) W-SW 253 2 min 0,000 mm 4,3 UV-I 614 W/m 16,3 C 22,9 C 16,1 km/h (3 Bft) 98,00 %
30.06.2016 15:14 24,1 C 63 % 1014,2 hPa 0,0 l/m 11,3 km/h (2 Bft) W-SW 247 2 min 0,000 mm 4,7 UV-I 680 W/m 16,6 C 22,9 C 19,3 km/h (3 Bft) 93,62 %
30.06.2016 15:16 24,1 C 59 % 1014,2 hPa 0,0 l/m 13,0 km/h (3 Bft) S-SW 204 2 min 0,000 mm 4,4 UV-I 614 W/m 15,6 C 22,6 C 22,5 km/h (4 Bft) 97,87 %
30.06.2016 15:18 24,1 C 59 % 1014,1 hPa 0,0 l/m 8,8 km/h (2 Bft) W-SW 254 2 min 0,000 mm 3,8 UV-I 587 W/m 15,6 C 23,5 C 17,7 km/h (3 Bft) 97,37 %
30.06.2016 15:20 24,1 C 59 % 1014,1 hPa 0,0 l/m 11,2 km/h (2 Bft) S-SW 213 2 min 0,000 mm 3,5 UV-I 454 W/m 15,6 C 22,9 C 16,1 km/h (3 Bft) 95,74 %
30.06.2016 15:22 24,0 C 62 % 1014,1 hPa 0,0 l/m 8,2 km/h (2 Bft) W-SW 250 2 min 0,000 mm 3,3 UV-I 440 W/m 16,3 C 23,5 C 12,9 km/h (3 Bft) 98,00 %
30.06.2016 15:24 24,0 C 60 % 1014,1 hPa 0,0 l/m 8,4 km/h (2 Bft) W-SW 254 0 min 0,000 mm 2,9 UV-I 378 W/m 15,7 C 23,4 C 17,7 km/h (3 Bft) 97,92 %
30.06.2016 15:26 23,8 C 61 % 1014,1 hPa 0,0 l/m 5,6 km/h (1 Bft) W-SW 252 0 min 0,000 mm 2,8 UV-I 347 W/m 15,8 C 23,8 C 12,9 km/h (3 Bft) 97,87 %
30.06.2016 15:28 23,8 C 64 % 1014,1 hPa 0,0 l/m 5,9 km/h (2 Bft) W-NW 290 0 min 0,000 mm 2,6 UV-I 327 W/m 16,6 C 23,8 C 12,9 km/h (3 Bft) 97,56 %
30.06.2016 15:30 23,7 C 64 % 1014,1 hPa 0,0 l/m 8,4 km/h (2 Bft) NW 307 0 min 0,000 mm 2,5 UV-I 320 W/m 16,5 C 23,1 C 14,5 km/h (3 Bft) 100,00 %
30.06.2016 15:32 23,6 C 64 % 1014,1 hPa 0,0 l/m 8,9 km/h (2 Bft) W 268 0 min 0,000 mm 2,5 UV-I 319 W/m 16,4 C 22,9 C 14,5 km/h (3 Bft) 95,74 %
30.06.2016 15:34 23,5 C 64 % 1014,1 hPa 0,0 l/m 7,6 km/h (2 Bft) W-SW 257 0 min 0,000 mm 2,4 UV-I 326 W/m 16,3 C 23,1 C 14,5 km/h (3 Bft) 93,62 %
30.06.2016 15:36 23,4 C 63 % 1014,1 hPa 0,0 l/m 7,8 km/h (2 Bft) W-SW 251 0 min 0,000 mm 2,5 UV-I 355 W/m 15,9 C 23,0 C 14,5 km/h (3 Bft) 100,00 %
30.06.2016 15:38 23,4 C 63 % 1014,1 hPa 0,0 l/m 6,3 km/h (2 Bft) SW 227 0 min 0,000 mm 2,6 UV-I 393 W/m 15,9 C 23,4 C 11,3 km/h (2 Bft) 97,87 %
30.06.2016 15:40 23,4 C 64 % 1014,1 hPa 0,0 l/m 5,1 km/h (1 Bft) W-SW 246 0 min 0,000 mm 2,6 UV-I 396 W/m 16,2 C 23,4 C 11,3 km/h (2 Bft) 98,00 %
30.06.2016 15:42 23,4 C 64 % 1014,1 hPa 0,0 l/m 6,3 km/h (2 Bft) SW 215 0 min 0,000 mm 2,5 UV-I 366 W/m 16,2 C 23,4 C 14,5 km/h (3 Bft) 100,00 %
30.06.2016 15:44 23,4 C 65 % 1014,1 hPa 0,0 l/m 4,9 km/h (1 Bft) N 355 0 min 0,000 mm 2,3 UV-I 326 W/m 16,4 C 23,4 C 8,0 km/h (2 Bft) 100,00 %
30.06.2016 15:46 23,4 C 66 % 1014,1 hPa 0,0 l/m 5,5 km/h (1 Bft) W 268 0 min 0,000 mm 2,1 UV-I 312 W/m 16,7 C 23,4 C 11,3 km/h (2 Bft) 100,00 %
30.06.2016 15:48 23,4 C 65 % 1014,1 hPa 0,0 l/m 6,3 km/h (2 Bft) SW 235 0 min 0,000 mm 1,9 UV-I 267 W/m 16,4 C 23,4 C 12,9 km/h (3 Bft) 100,00 %
30.06.2016 15:50 23,3 C 65 % 1014,1 hPa 0,0 l/m 7,9 km/h (2 Bft) S-SW 205 0 min 0,000 mm 1,7 UV-I 246 W/m 16,3 C 22,8 C 12,9 km/h (3 Bft) 100,00 %
30.06.2016 15:52 23,2 C 66 % 1014,1 hPa 0,0 l/m 5,7 km/h (1 Bft) W-SW 257 0 min 0,000 mm 1,7 UV-I 243 W/m 16,5 C 23,2 C 9,7 km/h (2 Bft) 100,00 %
30.06.2016 15:54 23,2 C 67 % 1014,1 hPa 0,0 l/m 5,7 km/h (1 Bft) W-SW 247 0 min 0,000 mm 1,6 UV-I 239 W/m 16,7 C 23,2 C 8,0 km/h (2 Bft) 100,00 %
30.06.2016 15:56 23,3 C 67 % 1014,1 hPa 0,0 l/m 3,2 km/h (1 Bft) W 267 0 min 0,000 mm 1,6 UV-I 234 W/m 16,8 C 23,3 C 6,4 km/h (2 Bft) 100,00 %
30.06.2016 15:58 23,2 C 66 % 1014,1 hPa 0,0 l/m 6,1 km/h (2 Bft) W 272 0 min 0,000 mm 1,6 UV-I 228 W/m 16,5 C 23,2 C 12,9 km/h (3 Bft) 100,00 %
30.06.2016 16:00 23,2 C 68 % 1014,1 hPa 0,0 l/m 6,5 km/h (2 Bft) SW 225 0 min 0,280 mm 1,5 UV-I 212 W/m 17,0 C 23,2 C 12,9 km/h (3 Bft) 100,00 %
30.06.2016 16:02 23,2 C 67 % 1014,1 hPa 0,0 l/m 9,2 km/h (2 Bft) SW 232 0 min 0,000 mm 1,3 UV-I 200 W/m 16,7 C 22,4 C 17,7 km/h (3 Bft) 100,00 %
30.06.2016 16:04 23,1 C 65 % 1014,1 hPa 0,0 l/m 7,6 km/h (2 Bft) W-SW 239 0 min 0,000 mm 1,3 UV-I 196 W/m 16,2 C 22,7 C 12,9 km/h (3 Bft) 100,00 %
30.06.2016 16:06 23,1 C 64 % 1014,2 hPa 0,0 l/m 8,2 km/h (2 Bft) W 272 0 min 0,000 mm 1,3 UV-I 191 W/m 15,9 C 22,5 C 14,5 km/h (3 Bft) 100,00 %
30.06.2016 16:08 23,1 C 65 % 1014,2 hPa 0,0 l/m 8,7 km/h (2 Bft) W-SW 255 0 min 0,000 mm 1,3 UV-I 192 W/m 16,2 C 22,4 C 14,5 km/h (3 Bft) 100,00 %
30.06.2016 16:10 23,1 C 65 % 1014,2 hPa 0,0 l/m 10,2 km/h (2 Bft) W-SW 252 0 min 0,000 mm 1,3 UV-I 202 W/m 16,2 C 22,0 C 14,5 km/h (3 Bft) 98,00 %
30.06.2016 16:12 23,1 C 67 % 1014,2 hPa 0,0 l/m 6,5 km/h (2 Bft) W-NW 287 0 min 0,000 mm 1,3 UV-I 205 W/m 16,6 C 23,1 C 9,7 km/h (2 Bft) 100,00 %
30.06.2016 16:14 23,1 C 64 % 1014,2 hPa 0,0 l/m 11,5 km/h (2 Bft) W-NW 296 0 min 0,000 mm 1,2 UV-I 196 W/m 15,9 C 21,7 C 16,1 km/h (3 Bft) 95,74 %
30.06.2016 16:16 23,1 C 64 % 1014,2 hPa 0,0 l/m 6,2 km/h (2 Bft) W 263 0 min 0,000 mm 1,2 UV-I 192 W/m 15,9 C 23,1 C 11,3 km/h (2 Bft) 100,00 %
30.06.2016 16:18 23,1 C 64 % 1014,1 hPa 0,0 l/m 7,0 km/h (2 Bft) SW 228 0 min 0,000 mm 1,2 UV-I 200 W/m 15,9 C 22,9 C 14,5 km/h (3 Bft) 95,74 %
30.06.2016 16:20 23,1 C 63 % 1014,0 hPa 0,0 l/m 8,1 km/h (2 Bft) W-NW 288 0 min 0,000 mm 1,3 UV-I 211 W/m 15,7 C 22,6 C 14,5 km/h (3 Bft) 97,87 %
30.06.2016 16:22 23,0 C 66 % 1014,0 hPa 0,0 l/m 4,9 km/h (1 Bft) W-SW 238 0 min 0,000 mm 1,3 UV-I 218 W/m 16,3 C 23,0 C 11,3 km/h (2 Bft) 100,00 %
30.06.2016 16:24 23,0 C 64 % 1014,0 hPa 0,0 l/m 7,1 km/h (2 Bft) W-SW 256 0 min 0,000 mm 1,3 UV-I 217 W/m 15,8 C 22,8 C 12,9 km/h (3 Bft) 100,00 %
30.06.2016 16:26 23,1 C 66 % 1014,1 hPa 0,0 l/m 4,2 km/h (1 Bft) SW 236 0 min 0,000 mm 1,2 UV-I 207 W/m 16,4 C 23,1 C 6,4 km/h (2 Bft) 100,00 %
30.06.2016 16:28 23,1 C 64 % 1014,0 hPa 0,0 l/m 8,9 km/h (2 Bft) W 268 0 min 0,000 mm 1,2 UV-I 193 W/m 15,9 C 22,4 C 16,1 km/h (3 Bft) 97,87 %
30.06.2016 16:30 23,0 C 63 % 1014,0 hPa 0,0 l/m 9,2 km/h (2 Bft) W-SW 246 0 min 0,000 mm 1,1 UV-I 179 W/m 15,6 C 22,2 C 12,9 km/h (3 Bft) 100,00 %
30.06.2016 16:32 22,9 C 63 % 1013,9 hPa 0,0 l/m 6,9 km/h (2 Bft) SW 233 0 min 0,000 mm 1,0 UV-I 166 W/m 15,5 C 22,7 C 14,5 km/h (3 Bft) 100,00 %
30.06.2016 16:34 22,8 C 65 % 1014,0 hPa 0,0 l/m 4,5 km/h (1 Bft) W-SW 254 0 min 0,000 mm 0,9 UV-I 153 W/m 15,9 C 22,8 C 9,7 km/h (2 Bft) 100,00 %
30.06.2016 16:36 22,8 C 65 % 1014,0 hPa 0,0 l/m 6,7 km/h (2 Bft) W-SW 239 0 min 0,000 mm 0,8 UV-I 140 W/m 15,9 C 22,7 C 11,3 km/h (2 Bft) 95,74 %
30.06.2016 16:38 22,7 C 64 % 1014,0 hPa 0,0 l/m 7,2 km/h (2 Bft) W 263 0 min 0,000 mm 0,7 UV-I 129 W/m 15,5 C 22,4 C 11,3 km/h (2 Bft) 100,00 %
30.06.2016 16:40 22,7 C 65 % 1014,1 hPa 0,0 l/m 10,3 km/h (2 Bft) W 261 0 min 0,000 mm 0,7 UV-I 120 W/m 15,8 C 21,5 C 17,7 km/h (3 Bft) 100,00 %
30.06.2016 16:42 22,7 C 65 % 1014,1 hPa 0,0 l/m 7,1 km/h (2 Bft) W-SW 258 0 min 0,000 mm 0,6 UV-I 112 W/m 15,8 C 22,5 C 12,9 km/h (3 Bft) 95,74 %
30.06.2016 16:44 22,6 C 66 % 1014,2 hPa 0,0 l/m 5,8 km/h (2 Bft) W-SW 240 0 min 0,000 mm 0,6 UV-I 108 W/m 15,9 C 22,6 C 11,3 km/h (2 Bft) 100,00 %
30.06.2016 16:46 22,6 C 66 % 1014,2 hPa 0,0 l/m 10,7 km/h (2 Bft) W-SW 238 0 min 0,000 mm 0,6 UV-I 106 W/m 15,9 C 21,3 C 17,7 km/h (3 Bft) 93,62 %
30.06.2016 16:48 22,4 C 66 % 1014,3 hPa 0,0 l/m 10,5 km/h (2 Bft) W 261 0 min 0,000 mm 0,5 UV-I 105 W/m 15,7 C 21,2 C 17,7 km/h (3 Bft) 100,00 %
30.06.2016 16:50 22,3 C 67 % 1014,2 hPa 0,0 l/m 7,6 km/h (2 Bft) W-SW 246 0 min 0,000 mm 0,5 UV-I 101 W/m 15,9 C 21,9 C 14,5 km/h (3 Bft) 100,00 %
30.06.2016 16:52 22,3 C 67 % 1014,3 hPa 0,0 l/m 8,3 km/h (2 Bft) SW 236 0 min 0,000 mm 0,5 UV-I 95 W/m 15,9 C 21,7 C 12,9 km/h (3 Bft) 95,74 %
30.06.2016 16:54 22,2 C 68 % 1014,2 hPa 0,0 l/m 6,4 km/h (2 Bft) W-SW 254 0 min 0,000 mm 0,2 UV-I 88 W/m 16,0 C 22,2 C 8,0 km/h (2 Bft) 97,87 %
30.06.2016 16:56 22,2 C 68 % 1014,3 hPa 0,0 l/m 9,0 km/h (2 Bft) SW 232 0 min 0,000 mm 0,0 UV-I 83 W/m 16,0 C 21,4 C 14,5 km/h (3 Bft) 95,74 %
30.06.2016 16:58 22,1 C 68 % 1014,2 hPa 0,0 l/m 6,6 km/h (2 Bft) SW 224 0 min 0,000 mm 0,0 UV-I 78 W/m 15,9 C 22,0 C 12,9 km/h (3 Bft) 97,87 %
30.06.2016 17:00 22,1 C 69 % 1014,3 hPa 0,0 l/m 6,3 km/h (2 Bft) W-SW 239 0 min 0,127 mm 0,0 UV-I 77 W/m 16,1 C 22,1 C 11,3 km/h (2 Bft) 93,62 %
30.06.2016 17:02 22,0 C 72 % 1014,2 hPa 0,0 l/m 6,4 km/h (2 Bft) W-SW 258 0 min 0,000 mm 0,0 UV-I 76 W/m 16,7 C 22,0 C 9,7 km/h (2 Bft) 95,74 %
30.06.2016 17:04 21,8 C 71 % 1014,2 hPa 0,0 l/m 9,5 km/h (2 Bft) W-SW 248 0 min 0,000 mm 0,0 UV-I 76 W/m 16,3 C 20,8 C 14,5 km/h (3 Bft) 97,87 %
30.06.2016 17:06 21,7 C 72 % 1014,2 hPa 0,0 l/m 8,8 km/h (2 Bft) SW 229 0 min 0,000 mm 0,0 UV-I 76 W/m 16,4 C 20,9 C 14,5 km/h (3 Bft) 95,74 %
30.06.2016 17:08 21,6 C 74 % 1014,2 hPa 0,0 l/m 7,8 km/h (2 Bft) SW 224 0 min 0,000 mm 0,0 UV-I 76 W/m 16,8 C 21,1 C 12,9 km/h (3 Bft) 98,00 %
30.06.2016 17:10 21,4 C 75 % 1014,3 hPa 0,0 l/m 8,6 km/h (2 Bft) W 259 0 min 0,000 mm 0,0 UV-I 77 W/m 16,8 C 20,6 C 12,9 km/h (3 Bft) 95,74 %
30.06.2016 17:12 21,3 C 77 % 1014,4 hPa 0,0 l/m 10,5 km/h (2 Bft) W-SW 244 0 min 0,000 mm 0,0 UV-I 79 W/m 17,1 C 19,9 C 16,1 km/h (3 Bft) 95,83 %
30.06.2016 17:14 21,1 C 77 % 1014,3 hPa 0,0 l/m 9,4 km/h (2 Bft) S-SW 212 0 min 0,000 mm 0,0 UV-I 81 W/m 16,9 C 20,0 C 12,9 km/h (3 Bft) 98,00 %
30.06.2016 17:16 20,8 C 78 % 1014,4 hPa 0,0 l/m 8,7 km/h (2 Bft) W-SW 246 0 min 0,000 mm 0,0 UV-I 82 W/m 16,8 C 19,9 C 12,9 km/h (3 Bft) 95,74 %
30.06.2016 17:18 20,6 C 80 % 1014,4 hPa 0,0 l/m 7,4 km/h (2 Bft) S-SW 199 0 min 0,000 mm 0,0 UV-I 86 W/m 17,0 C 20,2 C 11,3 km/h (2 Bft) 97,22 %
30.06.2016 17:20 20,3 C 82 % 1014,3 hPa 0,2 l/m 8,5 km/h (2 Bft) S-SW 196 0 min 0,000 mm 0,0 UV-I 92 W/m 17,1 C 19,5 C 11,3 km/h (2 Bft) 98,00 %
30.06.2016 17:22 20,2 C 81 % 1014,4 hPa 0,0 l/m 8,0 km/h (2 Bft) S-SW 192 0 min 0,000 mm 0,2 UV-I 97 W/m 16,8 C 19,6 C 11,3 km/h (2 Bft) 98,00 %
30.06.2016 17:24 20,2 C 82 % 1014,5 hPa 0,0 l/m 6,8 km/h (2 Bft) W-SW 237 0 min 0,000 mm 0,5 UV-I 102 W/m 17,0 C 20,0 C 11,3 km/h (2 Bft) 97,87 %
30.06.2016 17:26 20,1 C 82 % 1014,4 hPa 0,0 l/m 6,5 km/h (2 Bft) S-SW 210 0 min 0,000 mm 0,5 UV-I 105 W/m 16,9 C 20,1 C 11,3 km/h (2 Bft) 100,00 %
30.06.2016 17:28 20,1 C 82 % 1014,5 hPa 0,0 l/m 8,0 km/h (2 Bft) S-SO 166 0 min 0,000 mm 0,5 UV-I 107 W/m 16,9 C 19,5 C 12,9 km/h (3 Bft) 97,87 %
30.06.2016 17:30 20,1 C 83 % 1014,5 hPa 0,0 l/m 7,5 km/h (2 Bft) W-SW 241 0 min 0,000 mm 0,5 UV-I 111 W/m 17,1 C 19,7 C 12,9 km/h (3 Bft) 97,87 %
30.06.2016 17:32 20,0 C 83 % 1014,4 hPa 0,0 l/m 7,6 km/h (2 Bft) S 188 0 min 0,000 mm 0,5 UV-I 113 W/m 17,0 C 19,5 C 11,3 km/h (2 Bft) 100,00 %
30.06.2016 17:34 20,0 C 82 % 1014,4 hPa 0,0 l/m 5,5 km/h (1 Bft) SW 217 0 min 0,000 mm 0,5 UV-I 122 W/m 16,8 C 20,0 C 8,0 km/h (2 Bft) 100,00 %
30.06.2016 17:36 20,1 C 83 % 1014,3 hPa 0,0 l/m 5,7 km/h (1 Bft) SW 229 0 min 0,000 mm 0,6 UV-I 138 W/m 17,1 C 20,1 C 9,7 km/h (2 Bft) 97,87 %
30.06.2016 17:38 20,1 C 84 % 1014,3 hPa 0,0 l/m 7,0 km/h (2 Bft) SW 218 0 min 0,000 mm 0,6 UV-I 162 W/m 17,3 C 19,9 C 11,3 km/h (2 Bft) 100,00 %
30.06.2016 17:40 20,2 C 84 % 1014,2 hPa 0,0 l/m 5,9 km/h (2 Bft) W-SW 242 0 min 0,000 mm 0,7 UV-I 186 W/m 17,4 C 20,2 C 9,7 km/h (2 Bft) 100,00 %
30.06.2016 17:42 20,2 C 84 % 1014,2 hPa 0,0 l/m 6,1 km/h (2 Bft) S 185 0 min 0,000 mm 0,7 UV-I 192 W/m 17,4 C 20,2 C 9,7 km/h (2 Bft) 97,87 %
30.06.2016 17:44 20,3 C 83 % 1014,2 hPa 0,0 l/m 6,8 km/h (2 Bft) SW 219 0 min 0,000 mm 0,8 UV-I 205 W/m 17,3 C 20,1 C 9,7 km/h (2 Bft) 100,00 %
30.06.2016 17:46 20,3 C 84 % 1014,2 hPa 0,0 l/m 6,7 km/h (2 Bft) W-SW 238 0 min 0,000 mm 0,8 UV-I 196 W/m 17,5 C 20,2 C 9,7 km/h (2 Bft) 97,87 %
30.06.2016 17:48 20,3 C 83 % 1014,2 hPa 0,0 l/m 6,4 km/h (2 Bft) S 175 0 min 0,000 mm 0,8 UV-I 195 W/m 17,3 C 20,3 C 11,3 km/h (2 Bft) 100,00 %
30.06.2016 17:50 20,4 C 83 % 1014,2 hPa 0,0 l/m 5,0 km/h (1 Bft) SW 234 0 min 0,000 mm 0,7 UV-I 191 W/m 17,4 C 20,4 C 9,7 km/h (2 Bft) 97,87 %
30.06.2016 17:52 20,4 C 82 % 1014,1 hPa 0,0 l/m 6,2 km/h (2 Bft) W-SW 248 0 min 0,000 mm 0,7 UV-I 185 W/m 17,2 C 20,4 C 11,3 km/h (2 Bft) 97,87 %
30.06.2016 17:54 20,5 C 84 % 1014,1 hPa 0,0 l/m 5,5 km/h (1 Bft) SW 235 0 min 0,000 mm 0,7 UV-I 183 W/m 17,7 C 20,5 C 8,0 km/h (2 Bft) 93,62 %
30.06.2016 17:56 20,6 C 83 % 1014,1 hPa 0,0 l/m 4,1 km/h (1 Bft) S-SW 201 0 min 0,000 mm 0,7 UV-I 180 W/m 17,6 C 20,6 C 9,7 km/h (2 Bft) 100,00 %
30.06.2016 17:58 20,6 C 83 % 1014,1 hPa 0,0 l/m 5,6 km/h (1 Bft) SW 235 0 min 0,000 mm 0,7 UV-I 179 W/m 17,6 C 20,6 C 9,7 km/h (2 Bft) 97,87 %
30.06.2016 18:00 20,6 C 82 % 1014,1 hPa 0,0 l/m 4,2 km/h (1 Bft) W-SW 244 0 min 0,000 mm 0,7 UV-I 183 W/m 17,4 C 20,6 C 8,0 km/h (2 Bft) 97,92 %
30.06.2016 18:02 20,7 C 83 % 1014,1 hPa 0,0 l/m 4,9 km/h (1 Bft) SW 229 0 min 0,101 mm 0,7 UV-I 191 W/m 17,7 C 20,7 C 9,7 km/h (2 Bft) 97,87 %
30.06.2016 18:04 20,7 C 83 % 1014,1 hPa 0,0 l/m 6,0 km/h (2 Bft) SW 235 0 min 0,000 mm 0,7 UV-I 190 W/m 17,7 C 20,7 C 11,3 km/h (2 Bft) 97,87 %
30.06.2016 18:06 20,7 C 81 % 1014,0 hPa 0,0 l/m 3,3 km/h (1 Bft) S 190 0 min 0,000 mm 0,6 UV-I 178 W/m 17,3 C 20,7 C 6,4 km/h (2 Bft) 97,87 %
30.06.2016 18:08 20,7 C 81 % 1014,0 hPa 0,0 l/m 7,0 km/h (2 Bft) S-SW 207 0 min 0,000 mm 0,6 UV-I 182 W/m 17,3 C 20,5 C 11,3 km/h (2 Bft) 100,00 %
30.06.2016 18:10 20,7 C 81 % 1014,1 hPa 0,0 l/m 6,8 km/h (2 Bft) SW 219 0 min 0,000 mm 0,6 UV-I 199 W/m 17,3 C 20,5 C 12,9 km/h (3 Bft) 100,00 %
30.06.2016 18:12 20,7 C 81 % 1014,0 hPa 0,0 l/m 6,9 km/h (2 Bft) W-SW 249 0 min 0,000 mm 0,7 UV-I 228 W/m 17,3 C 20,5 C 12,9 km/h (3 Bft) 97,87 %
30.06.2016 18:14 20,8 C 83 % 1014,0 hPa 0,0 l/m 5,6 km/h (1 Bft) SW 217 0 min 0,000 mm 0,7 UV-I 231 W/m 17,8 C 20,8 C 9,7 km/h (2 Bft) 100,00 %
30.06.2016 18:16 20,8 C 82 % 1014,0 hPa 0,0 l/m 8,0 km/h (2 Bft) S 173 0 min 0,000 mm 0,6 UV-I 208 W/m 17,6 C 20,2 C 16,1 km/h (3 Bft) 94,74 %
30.06.2016 18:18 20,7 C 81 % 1013,9 hPa 0,0 l/m 4,9 km/h (1 Bft) S 175 0 min 0,000 mm 0,6 UV-I 204 W/m 17,3 C 20,7 C 11,3 km/h (2 Bft) 100,00 %
30.06.2016 18:20 20,6 C 81 % 1013,9 hPa 0,0 l/m 8,3 km/h (2 Bft) S 176 0 min 0,000 mm 0,6 UV-I 202 W/m 17,2 C 19,9 C 12,9 km/h (3 Bft) 97,87 %
30.06.2016 18:22 20,5 C 82 % 1013,9 hPa 0,0 l/m 6,9 km/h (2 Bft) S 173 0 min 0,000 mm 0,6 UV-I 198 W/m 17,3 C 20,3 C 14,5 km/h (3 Bft) 100,00 %
30.06.2016 18:24 20,4 C 81 % 1013,9 hPa 0,0 l/m 6,4 km/h (2 Bft) S-SO 158 0 min 0,000 mm 0,6 UV-I 198 W/m 17,0 C 20,4 C 12,9 km/h (3 Bft) 100,00 %
30.06.2016 18:26 20,4 C 81 % 1013,9 hPa 0,0 l/m 7,9 km/h (2 Bft) S-SO 155 0 min 0,000 mm 0,6 UV-I 201 W/m 17,0 C 19,8 C 12,9 km/h (3 Bft) 97,87 %
30.06.2016 18:28 20,3 C 81 % 1014,0 hPa 0,0 l/m 6,2 km/h (2 Bft) S-SO 168 0 min 0,000 mm 0,6 UV-I 200 W/m 16,9 C 20,3 C 11,3 km/h (2 Bft) 100,00 %
30.06.2016 18:30 20,3 C 81 % 1014,0 hPa 0,0 l/m 5,3 km/h (1 Bft) S 181 0 min 0,000 mm 0,6 UV-I 201 W/m 16,9 C 20,3 C 9,7 km/h (2 Bft) 100,00 %
30.06.2016 18:32 20,3 C 80 % 1013,9 hPa 0,0 l/m 5,4 km/h (1 Bft) S-SW 193 0 min 0,000 mm 0,6 UV-I 197 W/m 16,7 C 20,3 C 9,7 km/h (2 Bft) 100,00 %
30.06.2016 18:34 20,3 C 81 % 1013,9 hPa 0,0 l/m 5,4 km/h (1 Bft) SO 140 0 min 0,000 mm 0,6 UV-I 195 W/m 16,9 C 20,3 C 11,3 km/h (2 Bft) 97,87 %
30.06.2016 18:36 20,3 C 81 % 1013,9 hPa 0,0 l/m 4,2 km/h (1 Bft) S-SO 147 0 min 0,000 mm 0,6 UV-I 190 W/m 16,9 C 20,3 C 8,0 km/h (2 Bft) 100,00 %
30.06.2016 18:38 20,3 C 79 % 1013,8 hPa 0,0 l/m 5,3 km/h (1 Bft) S-SO 157 0 min 0,000 mm 0,6 UV-I 186 W/m 16,5 C 20,3 C 9,7 km/h (2 Bft) 97,87 %
30.06.2016 18:40 20,3 C 78 % 1013,7 hPa 0,0 l/m 4,7 km/h (1 Bft) S-SO 152 0 min 0,000 mm 0,5 UV-I 180 W/m 16,3 C 20,3 C 8,0 km/h (2 Bft) 97,92 %
30.06.2016 18:42 20,3 C 78 % 1013,7 hPa 0,0 l/m 4,6 km/h (1 Bft) SO 145 0 min 0,000 mm 0,5 UV-I 175 W/m 16,3 C 20,3 C 8,0 km/h (2 Bft) 100,00 %
30.06.2016 18:44 20,2 C 78 % 1013,7 hPa 0,0 l/m 4,8 km/h (1 Bft) S 181 0 min 0,000 mm 0,5 UV-I 168 W/m 16,2 C 20,2 C 8,0 km/h (2 Bft) 97,44 %
30.06.2016 18:46 20,2 C 79 % 1013,7 hPa 0,0 l/m 4,3 km/h (1 Bft) S-SO 159 0 min 0,000 mm 0,5 UV-I 160 W/m 16,4 C 20,2 C 6,4 km/h (2 Bft) 100,00 %
30.06.2016 18:48 20,2 C 79 % 1013,8 hPa 0,0 l/m 7,6 km/h (2 Bft) S 188 0 min 0,000 mm 0,5 UV-I 152 W/m 16,4 C 19,7 C 12,9 km/h (3 Bft) 100,00 %
30.06.2016 18:50 20,2 C 79 % 1013,7 hPa 0,0 l/m 4,1 km/h (1 Bft) S-SO 167 0 min 0,000 mm 0,5 UV-I 145 W/m 16,4 C 20,2 C 8,0 km/h (2 Bft) 95,74 %
30.06.2016 18:52 20,2 C 79 % 1013,7 hPa 0,0 l/m 3,5 km/h (1 Bft) S 178 0 min 0,000 mm 0,2 UV-I 145 W/m 16,4 C 20,2 C 6,4 km/h (2 Bft) 98,00 %
30.06.2016 18:54 20,1 C 79 % 1013,7 hPa 0,0 l/m 5,2 km/h (1 Bft) S 178 0 min 0,000 mm 0,0 UV-I 163 W/m 16,3 C 20,1 C 9,7 km/h (2 Bft) 97,87 %
30.06.2016 18:56 20,1 C 79 % 1013,7 hPa 0,0 l/m 3,8 km/h (1 Bft) S-SO 165 2 min 0,000 mm 0,0 UV-I 209 W/m 16,3 C 20,1 C 6,4 km/h (2 Bft) 95,74 %
30.06.2016 18:58 20,2 C 80 % 1013,7 hPa 0,0 l/m 4,6 km/h (1 Bft) S-SW 202 2 min 0,000 mm 0,0 UV-I 264 W/m 16,6 C 20,2 C 8,0 km/h (2 Bft) 95,74 %
30.06.2016 19:00 20,3 C 80 % 1013,7 hPa 0,0 l/m 3,9 km/h (1 Bft) S-SO 165 2 min 0,127 mm 0,0 UV-I 303 W/m 16,7 C 20,3 C 8,0 km/h (2 Bft) 96,00 %
30.06.2016 19:02 20,4 C 79 % 1013,7 hPa 0,0 l/m 4,4 km/h (1 Bft) S-SW 211 2 min 0,000 mm 0,0 UV-I 305 W/m 16,6 C 20,4 C 6,4 km/h (2 Bft) 97,37 %
30.06.2016 19:04 20,6 C 78 % 1013,7 hPa 0,0 l/m 4,6 km/h (1 Bft) S-SO 157 2 min 0,000 mm 0,0 UV-I 317 W/m 16,6 C 20,6 C 9,7 km/h (2 Bft) 95,74 %
30.06.2016 19:06 20,6 C 77 % 1013,7 hPa 0,0 l/m 6,6 km/h (2 Bft) S 183 2 min 0,000 mm 0,0 UV-I 243 W/m 16,4 C 20,5 C 11,3 km/h (2 Bft) 96,00 %
30.06.2016 19:08 20,6 C 77 % 1013,8 hPa 0,0 l/m 5,7 km/h (1 Bft) S 177 2 min 0,000 mm 0,0 UV-I 196 W/m 16,4 C 20,6 C 8,0 km/h (2 Bft) 98,00 %
30.06.2016 19:10 20,6 C 77 % 1013,8 hPa 0,0 l/m 3,4 km/h (1 Bft) S 183 2 min 0,000 mm 0,0 UV-I 266 W/m 16,4 C 20,6 C 8,0 km/h (2 Bft) 97,87 %
30.06.2016 19:12 20,7 C 76 % 1013,8 hPa 0,0 l/m 5,6 km/h (1 Bft) S 188 2 min 0,000 mm 0,0 UV-I 302 W/m 16,3 C 20,7 C 9,7 km/h (2 Bft) 95,74 %
30.06.2016 19:14 20,8 C 76 % 1013,9 hPa 0,0 l/m 6,9 km/h (2 Bft) S 180 2 min 0,000 mm 0,0 UV-I 293 W/m 16,4 C 20,6 C 11,3 km/h (2 Bft) 100,00 %
30.06.2016 19:16 20,9 C 75 % 1013,9 hPa 0,0 l/m 4,8 km/h (1 Bft) S-SO 158 2 min 0,000 mm 0,0 UV-I 288 W/m 16,3 C 20,9 C 8,0 km/h (2 Bft) 96,00 %
30.06.2016 19:18 21,0 C 75 % 1014,0 hPa 0,0 l/m 4,2 km/h (1 Bft) S-SW 196 2 min 0,000 mm 0,0 UV-I 282 W/m 16,4 C 21,0 C 9,7 km/h (2 Bft) 97,87 %
30.06.2016 19:20 21,1 C 76 % 1014,0 hPa 0,0 l/m 7,5 km/h (2 Bft) S-SO 164 2 min 0,000 mm 0,0 UV-I 273 W/m 16,7 C 20,7 C 12,9 km/h (3 Bft) 94,00 %
30.06.2016 19:22 21,1 C 74 % 1014,0 hPa 0,0 l/m 4,2 km/h (1 Bft) S-SO 162 2 min 0,000 mm 0,0 UV-I 267 W/m 16,3 C 21,1 C 8,0 km/h (2 Bft) 97,92 %
30.06.2016 19:24 21,2 C 73 % 1014,0 hPa 0,0 l/m 5,2 km/h (1 Bft) S 171 2 min 0,000 mm 0,0 UV-I 262 W/m 16,2 C 21,2 C 9,7 km/h (2 Bft) 100,00 %
30.06.2016 19:26 21,2 C 73 % 1014,0 hPa 0,0 l/m 4,9 km/h (1 Bft) S 172 2 min 0,000 mm 0,0 UV-I 254 W/m 16,2 C 21,2 C 8,0 km/h (2 Bft) 97,87 %
30.06.2016 19:28 21,3 C 74 % 1014,1 hPa 0,0 l/m 4,3 km/h (1 Bft) S-SW 207 2 min 0,000 mm 0,0 UV-I 247 W/m 16,5 C 21,3 C 8,0 km/h (2 Bft) 100,00 %
30.06.2016 19:30 21,3 C 75 % 1014,1 hPa 0,0 l/m 4,6 km/h (1 Bft) W-SW 240 2 min 0,000 mm 0,0 UV-I 239 W/m 16,7 C 21,3 C 8,0 km/h (2 Bft) 100,00 %
30.06.2016 19:32 21,4 C 73 % 1014,1 hPa 0,0 l/m 3,6 km/h (1 Bft) SW 221 2 min 0,000 mm 0,0 UV-I 204 W/m 16,4 C 21,4 C 6,4 km/h (2 Bft) 100,00 %
30.06.2016 19:34 21,5 C 72 % 1014,2 hPa 0,0 l/m 3,1 km/h (1 Bft) S 172 2 min 0,000 mm 0,0 UV-I 219 W/m 16,2 C 21,5 C 6,4 km/h (2 Bft) 97,87 %
30.06.2016 19:36 21,5 C 73 % 1014,2 hPa 0,0 l/m 4,5 km/h (1 Bft) S-SO 166 2 min 0,000 mm 0,0 UV-I 174 W/m 16,4 C 21,5 C 8,0 km/h (2 Bft) 100,00 %
30.06.2016 19:38 21,4 C 72 % 1014,3 hPa 0,0 l/m 2,8 km/h (1 Bft) S 169 0 min 0,000 mm 0,0 UV-I 107 W/m 16,1 C 21,4 C 8,0 km/h (2 Bft) 100,00 %
30.06.2016 19:40 21,3 C 75 % 1014,3 hPa 0,0 l/m 4,9 km/h (1 Bft) S-SO 147 2 min 0,000 mm 0,0 UV-I 124 W/m 16,7 C 21,3 C 8,0 km/h (2 Bft) 100,00 %
30.06.2016 19:42 21,3 C 77 % 1014,3 hPa 0,0 l/m 8,3 km/h (2 Bft) SO 130 2 min 0,000 mm 0,0 UV-I 148 W/m 17,1 C 20,6 C 11,3 km/h (2 Bft) 100,00 %
30.06.2016 19:44 21,2 C 76 % 1014,3 hPa 0,0 l/m 5,8 km/h (2 Bft) S-SO 161 2 min 0,000 mm 0,0 UV-I 128 W/m 16,8 C 21,2 C 12,9 km/h (3 Bft) 97,87 %
30.06.2016 19:46 21,2 C 75 % 1014,3 hPa 0,0 l/m 3,2 km/h (1 Bft) S-SO 157 2 min 0,000 mm 0,0 UV-I 129 W/m 16,6 C 21,2 C 4,8 km/h (1 Bft) 100,00 %
30.06.2016 19:48 21,1 C 75 % 1014,4 hPa 0,0 l/m 3,8 km/h (1 Bft) SO 137 2 min 0,000 mm 0,0 UV-I 127 W/m 16,5 C 21,1 C 6,4 km/h (2 Bft) 100,00 %
30.06.2016 19:50 21,1 C 76 % 1014,4 hPa 0,0 l/m 3,1 km/h (1 Bft) S-SO 157 2 min 0,000 mm 0,0 UV-I 121 W/m 16,7 C 21,1 C 6,4 km/h (2 Bft) 95,74 %
30.06.2016 19:52 21,1 C 77 % 1014,4 hPa 0,0 l/m 4,0 km/h (1 Bft) S-SO 155 2 min 0,000 mm 0,0 UV-I 124 W/m 16,9 C 21,1 C 6,4 km/h (2 Bft) 98,00 %
30.06.2016 19:54 21,0 C 77 % 1014,4 hPa 0,0 l/m 4,1 km/h (1 Bft) O-SO 120 2 min 0,000 mm 0,0 UV-I 121 W/m 16,8 C 21,0 C 8,0 km/h (2 Bft) 100,00 %
30.06.2016 19:56 20,9 C 77 % 1014,4 hPa 0,0 l/m 5,2 km/h (1 Bft) O-SO 120 2 min 0,000 mm 0,0 UV-I 120 W/m 16,7 C 20,9 C 8,0 km/h (2 Bft) 100,00 %
30.06.2016 19:58 20,9 C 77 % 1014,4 hPa 0,0 l/m 5,2 km/h (1 Bft) S-SO 147 2 min 0,000 mm 0,0 UV-I 121 W/m 16,7 C 20,9 C 6,4 km/h (2 Bft) 100,00 %
30.06.2016 20:00 20,9 C 78 % 1014,4 hPa 0,0 l/m 5,2 km/h (1 Bft) S-SO 157 2 min 0,000 mm 0,0 UV-I 119 W/m 16,9 C 20,9 C 9,7 km/h (2 Bft) 95,00 %
30.06.2016 20:02 20,9 C 78 % 1014,4 hPa 0,0 l/m 4,9 km/h (1 Bft) S-SO 161 2 min 0,127 mm 0,0 UV-I 115 W/m 16,9 C 20,9 C 8,0 km/h (2 Bft) 97,87 %
30.06.2016 20:04 20,9 C 78 % 1014,4 hPa 0,0 l/m 2,3 km/h (1 Bft) S-SO 158 2 min 0,000 mm 0,0 UV-I 109 W/m 16,9 C 20,9 C 6,4 km/h (2 Bft) 100,00 %
30.06.2016 20:06 20,8 C 76 % 1014,4 hPa 0,0 l/m 3,8 km/h (1 Bft) S-SO 167 2 min 0,000 mm 0,0 UV-I 105 W/m 16,4 C 20,8 C 6,4 km/h (2 Bft) 100,00 %
30.06.2016 20:08 20,8 C 76 % 1014,5 hPa 0,0 l/m 3,9 km/h (1 Bft) SO 139 2 min 0,000 mm 0,0 UV-I 100 W/m 16,4 C 20,8 C 6,4 km/h (2 Bft) 100,00 %
30.06.2016 20:10 20,8 C 77 % 1014,5 hPa 0,0 l/m 3,8 km/h (1 Bft) S-SO 154 2 min 0,000 mm 0,0 UV-I 96 W/m 16,6 C 20,8 C 8,0 km/h (2 Bft) 100,00 %
30.06.2016 20:12 20,8 C 78 % 1014,5 hPa 0,0 l/m 4,4 km/h (1 Bft) S-SO 151 2 min 0,000 mm 0,0 UV-I 90 W/m 16,8 C 20,8 C 6,4 km/h (2 Bft) 100,00 %
30.06.2016 20:14 20,7 C 77 % 1014,5 hPa 0,0 l/m 3,6 km/h (1 Bft) S-SO 161 2 min 0,000 mm 0,0 UV-I 86 W/m 16,5 C 20,7 C 6,4 km/h (2 Bft) 100,00 %
30.06.2016 20:16 20,7 C 78 % 1014,4 hPa 0,0 l/m 3,8 km/h (1 Bft) S-SO 150 2 min 0,000 mm 0,0 UV-I 82 W/m 16,7 C 20,7 C 8,0 km/h (2 Bft) 100,00 %
30.06.2016 20:18 20,6 C 78 % 1014,5 hPa 0,0 l/m 3,4 km/h (1 Bft) S-SO 154 2 min 0,000 mm 0,0 UV-I 77 W/m 16,6 C 20,6 C 8,0 km/h (2 Bft) 100,00 %
30.06.2016 20:20 20,6 C 78 % 1014,4 hPa 0,0 l/m 3,7 km/h (1 Bft) SO 144 2 min 0,000 mm 0,0 UV-I 72 W/m 16,6 C 20,6 C 6,4 km/h (2 Bft) 97,87 %
30.06.2016 20:22 20,5 C 79 % 1014,4 hPa 0,0 l/m 3,7 km/h (1 Bft) S-SO 153 2 min 0,000 mm 0,0 UV-I 68 W/m 16,7 C 20,5 C 6,4 km/h (2 Bft) 100,00 %
30.06.2016 20:24 20,4 C 80 % 1014,5 hPa 0,0 l/m 3,2 km/h (1 Bft) SO 144 2 min 0,000 mm 0,0 UV-I 66 W/m 16,8 C 20,4 C 6,4 km/h (2 Bft) 100,00 %
30.06.2016 20:26 20,4 C 80 % 1014,5 hPa 0,0 l/m 3,0 km/h (1 Bft) S-SO 150 2 min 0,000 mm 0,0 UV-I 60 W/m 16,8 C 20,4 C 4,8 km/h (1 Bft) 97,87 %
30.06.2016 20:28 20,3 C 80 % 1014,5 hPa 0,0 l/m 3,9 km/h (1 Bft) SO 130 2 min 0,000 mm 0,0 UV-I 53 W/m 16,7 C 20,3 C 4,8 km/h (1 Bft) 100,00 %
30.06.2016 20:30 20,2 C 80 % 1014,6 hPa 0,0 l/m 3,7 km/h (1 Bft) S-SO 148 2 min 0,000 mm 0,0 UV-I 50 W/m 16,6 C 20,2 C 6,4 km/h (2 Bft) 100,00 %
30.06.2016 20:32 20,2 C 80 % 1014,6 hPa 0,0 l/m 3,4 km/h (1 Bft) SO 142 2 min 0,000 mm 0,0 UV-I 48 W/m 16,6 C 20,2 C 6,4 km/h (2 Bft) 100,00 %
30.06.2016 20:34 20,1 C 80 % 1014,6 hPa 0,0 l/m 2,3 km/h (1 Bft) S-SO 148 2 min 0,000 mm 0,0 UV-I 46 W/m 16,5 C 20,1 C 4,8 km/h (1 Bft) 100,00 %
30.06.2016 20:36 20,1 C 80 % 1014,6 hPa 0,0 l/m 2,3 km/h (1 Bft) S-SO 148 2 min 0,000 mm 0,0 UV-I 45 W/m 16,5 C 20,1 C 4,8 km/h (1 Bft) 100,00 %
30.06.2016 20:38 20,0 C 80 % 1014,6 hPa 0,0 l/m 2,9 km/h (1 Bft) S-SO 159 2 min 0,000 mm 0,0 UV-I 41 W/m 16,4 C 20,0 C 6,4 km/h (2 Bft) 100,00 %
30.06.2016 20:40 20,0 C 80 % 1014,6 hPa 0,0 l/m 2,8 km/h (1 Bft) S-SO 163 2 min 0,000 mm 0,0 UV-I 40 W/m 16,4 C 20,0 C 6,4 km/h (2 Bft) 97,87 %
30.06.2016 20:42 20,0 C 80 % 1014,5 hPa 0,0 l/m 2,3 km/h (1 Bft) S-SO 161 2 min 0,000 mm 0,0 UV-I 38 W/m 16,4 C 20,0 C 3,2 km/h (1 Bft) 95,74 %
30.06.2016 20:44 19,9 C 80 % 1014,5 hPa 0,0 l/m 2,1 km/h (1 Bft) S-SO 151 2 min 0,000 mm 0,0 UV-I 36 W/m 16,3 C 19,9 C 4,8 km/h (1 Bft) 100,00 %
30.06.2016 20:46 19,9 C 80 % 1014,4 hPa 0,0 l/m 3,1 km/h (1 Bft) S-SO 159 2 min 0,000 mm 0,0 UV-I 35 W/m 16,3 C 19,9 C 6,4 km/h (2 Bft) 100,00 %
30.06.2016 20:48 19,8 C 80 % 1014,5 hPa 0,0 l/m 2,5 km/h (1 Bft) S-SO 158 2 min 0,000 mm 0,0 UV-I 33 W/m 16,2 C 19,8 C 4,8 km/h (1 Bft) 98,00 %
30.06.2016 20:50 19,8 C 81 % 1014,5 hPa 0,0 l/m 2,4 km/h (1 Bft) S-SO 159 2 min 0,000 mm 0,0 UV-I 33 W/m 16,4 C 19,8 C 6,4 km/h (2 Bft) 94,00 %
30.06.2016 20:52 19,7 C 81 % 1014,5 hPa 0,0 l/m 2,6 km/h (1 Bft) S-SO 158 2 min 0,000 mm 0,0 UV-I 31 W/m 16,3 C 19,7 C 4,8 km/h (1 Bft) 95,74 %
30.06.2016 20:54 19,7 C 81 % 1014,5 hPa 0,0 l/m 1,7 km/h (1 Bft) S-SO 161 2 min 0,000 mm 0,0 UV-I 28 W/m 16,3 C 19,7 C 3,2 km/h (1 Bft) 97,87 %
30.06.2016 20:56 19,6 C 81 % 1014,5 hPa 0,0 l/m 3,1 km/h (1 Bft) S-SO 165 0 min 0,000 mm 0,0 UV-I 26 W/m 16,2 C 19,6 C 6,4 km/h (2 Bft) 95,74 %
30.06.2016 20:58 19,6 C 82 % 1014,5 hPa 0,0 l/m 3,6 km/h (1 Bft) S-SO 163 0 min 0,000 mm 0,0 UV-I 22 W/m 16,4 C 19,6 C 8,0 km/h (2 Bft) 97,87 %
30.06.2016 21:00 19,6 C 82 % 1014,5 hPa 0,0 l/m 2,3 km/h (1 Bft) S-SO 153 0 min 0,000 mm 0,0 UV-I 19 W/m 16,4 C 19,6 C 6,4 km/h (2 Bft) 97,87 %
30.06.2016 21:02 19,5 C 82 % 1014,5 hPa 0,0 l/m 2,7 km/h (1 Bft) S-SO 158 0 min 0,051 mm 0,0 UV-I 16 W/m 16,3 C 19,5 C 6,4 km/h (2 Bft) 97,87 %
30.06.2016 21:04 19,4 C 83 % 1014,6 hPa 0,0 l/m 2,6 km/h (1 Bft) S-SO 150 0 min 0,000 mm 0,0 UV-I 12 W/m 16,4 C 19,4 C 4,8 km/h (1 Bft) 97,37 %
30.06.2016 21:06 19,3 C 83 % 1014,5 hPa 0,0 l/m 3,0 km/h (1 Bft) S-SO 155 0 min 0,000 mm 0,0 UV-I 10 W/m 16,3 C 19,3 C 4,8 km/h (1 Bft) 96,00 %
30.06.2016 21:08 19,3 C 83 % 1014,5 hPa 0,0 l/m 3,0 km/h (1 Bft) S-SO 149 0 min 0,000 mm 0,0 UV-I 8 W/m 16,3 C 19,3 C 8,0 km/h (2 Bft) 97,87 %
30.06.2016 21:10 19,2 C 83 % 1014,5 hPa 0,0 l/m 3,3 km/h (1 Bft) S-SO 161 0 min 0,000 mm 0,0 UV-I 5 W/m 16,2 C 19,2 C 6,4 km/h (2 Bft) 97,87 %
30.06.2016 21:12 19,1 C 84 % 1014,5 hPa 0,0 l/m 2,8 km/h (1 Bft) S-SO 159 0 min 0,000 mm 0,0 UV-I 2 W/m 16,3 C 19,1 C 6,4 km/h (2 Bft) 97,87 %
30.06.2016 21:14 19,1 C 84 % 1014,6 hPa 0,0 l/m 3,3 km/h (1 Bft) S-SO 161 0 min 0,000 mm 0,0 UV-I 0 W/m 16,3 C 19,1 C 8,0 km/h (2 Bft) 97,22 %
30.06.2016 21:16 19,1 C 84 % 1014,6 hPa 0,0 l/m 3,3 km/h (1 Bft) S 174 0 min 0,000 mm 0,0 UV-I 0 W/m 16,3 C 19,1 C 8,0 km/h (2 Bft) 96,77 %
30.06.2016 21:18 19,0 C 84 % 1014,6 hPa 0,0 l/m 2,5 km/h (1 Bft) S-SO 165 0 min 0,000 mm 0,0 UV-I 0 W/m 16,2 C 19,0 C 6,4 km/h (2 Bft) 95,74 %
30.06.2016 21:20 19,0 C 84 % 1014,6 hPa 0,0 l/m 3,0 km/h (1 Bft) S-SO 152 0 min 0,000 mm 0,0 UV-I 0 W/m 16,2 C 19,0 C 6,4 km/h (2 Bft) 97,87 %
30.06.2016 21:22 18,9 C 84 % 1014,7 hPa 0,0 l/m 2,1 km/h (1 Bft) S-SO 152 0 min 0,000 mm 0,0 UV-I 0 W/m 16,1 C 18,9 C 6,4 km/h (2 Bft) 97,87 %
30.06.2016 21:24 18,9 C 84 % 1014,8 hPa 0,0 l/m 3,3 km/h (1 Bft) S-SO 157 0 min 0,000 mm 0,0 UV-I 0 W/m 16,1 C 18,9 C 4,8 km/h (1 Bft) 100,00 %
30.06.2016 21:26 18,8 C 85 % 1014,8 hPa 0,0 l/m 3,3 km/h (1 Bft) S-SO 153 0 min 0,000 mm 0,0 UV-I 0 W/m 16,2 C 18,8 C 6,4 km/h (2 Bft) 97,37 %
30.06.2016 21:28 18,8 C 85 % 1014,8 hPa 0,0 l/m 4,5 km/h (1 Bft) SO 138 0 min 0,000 mm 0,0 UV-I 0 W/m 16,2 C 18,8 C 8,0 km/h (2 Bft) 100,00 %
30.06.2016 21:30 18,8 C 85 % 1014,8 hPa 0,0 l/m 4,7 km/h (1 Bft) O-SO 119 0 min 0,000 mm 0,0 UV-I 0 W/m 16,2 C 18,8 C 9,7 km/h (2 Bft) 95,74 %
30.06.2016 21:32 18,7 C 86 % 1014,8 hPa 0,0 l/m 5,7 km/h (1 Bft) SO 146 0 min 0,000 mm 0,0 UV-I 0 W/m 16,3 C 18,7 C 12,9 km/h (3 Bft) 97,87 %
30.06.2016 21:34 18,6 C 86 % 1014,8 hPa 0,0 l/m 4,8 km/h (1 Bft) S-SO 154 0 min 0,000 mm 0,0 UV-I 0 W/m 16,2 C 18,6 C 11,3 km/h (2 Bft) 100,00 %
30.06.2016 21:36 18,6 C 86 % 1014,9 hPa 0,0 l/m 4,0 km/h (1 Bft) S-SO 167 0 min 0,000 mm 0,0 UV-I 0 W/m 16,2 C 18,6 C 8,0 km/h (2 Bft) 100,00 %
30.06.2016 21:38 18,5 C 86 % 1014,9 hPa 0,0 l/m 2,3 km/h (1 Bft) S-SO 159 0 min 0,000 mm 0,0 UV-I 0 W/m 16,1 C 18,5 C 6,4 km/h (2 Bft) 97,87 %
30.06.2016 21:40 18,4 C 86 % 1014,9 hPa 0,0 l/m 3,0 km/h (1 Bft) S 178 0 min 0,000 mm 0,0 UV-I 0 W/m 16,0 C 18,4 C 8,0 km/h (2 Bft) 100,00 %
30.06.2016 21:42 18,4 C 86 % 1014,9 hPa 0,0 l/m 3,4 km/h (1 Bft) S-SO 166 0 min 0,000 mm 0,0 UV-I 0 W/m 16,0 C 18,4 C 6,4 km/h (2 Bft) 97,87 %
30.06.2016 21:44 18,4 C 86 % 1014,9 hPa 0,0 l/m 3,2 km/h (1 Bft) S-SO 159 0 min 0,000 mm 0,0 UV-I 0 W/m 16,0 C 18,4 C 6,4 km/h (2 Bft) 100,00 %
30.06.2016 21:46 18,3 C 86 % 1014,9 hPa 0,0 l/m 1,5 km/h (1 Bft) S-SO 160 0 min 0,000 mm 0,0 UV-I 0 W/m 15,9 C 18,3 C 6,4 km/h (2 Bft) 95,74 %
30.06.2016 21:48 18,3 C 86 % 1014,9 hPa 0,0 l/m 0,5 km/h (0 Bft) S-SO 160 0 min 0,000 mm 0,0 UV-I 0 W/m 15,9 C 18,3 C 1,6 km/h (1 Bft) 97,87 %
30.06.2016 21:50 18,3 C 86 % 1015,0 hPa 0,0 l/m 1,1 km/h (1 Bft) S-SO 160 0 min 0,000 mm 0,0 UV-I 0 W/m 15,9 C 18,3 C 3,2 km/h (1 Bft) 100,00 %
30.06.2016 21:52 18,2 C 87 % 1015,0 hPa 0,0 l/m 1,1 km/h (1 Bft) S-SO 160 0 min 0,000 mm 0,0 UV-I 0 W/m 16,0 C 18,2 C 3,2 km/h (1 Bft) 100,00 %
30.06.2016 21:54 18,2 C 87 % 1015,0 hPa 0,0 l/m 0,7 km/h (0 Bft) S-SO 160 0 min 0,000 mm 0,0 UV-I 0 W/m 16,0 C 18,2 C 3,2 km/h (1 Bft) 97,87 %
30.06.2016 21:56 18,2 C 87 % 1015,0 hPa 0,0 l/m 2,6 km/h (1 Bft) S-SO 167 0 min 0,000 mm 0,0 UV-I 0 W/m 16,0 C 18,2 C 6,4 km/h (2 Bft) 100,00 %
30.06.2016 21:58 18,1 C 87 % 1015,0 hPa 0,0 l/m 2,4 km/h (1 Bft) S-SO 167 0 min 0,000 mm 0,0 UV-I 0 W/m 15,9 C 18,1 C 4,8 km/h (1 Bft) 97,92 %
30.06.2016 22:00 18,1 C 87 % 1014,9 hPa 0,0 l/m 2,7 km/h (1 Bft) S-SO 167 0 min 0,000 mm 0,0 UV-I 0 W/m 15,9 C 18,1 C 4,8 km/h (1 Bft) 97,87 %
30.06.2016 22:02 18,1 C 87 % 1014,9 hPa 0,0 l/m 3,2 km/h (1 Bft) S-SO 164 0 min 0,000 mm 0,0 UV-I 0 W/m 15,9 C 18,1 C 8,0 km/h (2 Bft) 100,00 %
30.06.2016 22:04 18,0 C 87 % 1015,0 hPa 0,0 l/m 2,0 km/h (1 Bft) S-SO 165 0 min 0,000 mm 0,0 UV-I 0 W/m 15,8 C 18,0 C 6,4 km/h (2 Bft) 100,00 %
30.06.2016 22:06 17,9 C 88 % 1015,0 hPa 0,0 l/m 1,9 km/h (1 Bft) S-SO 165 0 min 0,000 mm 0,0 UV-I 0 W/m 15,9 C 17,9 C 3,2 km/h (1 Bft) 97,87 %
30.06.2016 22:08 17,9 C 88 % 1015,0 hPa 0,0 l/m 2,0 km/h (1 Bft) S-SO 164 0 min 0,000 mm 0,0 UV-I 0 W/m 15,9 C 17,9 C 6,4 km/h (2 Bft) 100,00 %
30.06.2016 22:10 17,9 C 88 % 1015,0 hPa 0,0 l/m 2,0 km/h (1 Bft) S-SO 164 0 min 0,000 mm 0,0 UV-I 0 W/m 15,9 C 17,9 C 3,2 km/h (1 Bft) 100,00 %
30.06.2016 22:12 17,9 C 88 % 1015,0 hPa 0,0 l/m 1,9 km/h (1 Bft) S-SO 164 0 min 0,000 mm 0,0 UV-I 0 W/m 15,9 C 17,9 C 6,4 km/h (2 Bft) 97,87 %
30.06.2016 22:14 17,9 C 88 % 1015,0 hPa 0,0 l/m 1,7 km/h (1 Bft) SO 140 0 min 0,000 mm 0,0 UV-I 0 W/m 15,9 C 17,9 C 4,8 km/h (1 Bft) 97,87 %
30.06.2016 22:16 17,8 C 88 % 1015,0 hPa 0,0 l/m 4,3 km/h (1 Bft) SO 128 0 min 0,000 mm 0,0 UV-I 0 W/m 15,8 C 17,8 C 6,4 km/h (2 Bft) 97,87 %
30.06.2016 22:18 17,8 C 88 % 1015,0 hPa 0,0 l/m 4,6 km/h (1 Bft) SO 125 0 min 0,000 mm 0,0 UV-I 0 W/m 15,8 C 17,8 C 6,4 km/h (2 Bft) 95,74 %
30.06.2016 22:20 17,7 C 88 % 1015,1 hPa 0,0 l/m 1,6 km/h (1 Bft) SO 125 0 min 0,000 mm 0,0 UV-I 0 W/m 15,7 C 17,7 C 3,2 km/h (1 Bft) 100,00 %
30.06.2016 22:22 17,7 C 89 % 1015,0 hPa 0,0 l/m 1,1 km/h (1 Bft) SO 125 0 min 0,000 mm 0,0 UV-I 0 W/m 15,9 C 17,7 C 3,2 km/h (1 Bft) 100,00 %
30.06.2016 22:24 17,7 C 89 % 1015,0 hPa 0,0 l/m 1,7 km/h (1 Bft) SO 128 0 min 0,000 mm 0,0 UV-I 0 W/m 15,9 C 17,7 C 4,8 km/h (1 Bft) 97,87 %
30.06.2016 22:26 17,7 C 89 % 1015,1 hPa 0,0 l/m 2,8 km/h (1 Bft) S-SO 156 0 min 0,000 mm 0,0 UV-I 0 W/m 15,9 C 17,7 C 4,8 km/h (1 Bft) 100,00 %
30.06.2016 22:28 17,7 C 89 % 1015,0 hPa 0,0 l/m 2,1 km/h (1 Bft) S-SO 159 0 min 0,000 mm 0,0 UV-I 0 W/m 15,9 C 17,7 C 6,4 km/h (2 Bft) 97,87 %
30.06.2016 22:30 17,6 C 89 % 1015,0 hPa 0,0 l/m 0,2 km/h (0 Bft) S-SO 159 0 min 0,000 mm 0,0 UV-I 0 W/m 15,8 C 17,6 C 1,6 km/h (1 Bft) 97,87 %
30.06.2016 22:32 17,6 C 89 % 1015,0 hPa 0,0 l/m 1,0 km/h (0 Bft) S-SO 159 0 min 0,000 mm 0,0 UV-I 0 W/m 15,8 C 17,6 C 3,2 km/h (1 Bft) 97,92 %
30.06.2016 22:34 17,6 C 89 % 1015,0 hPa 0,0 l/m 1,3 km/h (1 Bft) S-SO 159 0 min 0,000 mm 0,0 UV-I 0 W/m 15,8 C 17,6 C 3,2 km/h (1 Bft) 100,00 %
30.06.2016 22:36 17,6 C 89 % 1015,0 hPa 0,0 l/m 1,5 km/h (1 Bft) S-SO 159 0 min 0,000 mm 0,0 UV-I 0 W/m 15,8 C 17,6 C 3,2 km/h (1 Bft) 100,00 %
30.06.2016 22:38 17,5 C 89 % 1015,0 hPa 0,0 l/m 2,9 km/h (1 Bft) S-SO 163 0 min 0,000 mm 0,0 UV-I 0 W/m 15,7 C 17,5 C 6,4 km/h (2 Bft) 95,74 %
30.06.2016 22:40 17,5 C 89 % 1015,0 hPa 0,0 l/m 4,1 km/h (1 Bft) S-SO 167 0 min 0,000 mm 0,0 UV-I 0 W/m 15,7 C 17,5 C 6,4 km/h (2 Bft) 100,00 %
30.06.2016 22:42 17,4 C 90 % 1015,0 hPa 0,0 l/m 5,5 km/h (1 Bft) S-SO 167 0 min 0,000 mm 0,0 UV-I 0 W/m 15,7 C 17,4 C 6,4 km/h (2 Bft) 100,00 %
30.06.2016 22:44 17,4 C 90 % 1015,0 hPa 0,0 l/m 4,1 km/h (1 Bft) S 169 0 min 0,000 mm 0,0 UV-I 0 W/m 15,7 C 17,4 C 6,4 km/h (2 Bft) 97,87 %
30.06.2016 22:46 17,4 C 90 % 1015,0 hPa 0,0 l/m 2,7 km/h (1 Bft) S 169 0 min 0,000 mm 0,0 UV-I 0 W/m 15,7 C 17,4 C 6,4 km/h (2 Bft) 100,00 %
30.06.2016 22:48 17,4 C 90 % 1015,0 hPa 0,0 l/m 2,6 km/h (1 Bft) S 169 0 min 0,000 mm 0,0 UV-I 0 W/m 15,7 C 17,4 C 6,4 km/h (2 Bft) 94,29 %
30.06.2016 22:50 17,4 C 90 % 1015,0 hPa 0,0 l/m 2,4 km/h (1 Bft) S 169 0 min 0,000 mm 0,0 UV-I 0 W/m 15,7 C 17,4 C 3,2 km/h (1 Bft) 97,87 %
30.06.2016 22:52 17,3 C 90 % 1014,9 hPa 0,0 l/m 2,3 km/h (1 Bft) S 169 0 min 0,000 mm 0,0 UV-I 0 W/m 15,6 C 17,3 C 3,2 km/h (1 Bft) 97,87 %
30.06.2016 22:54 17,3 C 90 % 1015,0 hPa 0,0 l/m 1,5 km/h (1 Bft) S 169 0 min 0,000 mm 0,0 UV-I 0 W/m 15,6 C 17,3 C 3,2 km/h (1 Bft) 97,87 %
30.06.2016 22:56 17,3 C 90 % 1015,0 hPa 0,0 l/m 0,9 km/h (0 Bft) S 169 0 min 0,000 mm 0,0 UV-I 0 W/m 15,6 C 17,3 C 1,6 km/h (1 Bft) 97,87 %
30.06.2016 22:58 17,3 C 90 % 1014,9 hPa 0,0 l/m 0,5 km/h (0 Bft) S 169 0 min 0,000 mm 0,0 UV-I 0 W/m 15,6 C 17,3 C 1,6 km/h (1 Bft) 94,34 %
30.06.2016 23:00 17,3 C 90 % 1014,9 hPa 0,0 l/m 1,8 km/h (1 Bft) S 169 0 min 0,000 mm 0,0 UV-I 0 W/m 15,6 C 17,3 C 3,2 km/h (1 Bft) 95,74 %
30.06.2016 23:02 17,3 C 90 % 1015,0 hPa 0,0 l/m 2,0 km/h (1 Bft) S 169 0 min 0,000 mm 0,0 UV-I 0 W/m 15,6 C 17,3 C 3,2 km/h (1 Bft) 97,87 %
30.06.2016 23:04 17,3 C 90 % 1015,0 hPa 0,0 l/m 2,2 km/h (1 Bft) S 169 0 min 0,000 mm 0,0 UV-I 0 W/m 15,6 C 17,3 C 6,4 km/h (2 Bft) 97,87 %
30.06.2016 23:06 17,2 C 90 % 1015,0 hPa 0,0 l/m 3,4 km/h (1 Bft) S 169 0 min 0,000 mm 0,0 UV-I 0 W/m 15,5 C 17,2 C 6,4 km/h (2 Bft) 97,87 %
30.06.2016 23:08 17,2 C 90 % 1015,0 hPa 0,0 l/m 2,9 km/h (1 Bft) S 169 0 min 0,000 mm 0,0 UV-I 0 W/m 15,5 C 17,2 C 6,4 km/h (2 Bft) 97,87 %
30.06.2016 23:10 17,2 C 90 % 1015,0 hPa 0,0 l/m 2,2 km/h (1 Bft) S 169 0 min 0,000 mm 0,0 UV-I 0 W/m 15,5 C 17,2 C 3,2 km/h (1 Bft) 97,87 %
30.06.2016 23:12 17,2 C 90 % 1015,0 hPa 0,0 l/m 1,6 km/h (1 Bft) S 169 0 min 0,000 mm 0,0 UV-I 0 W/m 15,5 C 17,2 C 3,2 km/h (1 Bft) 97,87 %
30.06.2016 23:14 17,1 C 90 % 1015,0 hPa 0,0 l/m 1,4 km/h (1 Bft) S 169 0 min 0,000 mm 0,0 UV-I 0 W/m 15,4 C 17,1 C 3,2 km/h (1 Bft) 97,44 %
30.06.2016 23:16 17,2 C 90 % 1015,0 hPa 0,0 l/m 0,1 km/h (0 Bft) S 169 0 min 0,000 mm 0,0 UV-I 0 W/m 15,5 C 17,2 C 1,6 km/h (1 Bft) 97,96 %
30.06.2016 23:18 17,2 C 90 % 1015,0 hPa 0,0 l/m 0,0 km/h (0 Bft) S 169 0 min 0,000 mm 0,0 UV-I 0 W/m 15,5 C 17,2 C 0,0 km/h (0 Bft) 95,74 %
30.06.2016 23:20 17,2 C 90 % 1015,1 hPa 0,0 l/m 1,2 km/h (1 Bft) S 169 0 min 0,000 mm 0,0 UV-I 0 W/m 15,5 C 17,2 C 3,2 km/h (1 Bft) 100,00 %
30.06.2016 23:22 17,2 C 90 % 1015,1 hPa 0,0 l/m 2,5 km/h (1 Bft) S 169 0 min 0,000 mm 0,0 UV-I 0 W/m 15,5 C 17,2 C 3,2 km/h (1 Bft) 97,87 %
30.06.2016 23:24 17,2 C 89 % 1015,1 hPa 0,0 l/m 4,6 km/h (1 Bft) S 169 0 min 0,000 mm 0,0 UV-I 0 W/m 15,4 C 17,2 C 6,4 km/h (2 Bft) 100,00 %
30.06.2016 23:26 17,1 C 90 % 1015,1 hPa 0,0 l/m 4,2 km/h (1 Bft) S 169 0 min 0,000 mm 0,0 UV-I 0 W/m 15,4 C 17,1 C 6,4 km/h (2 Bft) 100,00 %
30.06.2016 23:28 17,0 C 90 % 1015,1 hPa 0,0 l/m 2,5 km/h (1 Bft) S 169 0 min 0,000 mm 0,0 UV-I 0 W/m 15,3 C 17,0 C 6,4 km/h (2 Bft) 97,87 %
30.06.2016 23:30 17,0 C 90 % 1015,1 hPa 0,0 l/m 0,4 km/h (0 Bft) S 169 0 min 0,000 mm 0,0 UV-I 0 W/m 15,3 C 17,0 C 1,6 km/h (1 Bft) 97,87 %
30.06.2016 23:32 16,9 C 90 % 1015,2 hPa 0,0 l/m 0,5 km/h (0 Bft) S 169 0 min 0,000 mm 0,0 UV-I 0 W/m 15,2 C 16,9 C 3,2 km/h (1 Bft) 97,87 %
30.06.2016 23:34 16,9 C 90 % 1015,2 hPa 0,0 l/m 1,2 km/h (1 Bft) S 169 0 min 0,000 mm 0,0 UV-I 0 W/m 15,2 C 16,9 C 1,6 km/h (1 Bft) 95,74 %
30.06.2016 23:36 16,8 C 91 % 1015,2 hPa 0,0 l/m 0,9 km/h (0 Bft) S 169 0 min 0,000 mm 0,0 UV-I 0 W/m 15,3 C 16,8 C 1,6 km/h (1 Bft) 100,00 %
30.06.2016 23:38 16,8 C 91 % 1015,2 hPa 0,0 l/m 1,5 km/h (1 Bft) S 169 0 min 0,000 mm 0,0 UV-I 0 W/m 15,3 C 16,8 C 3,2 km/h (1 Bft) 100,00 %
30.06.2016 23:40 16,8 C 91 % 1015,2 hPa 0,0 l/m 2,0 km/h (1 Bft) S 169 0 min 0,000 mm 0,0 UV-I 0 W/m 15,3 C 16,8 C 3,2 km/h (1 Bft) 97,87 %
30.06.2016 23:42 16,8 C 91 % 1015,2 hPa 0,0 l/m 2,6 km/h (1 Bft) S 169 0 min 0,000 mm 0,0 UV-I 0 W/m 15,3 C 16,8 C 3,2 km/h (1 Bft) 100,00 %
30.06.2016 23:44 16,7 C 91 % 1015,2 hPa 0,0 l/m 2,0 km/h (1 Bft) S 169 0 min 0,000 mm 0,0 UV-I 0 W/m 15,2 C 16,7 C 3,2 km/h (1 Bft) 97,87 %
30.06.2016 23:46 16,7 C 91 % 1015,2 hPa 0,0 l/m 1,5 km/h (1 Bft) S 169 0 min 0,000 mm 0,0 UV-I 0 W/m 15,2 C 16,7 C 3,2 km/h (1 Bft) 95,74 %
30.06.2016 23:48 16,7 C 91 % 1015,2 hPa 0,0 l/m 1,7 km/h (1 Bft) S 169 0 min 0,000 mm 0,0 UV-I 0 W/m 15,2 C 16,7 C 3,2 km/h (1 Bft) 97,87 %
30.06.2016 23:50 16,7 C 91 % 1015,2 hPa 0,0 l/m 0,7 km/h (0 Bft) S 169 0 min 0,000 mm 0,0 UV-I 0 W/m 15,2 C 16,7 C 1,6 km/h (1 Bft) 97,92 %
30.06.2016 23:52 16,6 C 91 % 1015,2 hPa 0,0 l/m 0,1 km/h (0 Bft) S 169 0 min 0,000 mm 0,0 UV-I 0 W/m 15,1 C 16,6 C 1,6 km/h (1 Bft) 100,00 %
30.06.2016 23:54 16,6 C 91 % 1015,2 hPa 0,0 l/m 1,0 km/h (0 Bft) S 169 0 min 0,000 mm 0,0 UV-I 0 W/m 15,1 C 16,6 C 3,2 km/h (1 Bft) 100,00 %
30.06.2016 23:56 16,6 C 91 % 1015,2 hPa 0,0 l/m 2,1 km/h (1 Bft) S 169 0 min 0,000 mm 0,0 UV-I 0 W/m 15,1 C 16,6 C 3,2 km/h (1 Bft) 97,87 %
30.06.2016 23:58 16,5 C 91 % 1015,3 hPa 0,0 l/m 2,7 km/h (1 Bft) S 169 0 min 0,000 mm 0,0 UV-I 0 W/m 15,0 C 16,5 C 3,2 km/h (1 Bft) 100,00 %
_ Min-Zeit 23:58 14:50 06:06 - 00:06 - - - - - - 23:58 05:56 00:06 01:20
Minimum _ 16,5 C 59 % 1011,1 hPa - 0,0 km/h (0 Bft) - - - - - - 15,0 C 14,8 C 0,0 km/h (0 Bft) 91,49 %
_ Max-Zeit 13:38 05:40 23:58 17:20 10:24 - - 07:02 14:00 13:08 13:38 10:20 13:42 11:48 00:00
Maximum _ 24,6 C 92 % 1015,3 hPa 0,2 l/m 19,2 km/h
W-SW (3 Bft)
- - 2 min 0,508 mm 6,8 UV-I 1061 W/m 18,5 C 24,3 C 33,8 km/h
W (5 Bft)
100,00 %
Durchschnitt _ 20,3 C 79 % 1013,5 hPa #0,2 l/m 5,6 km/h (1 Bft) W-SW - #6:16 h #3,505 mm 2,7 UV-I 307 W/m 16,5 C 19,9 C 9,9 km/h (2 Bft) 98,39 %